Darstellungsparameter: Aktuell verwendete Einstellungen:
Skalierung der Graphiken ... ?
xyx+y,   Skalierungsfaktor:      Skalierung: Modus: x, Faktor: 1
Darstellungszeitraum ... ?
Vom - - bis: - -   Zeitraum: 15.03.2016 - 14.09.2016
Min/Max/Avg-Anzeige ... ?
Zeige MMA aktuell
Zeige MMA Monat
Zeige MMA alles
Zeige --A aktuell
Zeige --A Monat
Zeige --A alles
Keine MMA-Anzeige
MMA:
Keine MMA-Graphiken
MMA-Basis: 15.03.2016 - 14.09.2016
Quicknavigation für Darstellung... ?
Tage:      1T, 2T, 3T, 5T -1T -2T -3T -5T +1T +2T +3T +5T
Wochen: 1W, 2W, 3W -1W -2W -3W +1W +2W +3W
Monate: 1M, 3M, 6M -1M -3M -6M +1M +3M +6M
Jahre:    1J, 3J, 5J, 10J -1J -3J -5J -10J +1J +3J +5J +10J
Nutze für die Darstellung ... ?
Originaldaten oder ...
Mittelwerte Minima Maxima auf...
Stundenbasis Tagesbasis Wochenbasis
Monatsbasis Jahresbasis      Datenbasis: Mittelwerte auf Stundenbasis
Darstellen als:
Statistik (Auto) Statistik J:M      Darstellung:
Zur Graphik,    zurück zur Übersicht aller Sensoren.
 
Tabellarische Datenbersicht: ?
 
Sensor: Nr:Datum:Temp:Feuchte:Taupunkt:
Aussen-T/F 1 15-03-2016 00:00:00 1.475 C 80.0833 % -1.58 C
2 15-03-2016 01:00:00 0.8 C 82.3333 % -1.86 C
3 15-03-2016 02:00:00 -0.3 C 85.7500 % -2.39 C
4 15-03-2016 03:00:00 -0.725 C 87.0833 % -2.6 C
5 15-03-2016 04:00:00 -1.275 C 88.0833 % -2.99 C
6 15-03-2016 05:00:00 -1.25 C 89.8333 % -2.7 C
7 15-03-2016 06:00:00 -0.9 C 90.0000 % -2.33 C
8 15-03-2016 07:00:00 -0.49167 C 90.0833 % -1.91 C
9 15-03-2016 08:00:00 0.625 C 88.2500 % -1.09 C
10 15-03-2016 09:00:00 2.3 C 82.5833 % -0.35 C
11 15-03-2016 10:00:00 4.58333 C 73.2500 % 0.22 C
12 15-03-2016 11:00:00 6.15 C 68.9167 % 0.88 C
13 15-03-2016 12:00:00 7.11667 C 67.0833 % 1.43 C
14 15-03-2016 13:00:00 7.48333 C 70.4167 % 2.46 C
15 15-03-2016 14:00:00 7.65 C 71.0833 % 2.75 C
16 15-03-2016 15:00:00 7.35833 C 78.2500 % 3.83 C
17 15-03-2016 16:00:00 7.81667 C 75.2500 % 3.72 C
18 15-03-2016 17:00:00 7.85833 C 71.1667 % 2.97 C
19 15-03-2016 18:00:00 6.69167 C 77.7500 % 3.09 C
20 15-03-2016 19:00:00 5.88333 C 80.4167 % 2.78 C
21 15-03-2016 20:00:00 5.30833 C 82.1667 % 2.52 C
22 15-03-2016 21:00:00 3.68333 C 85.3333 % 1.46 C
23 15-03-2016 22:00:00 3.70833 C 83.9167 % 1.25 C
24 15-03-2016 23:00:00 3.23333 C 84.9167 % 0.95 C
25 16-03-2016 00:00:00 3.05833 C 87.0000 % 1.11 C
Sensor: Nr:Datum:Temp:Feuchte:Taupunkt:
Aussen-T/F 26 16-03-2016 01:00:00 2.44167 C 87.6667 % 0.61 C
27 16-03-2016 02:00:00 2.00833 C 86.2500 % -0.04 C
28 16-03-2016 03:00:00 2.75 C 84.3333 % 0.38 C
29 16-03-2016 04:00:00 3.275 C 81.0833 % 0.35 C
30 16-03-2016 05:00:00 2.725 C 82.6667 % 0.08 C
31 16-03-2016 06:00:00 1.58333 C 86.0833 % -0.49 C
32 16-03-2016 07:00:00 2.975 C 80.3333 % -0.07 C
33 16-03-2016 08:00:00 4.39167 C 72.9167 % -0.03 C
34 16-03-2016 09:00:00 5.125 C 70.8333 % 0.28 C
35 16-03-2016 10:00:00 6.19167 C 66.4167 % 0.41 C
36 16-03-2016 11:00:00 6.63333 C 63.8333 % 0.28 C
37 16-03-2016 12:00:00 6.86667 C 62.1667 % 0.14 C
38 16-03-2016 13:00:00 7.18333 C 61.0833 % 0.2 C
39 16-03-2016 14:00:00 8.08333 C 57.5833 % 0.23 C
40 16-03-2016 15:00:00 8.35833 C 56.5000 % 0.23 C
41 16-03-2016 16:00:00 8.1 C 57.7500 % 0.29 C
42 16-03-2016 17:00:00 8.19167 C 57.7500 % 0.37 C
43 16-03-2016 18:00:00 6.825 C 62.8333 % 0.25 C
44 16-03-2016 19:00:00 4.525 C 72.1667 % -0.04 C
45 16-03-2016 20:00:00 3.74167 C 76.3333 % -0.03 C
46 16-03-2016 21:00:00 3.06667 C 79.0000 % -0.21 C
47 16-03-2016 22:00:00 2.63333 C 80.3333 % -0.4 C
48 16-03-2016 23:00:00 2.225 C 80.4167 % -0.79 C
49 17-03-2016 00:00:00 1.575 C 83.3333 % -0.94 C
50 17-03-2016 01:00:00 0.65 C 86.1667 % -1.39 C
Sensor: Nr:Datum:Temp:Feuchte:Taupunkt:
Aussen-T/F 51 17-03-2016 02:00:00 0.14167 C 88.2500 % -1.57 C
52 17-03-2016 03:00:00 -0.58333 C 89.6667 % -2.07 C
53 17-03-2016 04:00:00 -1.35 C 90.6667 % -2.68 C
54 17-03-2016 05:00:00 -1.63333 C 92.0833 % -2.75 C
55 17-03-2016 06:00:00 -1.88333 C 92.6667 % -2.91 C
56 17-03-2016 07:00:00 -1.85833 C 93.0000 % -2.84 C
57 17-03-2016 08:00:00 -1.59167 C 93.9167 % -2.44 C
58 17-03-2016 09:00:00 -0.15833 C 94.0833 % -0.99 C
59 17-03-2016 10:00:00 2.85833 C 89.0000 % 1.23 C
60 17-03-2016 11:00:00 6.39167 C 73.1667 % 1.95 C
61 17-03-2016 12:00:00 8.725 C 62.4167 % 1.95 C
62 17-03-2016 13:00:00 10.45 C 54.7500 % 1.74 C
63 17-03-2016 14:00:00 11.74167 C 49.8333 % 1.63 C
64 17-03-2016 15:00:00 12.525 C 45.4167 % 1.06 C
65 17-03-2016 16:00:00 13.39167 C 41.3333 % 0.54 C
66 17-03-2016 17:00:00 14.04167 C 42.1667 % 1.4 C
67 17-03-2016 18:00:00 9.96667 C 58.5833 % 2.24 C
68 17-03-2016 19:00:00 7.23333 C 69.2500 % 1.99 C
69 17-03-2016 20:00:00 6.75 C 71.2500 % 1.92 C
70 17-03-2016 21:00:00 5.675 C 75.6667 % 1.72 C
71 17-03-2016 22:00:00 4.275 C 79.9167 % 1.12 C
72 17-03-2016 23:00:00 2.35833 C 84.9167 % 0.09 C
73 18-03-2016 00:00:00 1.49167 C 87.6667 % -0.33 C
74 18-03-2016 01:00:00 1.05833 C 89.0000 % -0.55 C
75 18-03-2016 02:00:00 0.69167 C 89.3333 % -0.86 C
Sensor: Nr:Datum:Temp:Feuchte:Taupunkt:
Aussen-T/F 76 18-03-2016 03:00:00 -0.025 C 90.9167 % -1.33 C
77 18-03-2016 04:00:00 -0.45 C 92.0000 % -1.59 C
78 18-03-2016 05:00:00 -0.775 C 92.8333 % -1.79 C
79 18-03-2016 06:00:00 -1.21667 C 93.0000 % -2.2 C
80 18-03-2016 07:00:00 -0.99167 C 94.0000 % -1.83 C
81 18-03-2016 08:00:00 -0.55 C 94.0833 % -1.38 C
82 18-03-2016 09:00:00 0.9 C 94.0000 % 0.05 C
83 18-03-2016 10:00:00 3.475 C 89.5833 % 1.93 C
84 18-03-2016 11:00:00 6.9 C 77.7500 % 3.29 C
85 18-03-2016 12:00:00 9.46667 C 66.5833 % 3.57 C
86 18-03-2016 13:00:00 10.725 C 61.2500 % 3.58 C
87 18-03-2016 14:00:00 10.63333 C 58.9167 % 2.94 C
88 18-03-2016 15:00:00 9.66667 C 60.7500 % 2.47 C
89 18-03-2016 16:00:00 8.7 C 64.7500 % 2.44 C
90 18-03-2016 17:00:00 7.175 C 71.7500 % 2.43 C
91 18-03-2016 18:00:00 4.975 C 81.0000 % 1.99 C
92 18-03-2016 19:00:00 4.15833 C 87.0833 % 2.21 C
93 18-03-2016 20:00:00 4.09167 C 88.5833 % 2.38 C
94 18-03-2016 21:00:00 4.25833 C 89.9167 % 2.75 C
95 18-03-2016 22:00:00 4.44167 C 89.5833 % 2.88 C
96 18-03-2016 23:00:00 4.64167 C 89.7500 % 3.11 C
97 19-03-2016 00:00:00 4.76667 C 90.0000 % 3.27 C
98 19-03-2016 01:00:00 4.9 C 90.3333 % 3.45 C
99 19-03-2016 02:00:00 4.89167 C 91.0833 % 3.56 C
100 19-03-2016 03:00:00 4.875 C 92.0000 % 3.69 C
Sensor: Nr:Datum:Temp:Feuchte:Taupunkt:
Aussen-T/F 101 19-03-2016 04:00:00 4.88333 C 92.0000 % 3.7 C
102 19-03-2016 05:00:00 4.75 C 92.4167 % 3.63 C
103 19-03-2016 06:00:00 4.61667 C 93.8333 % 3.71 C
104 19-03-2016 07:00:00 4.625 C 94.7500 % 3.86 C
105 19-03-2016 08:00:00 4.70833 C 93.8333 % 3.8 C
106 19-03-2016 09:00:00 4.94167 C 90.1667 % 3.47 C
107 19-03-2016 10:00:00 5.58333 C 83.7500 % 3.06 C
108 19-03-2016 11:00:00 6.18333 C 82.6667 % 3.46 C
109 19-03-2016 12:00:00 6.45 C 83.5000 % 3.86 C
110 19-03-2016 13:00:00 6.68333 C 82.3333 % 3.89 C
111 19-03-2016 14:00:00 6.825 C 81.5833 % 3.9 C
112 19-03-2016 15:00:00 6.975 C 80.4167 % 3.84 C
113 19-03-2016 16:00:00 6.9 C 81.5000 % 3.96 C
114 19-03-2016 17:00:00 6.64167 C 84.5000 % 4.22 C
115 19-03-2016 18:00:00 6.4 C 85.2500 % 4.11 C
116 19-03-2016 19:00:00 6.21667 C 86.0000 % 4.05 C
117 19-03-2016 20:00:00 6.08333 C 85.9167 % 3.91 C
118 19-03-2016 21:00:00 5.875 C 85.8333 % 3.69 C
119 19-03-2016 22:00:00 5.75 C 85.3333 % 3.48 C
120 19-03-2016 23:00:00 5.66667 C 81.2500 % 2.71 C
121 20-03-2016 00:00:00 5.55833 C 80.0000 % 2.39 C
122 20-03-2016 01:00:00 5.28333 C 79.0000 % 1.94 C
123 20-03-2016 02:00:00 5.00833 C 78.5000 % 1.59 C
124 20-03-2016 03:00:00 4.61667 C 81.2500 % 1.69 C
125 20-03-2016 04:00:00 4.83333 C 80.8333 % 1.83 C
Sensor: Nr:Datum:Temp:Feuchte:Taupunkt:
Aussen-T/F 126 20-03-2016 05:00:00 4.85 C 81.0833 % 1.89 C
127 20-03-2016 06:00:00 4.9 C 81.5000 % 2.01 C
128 20-03-2016 07:00:00 4.84167 C 82.5833 % 2.13 C
129 20-03-2016 08:00:00 4.81667 C 83.6667 % 2.29 C
130 20-03-2016 09:00:00 4.81667 C 84.6667 % 2.46 C
131 20-03-2016 10:00:00 5.05833 C 84.9167 % 2.74 C
132 20-03-2016 11:00:00 5.75 C 83.3333 % 3.15 C
133 20-03-2016 12:00:00 5.725 C 85.6667 % 3.52 C
134 20-03-2016 13:00:00 6.19167 C 83.9167 % 3.68 C
135 20-03-2016 14:00:00 6.75833 C 78.9167 % 3.36 C
136 20-03-2016 15:00:00 7.08333 C 76.0833 % 3.16 C
137 20-03-2016 16:00:00 7.475 C 71.0833 % 2.58 C
138 20-03-2016 17:00:00 7.63333 C 73.1667 % 3.14 C
139 20-03-2016 18:00:00 7.33333 C 75.5000 % 3.3 C
140 20-03-2016 19:00:00 6.79167 C 78.5000 % 3.32 C
141 20-03-2016 20:00:00 6.76667 C 80.0000 % 3.57 C
142 20-03-2016 21:00:00 6.51667 C 83.3333 % 3.9 C
143 20-03-2016 22:00:00 6.45833 C 86.6667 % 4.4 C
144 20-03-2016 23:00:00 6.43333 C 88.6667 % 4.7 C
145 21-03-2016 00:00:00 6.29167 C 91.0000 % 4.93 C
146 21-03-2016 01:00:00 5.95833 C 92.7500 % 4.88 C
147 21-03-2016 02:00:00 5.94167 C 94.0000 % 5.05 C
148 21-03-2016 03:00:00 6.08333 C 94.5000 % 5.27 C
149 21-03-2016 04:00:00 6.2 C 95.0000 % 5.46 C
150 21-03-2016 05:00:00 6.13333 C 93.7500 % 5.2 C
Sensor: Nr:Datum:Temp:Feuchte:Taupunkt:
Aussen-T/F 151 21-03-2016 06:00:00 6.05833 C 92.0000 % 4.86 C
152 21-03-2016 07:00:00 6 C 91.9167 % 4.79 C
153 21-03-2016 08:00:00 6.09167 C 91.4167 % 4.8 C
154 21-03-2016 09:00:00 6.5 C 90.2500 % 5.02 C
155 21-03-2016 10:00:00 7.31667 C 86.5833 % 5.23 C
156 21-03-2016 11:00:00 8.13333 C 83.2500 % 5.47 C
157 21-03-2016 12:00:00 8.4 C 80.7500 % 5.29 C
158 21-03-2016 13:00:00 8.31667 C 79.5000 % 4.99 C
159 21-03-2016 14:00:00 8.00833 C 78.5000 % 4.5 C
160 21-03-2016 15:00:00 8.19167 C 76.2500 % 4.27 C
161 21-03-2016 16:00:00 8.41667 C 75.4167 % 4.33 C
162 21-03-2016 17:00:00 8.4 C 75.2500 % 4.28 C
163 21-03-2016 18:00:00 7.91667 C 75.8333 % 3.92 C
164 21-03-2016 19:00:00 7.34167 C 78.5833 % 3.87 C
165 21-03-2016 20:00:00 7.34167 C 76.9167 % 3.57 C
166 21-03-2016 21:00:00 7.24167 C 78.0833 % 3.68 C
167 21-03-2016 22:00:00 6.74167 C 80.8333 % 3.69 C
168 21-03-2016 23:00:00 6.475 C 82.4167 % 3.7 C
169 22-03-2016 00:00:00 6.16667 C 84.3333 % 3.73 C
170 22-03-2016 01:00:00 6.19167 C 86.8333 % 4.17 C
171 22-03-2016 02:00:00 6.55833 C 87.0833 % 4.57 C
172 22-03-2016 03:00:00 6.3 C 88.7500 % 4.58 C
173 22-03-2016 04:00:00 5.975 C 89.0000 % 4.3 C
174 22-03-2016 05:00:00 5.575 C 89.0000 % 3.91 C
175 22-03-2016 06:00:00 5.18333 C 88.8333 % 3.5 C
Sensor: Nr:Datum:Temp:Feuchte:Taupunkt:
Aussen-T/F 176 22-03-2016 07:00:00 4.9 C 89.7500 % 3.36 C
177 22-03-2016 08:00:00 6.08333 C 86.7500 % 4.05 C
178 22-03-2016 09:00:00 6.83333 C 83.5000 % 4.24 C
179 22-03-2016 10:00:00 8.00833 C 79.5000 % 4.69 C
180 22-03-2016 11:00:00 9.125 C 75.0833 % 4.95 C
181 22-03-2016 12:00:00 10.21667 C 70.0833 % 5.01 C
182 22-03-2016 13:00:00 11.1 C 64.4167 % 4.65 C
183 22-03-2016 14:00:00 10.94167 C 62.0833 % 3.97 C
184 22-03-2016 15:00:00 11.43333 C 60.0000 % 3.95 C
185 22-03-2016 16:00:00 11.08333 C 61.1667 % 3.9 C
186 22-03-2016 17:00:00 10.65833 C 67.4167 % 4.88 C
187 22-03-2016 18:00:00 10.25833 C 70.5000 % 5.14 C
188 22-03-2016 19:00:00 9.49167 C 77.9167 % 5.84 C
189 22-03-2016 20:00:00 8.69167 C 84.5833 % 6.24 C
190 22-03-2016 21:00:00 8.03333 C 87.9167 % 6.16 C
191 22-03-2016 22:00:00 7.83333 C 88.3333 % 6.03 C
192 22-03-2016 23:00:00 7.76667 C 88.4167 % 5.98 C
193 23-03-2016 00:00:00 7.83333 C 88.0000 % 5.97 C
194 23-03-2016 01:00:00 7.71667 C 88.0833 % 5.87 C
195 23-03-2016 02:00:00 7.54167 C 89.6667 % 5.96 C
196 23-03-2016 03:00:00 7.13333 C 91.5833 % 5.86 C
197 23-03-2016 04:00:00 6.76667 C 93.2500 % 5.76 C
198 23-03-2016 05:00:00 6.65 C 93.6667 % 5.7 C
199 23-03-2016 06:00:00 6.6 C 93.0000 % 5.55 C
200 23-03-2016 07:00:00 6.6 C 92.3333 % 5.45 C
Sensor: Nr:Datum:Temp:Feuchte:Taupunkt:
Aussen-T/F 201 23-03-2016 08:00:00 6.74167 C 91.6667 % 5.48 C
202 23-03-2016 09:00:00 7.06667 C 88.3333 % 5.27 C
203 23-03-2016 10:00:00 7.9 C 81.8333 % 4.99 C
204 23-03-2016 11:00:00 8.70833 C 80.0000 % 5.46 C
205 23-03-2016 12:00:00 9.125 C 76.1667 % 5.16 C
206 23-03-2016 13:00:00 9.39167 C 74.0000 % 5 C
207 23-03-2016 14:00:00 9.83333 C 71.3333 % 4.9 C
208 23-03-2016 15:00:00 9.68333 C 69.9167 % 4.47 C
209 23-03-2016 16:00:00 9.50833 C 67.8333 % 3.87 C
210 23-03-2016 17:00:00 9.48333 C 66.3333 % 3.53 C
211 23-03-2016 18:00:00 8.84167 C 70.5000 % 3.78 C
212 23-03-2016 19:00:00 8.25833 C 74.0000 % 3.91 C
213 23-03-2016 20:00:00 7.55833 C 79.3333 % 4.22 C
214 23-03-2016 21:00:00 7.18333 C 80.3333 % 4.03 C
215 23-03-2016 22:00:00 7.29167 C 81.0000 % 4.25 C
216 23-03-2016 23:00:00 7.00833 C 82.4167 % 4.22 C
217 24-03-2016 00:00:00 7.16667 C 80.5000 % 4.04 C
218 24-03-2016 01:00:00 7.00833 C 81.4167 % 4.05 C
219 24-03-2016 02:00:00 6.825 C 82.3333 % 4.03 C
220 24-03-2016 03:00:00 6.38333 C 84.8333 % 4.02 C
221 24-03-2016 04:00:00 6.18333 C 85.9167 % 4.01 C
222 24-03-2016 05:00:00 6.03333 C 86.5833 % 3.97 C
223 24-03-2016 06:00:00 5.20833 C 87.1667 % 3.25 C
224 24-03-2016 07:00:00 5.41667 C 88.7500 % 3.71 C
225 24-03-2016 08:00:00 6.64167 C 83.0833 % 3.98 C
Sensor: Nr:Datum:Temp:Feuchte:Taupunkt:
Aussen-T/F 226 24-03-2016 09:00:00 7.81667 C 76.5000 % 3.95 C
227 24-03-2016 10:00:00 8.35 C 74.8333 % 4.15 C
228 24-03-2016 11:00:00 8.80833 C 76.9167 % 4.99 C
229 24-03-2016 12:00:00 9.575 C 74.4167 % 5.26 C
230 24-03-2016 13:00:00 9.34167 C 75.5000 % 5.24 C
231 24-03-2016 14:00:00 7.70833 C 87.7500 % 5.81 C
232 24-03-2016 15:00:00 7.18333 C 92.5833 % 6.06 C
233 24-03-2016 16:00:00 7.525 C 93.0000 % 6.47 C
234 24-03-2016 17:00:00 7.44167 C 92.9167 % 6.37 C
235 24-03-2016 18:00:00 6.99167 C 93.0000 % 5.94 C
236 24-03-2016 19:00:00 6.73333 C 93.0000 % 5.68 C
237 24-03-2016 20:00:00 6.61667 C 92.5000 % 5.49 C
238 24-03-2016 21:00:00 6.33333 C 93.0000 % 5.29 C
239 24-03-2016 22:00:00 6.10833 C 93.0000 % 5.06 C
240 24-03-2016 23:00:00 5.81667 C 93.0833 % 4.79 C
241 25-03-2016 00:00:00 5.85 C 93.0000 % 4.81 C
242 25-03-2016 01:00:00 5.925 C 92.5000 % 4.8 C
243 25-03-2016 02:00:00 6.15 C 91.1667 % 4.82 C
244 25-03-2016 03:00:00 6.66667 C 87.2500 % 4.7 C
245 25-03-2016 04:00:00 6.38333 C 90.7500 % 4.98 C
246 25-03-2016 05:00:00 5.95 C 92.9167 % 4.89 C
247 25-03-2016 06:00:00 5.71667 C 94.0000 % 4.83 C
248 25-03-2016 07:00:00 5.95833 C 94.7500 % 5.18 C
249 25-03-2016 08:00:00 6.66667 C 93.5833 % 5.71 C
250 25-03-2016 09:00:00 7.25833 C 91.5833 % 5.98 C
Sensor: Nr:Datum:Temp:Feuchte:Taupunkt:
Aussen-T/F 251 25-03-2016 10:00:00 7.65 C 91.7500 % 6.4 C
252 25-03-2016 11:00:00 7.54167 C 92.5000 % 6.41 C
253 25-03-2016 12:00:00 7.1 C 92.7500 % 6.01 C
254 25-03-2016 13:00:00 7.125 C 93.5833 % 6.16 C
255 25-03-2016 14:00:00 7.44167 C 93.2500 % 6.42 C
256 25-03-2016 15:00:00 7.55833 C 93.9167 % 6.64 C
257 25-03-2016 16:00:00 7.75833 C 94.0000 % 6.85 C
258 25-03-2016 17:00:00 7.8 C 94.1667 % 6.92 C
259 25-03-2016 18:00:00 7.56667 C 93.1667 % 6.54 C
260 25-03-2016 19:00:00 6.91667 C 94.3333 % 6.07 C
261 25-03-2016 20:00:00 7.61667 C 90.0000 % 6.08 C
262 25-03-2016 21:00:00 7.48333 C 90.8333 % 6.09 C
263 25-03-2016 22:00:00 7.10833 C 92.8333 % 6.03 C
264 25-03-2016 23:00:00 7.15833 C 92.2500 % 5.99 C
265 26-03-2016 00:00:00 7.05833 C 93.0833 % 6.02 C
266 26-03-2016 01:00:00 6.83333 C 93.6667 % 5.89 C
267 26-03-2016 02:00:00 6.79167 C 94.0000 % 5.9 C
268 26-03-2016 03:00:00 6.50833 C 93.9167 % 5.6 C
269 26-03-2016 04:00:00 5.53333 C 94.4167 % 4.71 C
270 26-03-2016 05:00:00 4.94167 C 94.5833 % 4.15 C
271 26-03-2016 06:00:00 3.61667 C 95.0000 % 2.89 C
272 26-03-2016 07:00:00 3.51667 C 95.8333 % 2.92 C
273 26-03-2016 08:00:00 4.36667 C 96.4167 % 3.85 C
274 26-03-2016 09:00:00 5.35 C 97.0000 % 4.91 C
275 26-03-2016 10:00:00 8.63333 C 86.9167 % 6.58 C
Sensor: Nr:Datum:Temp:Feuchte:Taupunkt:
Aussen-T/F 276 26-03-2016 11:00:00 10.91667 C 75.0833 % 6.68 C
277 26-03-2016 12:00:00 12.29167 C 71.0833 % 7.21 C
278 26-03-2016 13:00:00 13.80833 C 66.2500 % 7.63 C
279 26-03-2016 14:00:00 14.85 C 61.4167 % 7.51 C
280 26-03-2016 15:00:00 15.24167 C 59.5000 % 7.41 C
281 26-03-2016 16:00:00 16.46667 C 56.7500 % 7.87 C
282 26-03-2016 17:00:00 16.06667 C 56.6667 % 7.47 C
283 26-03-2016 18:00:00 12.425 C 70.0833 % 7.13 C
284 26-03-2016 19:00:00 9.15 C 82.9167 % 6.4 C
285 26-03-2016 20:00:00 8.10833 C 85.7500 % 5.87 C
286 26-03-2016 21:00:00 8.225 C 86.4167 % 6.1 C
287 26-03-2016 22:00:00 8.24167 C 86.1667 % 6.07 C
288 26-03-2016 23:00:00 7.725 C 88.0000 % 5.87 C
289 27-03-2016 00:00:00 8.425 C 84.9167 % 6.04 C
290 27-03-2016 01:00:00 8.275 C 84.1667 % 5.76 C
291 27-03-2016 02:00:00 7.31667 C 87.7500 % 5.42 C
292 27-03-2016 04:00:00 7.89167 C 87.5000 % 5.95 C
293 27-03-2016 05:00:00 7.10833 C 88.0833 % 5.27 C
294 27-03-2016 06:00:00 7.26667 C 90.0000 % 5.74 C
295 27-03-2016 07:00:00 8.08333 C 93.2500 % 7.06 C
296 27-03-2016 08:00:00 8.86667 C 91.8333 % 7.61 C
297 27-03-2016 09:00:00 9.34167 C 91.7500 % 8.07 C
298 27-03-2016 10:00:00 9 C 91.5000 % 7.69 C
299 27-03-2016 11:00:00 9.00833 C 87.3333 % 7.02 C
300 27-03-2016 12:00:00 9.775 C 83.3333 % 7.09 C
Sensor: Nr:Datum:Temp:Feuchte:Taupunkt:
Aussen-T/F 301 27-03-2016 13:00:00 10.11667 C 83.6667 % 7.48 C
302 27-03-2016 14:00:00 10.96667 C 77.4167 % 7.18 C
303 27-03-2016 15:00:00 11.56667 C 72.8333 % 6.87 C
304 27-03-2016 16:00:00 12.74167 C 66.0000 % 6.56 C
305 27-03-2016 17:00:00 14.08333 C 61.1667 % 6.73 C
306 27-03-2016 18:00:00 12.65 C 64.3333 % 6.1 C
307 27-03-2016 19:00:00 11.8 C 69.0833 % 6.32 C
308 27-03-2016 20:00:00 9.2 C 78.2500 % 5.62 C
309 27-03-2016 21:00:00 7.61667 C 84.2500 % 5.13 C
310 27-03-2016 22:00:00 7.24167 C 84.5000 % 4.81 C
311 27-03-2016 23:00:00 7.06667 C 84.3333 % 4.61 C
312 28-03-2016 00:00:00 6.25833 C 87.0833 % 4.27 C
313 28-03-2016 01:00:00 6.00833 C 87.5833 % 4.11 C
314 28-03-2016 02:00:00 5.56667 C 88.7500 % 3.86 C
315 28-03-2016 03:00:00 5.14167 C 89.6667 % 3.59 C
316 28-03-2016 04:00:00 5.23333 C 90.4167 % 3.8 C
317 28-03-2016 05:00:00 6.075 C 86.5833 % 4.01 C
318 28-03-2016 06:00:00 6.175 C 85.7500 % 3.97 C
319 28-03-2016 07:00:00 6.44167 C 83.4167 % 3.84 C
320 28-03-2016 08:00:00 7.275 C 79.4167 % 3.96 C
321 28-03-2016 09:00:00 8.51667 C 74.2500 % 4.2 C
322 28-03-2016 10:00:00 9.43333 C 73.8333 % 5.01 C
323 28-03-2016 11:00:00 9.125 C 82.2500 % 6.26 C
324 28-03-2016 12:00:00 10.15 C 79.0000 % 6.68 C
325 28-03-2016 13:00:00 11.05 C 78.1667 % 7.4 C
Sensor: Nr:Datum:Temp:Feuchte:Taupunkt:
Aussen-T/F 326 28-03-2016 14:00:00 11.975 C 77.8333 % 8.23 C
327 28-03-2016 15:00:00 11.81667 C 78.2500 % 8.16 C
328 28-03-2016 16:00:00 8.84167 C 90.6667 % 7.4 C
329 28-03-2016 17:00:00 9.91667 C 90.2500 % 8.4 C
330 28-03-2016 18:00:00 10.05833 C 82.9167 % 7.29 C
331 28-03-2016 19:00:00 9.60833 C 84.1667 % 7.07 C
332 28-03-2016 20:00:00 8.30833 C 91.0000 % 6.93 C
333 28-03-2016 21:00:00 7.85 C 91.6667 % 6.58 C
334 28-03-2016 22:00:00 8.40833 C 87.0833 % 6.39 C
335 28-03-2016 23:00:00 8.56667 C 85.5833 % 6.29 C
336 29-03-2016 00:00:00 8.00833 C 86.0000 % 5.81 C
337 29-03-2016 01:00:00 6.94167 C 86.7500 % 4.89 C
338 29-03-2016 02:00:00 6.125 C 88.8333 % 4.42 C
339 29-03-2016 03:00:00 6.15833 C 89.4167 % 4.55 C
340 29-03-2016 04:00:00 6.43333 C 86.3333 % 4.32 C
341 29-03-2016 05:00:00 6.75833 C 83.8333 % 4.22 C
342 29-03-2016 06:00:00 6.425 C 83.4167 % 3.82 C
343 29-03-2016 07:00:00 6.56667 C 82.7500 % 3.85 C
344 29-03-2016 08:00:00 7.125 C 81.8333 % 4.24 C
345 29-03-2016 09:00:00 7.74167 C 79.3333 % 4.4 C
346 29-03-2016 10:00:00 8.75 C 75.0833 % 4.59 C
347 29-03-2016 11:00:00 9.65833 C 69.1667 % 4.29 C
348 29-03-2016 12:00:00 10.40833 C 64.2500 % 3.96 C
349 29-03-2016 13:00:00 11.775 C 60.0000 % 4.27 C
350 29-03-2016 14:00:00 12.33333 C 56.6667 % 3.99 C
Sensor: Nr:Datum:Temp:Feuchte:Taupunkt:
Aussen-T/F 351 29-03-2016 15:00:00 12.39167 C 57.2500 % 4.19 C
352 29-03-2016 16:00:00 13.175 C 55.2500 % 4.41 C
353 29-03-2016 17:00:00 14.31667 C 52.0000 % 4.6 C
354 29-03-2016 18:00:00 13.41667 C 55.9167 % 4.81 C
355 29-03-2016 19:00:00 11.2 C 66.1667 % 5.13 C
356 29-03-2016 20:00:00 8.775 C 77.9167 % 5.14 C
357 29-03-2016 21:00:00 8.35 C 80.9167 % 5.27 C
358 29-03-2016 22:00:00 8.75833 C 82.0000 % 5.86 C
359 29-03-2016 23:00:00 9.15833 C 81.0000 % 6.07 C
360 30-03-2016 00:00:00 8.58333 C 82.3333 % 5.75 C
361 30-03-2016 01:00:00 8.35833 C 87.3333 % 6.38 C
362 30-03-2016 02:00:00 8.45 C 91.0000 % 7.07 C
363 30-03-2016 03:00:00 8.36667 C 92.0833 % 7.16 C
364 30-03-2016 04:00:00 9.13333 C 88.1667 % 7.28 C
365 30-03-2016 05:00:00 9.24167 C 86.5833 % 7.12 C
366 30-03-2016 06:00:00 9.16667 C 86.3333 % 7.01 C
367 30-03-2016 07:00:00 9.19167 C 87.4167 % 7.21 C
368 30-03-2016 08:00:00 9.55 C 87.3333 % 7.55 C
369 30-03-2016 09:00:00 10.31667 C 83.8333 % 7.71 C
370 30-03-2016 10:00:00 10.8 C 82.1667 % 7.88 C
371 30-03-2016 11:00:00 10.34167 C 82.9167 % 7.57 C
372 30-03-2016 12:00:00 9.20833 C 92.5000 % 8.06 C
373 30-03-2016 13:00:00 10.69167 C 87.9167 % 8.77 C
374 30-03-2016 14:00:00 12.30833 C 76.5833 % 8.32 C
375 30-03-2016 15:00:00 12.875 C 67.8333 % 7.08 C
Sensor: Nr:Datum:Temp:Feuchte:Taupunkt:
Aussen-T/F 376 30-03-2016 16:00:00 13.05 C 69.1667 % 7.54 C
377 30-03-2016 17:00:00 12.45833 C 73.0833 % 7.77 C
378 30-03-2016 18:00:00 11.68333 C 76.1667 % 7.63 C
379 30-03-2016 19:00:00 10.85833 C 81.1667 % 7.76 C
380 30-03-2016 20:00:00 9.51667 C 89.9167 % 7.95 C
381 30-03-2016 21:00:00 8.93333 C 93.2500 % 7.9 C
382 30-03-2016 22:00:00 8.66667 C 94.5833 % 7.85 C
383 30-03-2016 23:00:00 8 C 94.1667 % 7.12 C
384 31-03-2016 00:00:00 7.45833 C 94.0000 % 6.56 C
385 31-03-2016 01:00:00 7.375 C 93.7500 % 6.44 C
386 31-03-2016 02:00:00 7.45 C 93.2500 % 6.43 C
387 31-03-2016 03:00:00 7.55 C 92.0833 % 6.35 C
388 31-03-2016 04:00:00 7.44167 C 90.7500 % 6.03 C
389 31-03-2016 05:00:00 7.4 C 90.0000 % 5.87 C
390 31-03-2016 06:00:00 7.325 C 90.1667 % 5.82 C
391 31-03-2016 07:00:00 7.09167 C 91.2500 % 5.76 C
392 31-03-2016 08:00:00 7.075 C 92.0000 % 5.87 C
393 31-03-2016 09:00:00 7.61667 C 89.0833 % 5.94 C
394 31-03-2016 10:00:00 8.075 C 87.0000 % 6.05 C
395 31-03-2016 11:00:00 8.19167 C 88.3333 % 6.38 C
396 31-03-2016 12:00:00 8.13333 C 92.0833 % 6.93 C
397 31-03-2016 13:00:00 7.90833 C 93.7500 % 6.97 C
398 31-03-2016 14:00:00 7.85833 C 94.9167 % 7.1 C
399 31-03-2016 15:00:00 7.85833 C 95.0000 % 7.11 C
400 31-03-2016 16:00:00 7.75 C 95.0000 % 7 C
Sensor: Nr:Datum:Temp:Feuchte:Taupunkt:
Aussen-T/F 401 31-03-2016 17:00:00 7.4 C 95.0000 % 6.65 C
402 31-03-2016 18:00:00 7.16667 C 95.0833 % 6.43 C
403 31-03-2016 19:00:00 6.7 C 95.3333 % 6.01 C
404 31-03-2016 20:00:00 5.95833 C 94.2500 % 5.11 C
405 31-03-2016 21:00:00 5.075 C 93.5000 % 4.12 C
406 31-03-2016 22:00:00 4.35833 C 94.7500 % 3.59 C
407 31-03-2016 23:00:00 4.24167 C 94.8333 % 3.49 C
408 01-04-2016 00:00:00 4.05833 C 95.0000 % 3.33 C
409 01-04-2016 01:00:00 3.95833 C 95.0833 % 3.24 C
410 01-04-2016 02:00:00 4.08333 C 95.0000 % 3.36 C
411 01-04-2016 03:00:00 4.1 C 95.0000 % 3.37 C
412 01-04-2016 04:00:00 4.15 C 95.1667 % 3.45 C
413 01-04-2016 05:00:00 4.2 C 96.0000 % 3.62 C
414 01-04-2016 06:00:00 4.24167 C 96.0000 % 3.66 C
415 01-04-2016 07:00:00 4.31667 C 96.0000 % 3.74 C
416 01-04-2016 08:00:00 4.675 C 96.0000 % 4.09 C
417 01-04-2016 09:00:00 5.4 C 96.0833 % 4.83 C
418 01-04-2016 10:00:00 6.25833 C 91.5000 % 4.98 C
419 01-04-2016 11:00:00 7.35 C 84.5000 % 4.91 C
420 01-04-2016 12:00:00 8.45 C 79.2500 % 5.07 C
421 01-04-2016 13:00:00 9.55 C 71.7500 % 4.71 C
422 01-04-2016 14:00:00 10.85 C 65.6667 % 4.69 C
423 01-04-2016 15:00:00 11.39167 C 64.5000 % 4.95 C
424 01-04-2016 16:00:00 11.175 C 65.4167 % 4.94 C
425 01-04-2016 17:00:00 11.84167 C 63.6667 % 5.19 C
Sensor: Nr:Datum:Temp:Feuchte:Taupunkt:
Aussen-T/F 426 01-04-2016 18:00:00 11.35 C 66.1667 % 5.27 C
427 01-04-2016 19:00:00 9.79167 C 79.1667 % 6.36 C
428 01-04-2016 20:00:00 7.86667 C 84.8333 % 5.48 C
429 01-04-2016 21:00:00 6.79167 C 88.0833 % 4.96 C
430 01-04-2016 22:00:00 6.51667 C 91.5833 % 5.25 C
431 01-04-2016 23:00:00 6.20833 C 91.1667 % 4.88 C
432 02-04-2016 00:00:00 5.125 C 92.5000 % 4.01 C
433 02-04-2016 01:00:00 4.60833 C 93.2500 % 3.61 C
434 02-04-2016 02:00:00 3.89167 C 93.7500 % 2.98 C
435 02-04-2016 03:00:00 3.33333 C 94.5000 % 2.54 C
436 02-04-2016 04:00:00 2.825 C 94.9167 % 2.09 C
437 02-04-2016 05:00:00 2.33333 C 95.0000 % 1.62 C
438 02-04-2016 06:00:00 2.18333 C 95.7500 % 1.58 C
439 02-04-2016 07:00:00 1.975 C 96.0000 % 1.41 C
440 02-04-2016 08:00:00 2.43333 C 96.0833 % 1.87 C
441 02-04-2016 09:00:00 3.56667 C 96.9167 % 3.12 C
442 02-04-2016 10:00:00 5.36667 C 96.7500 % 4.89 C
443 02-04-2016 11:00:00 8.71667 C 85.2500 % 6.38 C
444 02-04-2016 12:00:00 11.075 C 76.2500 % 7.06 C
445 02-04-2016 13:00:00 12.83333 C 72.3333 % 7.98 C
446 02-04-2016 14:00:00 13.90833 C 70.4167 % 8.62 C
447 02-04-2016 15:00:00 15.04167 C 68.1667 % 9.22 C
448 02-04-2016 16:00:00 16.16667 C 65.5833 % 9.72 C
449 02-04-2016 17:00:00 16.45833 C 65.2500 % 9.92 C
450 02-04-2016 18:00:00 16.175 C 67.5833 % 10.18 C
Sensor: Nr:Datum:Temp:Feuchte:Taupunkt:
Aussen-T/F 451 02-04-2016 19:00:00 13.73333 C 79.4167 % 10.24 C
452 02-04-2016 20:00:00 11.775 C 85.0833 % 9.35 C
453 02-04-2016 21:00:00 11.24167 C 87.3333 % 9.22 C
454 02-04-2016 22:00:00 10.69167 C 88.0000 % 8.79 C
455 02-04-2016 23:00:00 9.98333 C 89.5833 % 8.35 C
456 03-04-2016 00:00:00 9.91667 C 90.4167 % 8.42 C
457 03-04-2016 01:00:00 9.90833 C 90.6667 % 8.46 C
458 03-04-2016 02:00:00 10.05833 C 90.4167 % 8.56 C
459 03-04-2016 03:00:00 9.83333 C 91.0000 % 8.44 C
460 03-04-2016 04:00:00 9.63333 C 91.0833 % 8.25 C
461 03-04-2016 05:00:00 9.20833 C 92.0000 % 7.98 C
462 03-04-2016 06:00:00 8.64167 C 92.8333 % 7.55 C
463 03-04-2016 07:00:00 8.81667 C 94.0000 % 7.91 C
464 03-04-2016 08:00:00 9.39167 C 93.5833 % 8.41 C
465 03-04-2016 09:00:00 10.65833 C 90.6667 % 9.2 C
466 03-04-2016 10:00:00 12.275 C 84.4167 % 9.73 C
467 03-04-2016 11:00:00 13.89167 C 81.1667 % 10.72 C
468 03-04-2016 12:00:00 17.29167 C 71.5000 % 12.09 C
469 03-04-2016 13:00:00 18.775 C 65.8333 % 12.26 C
470 03-04-2016 14:00:00 20.10833 C 58.2500 % 11.66 C
471 03-04-2016 15:00:00 20.30833 C 57.6667 % 11.69 C
472 03-04-2016 16:00:00 18.85833 C 63.1667 % 11.71 C
473 03-04-2016 17:00:00 18.29167 C 65.0833 % 11.62 C
474 03-04-2016 18:00:00 17.66667 C 68.6667 % 11.84 C
475 03-04-2016 19:00:00 16.69167 C 73.6667 % 11.97 C
Sensor: Nr:Datum:Temp:Feuchte:Taupunkt:
Aussen-T/F 476 03-04-2016 20:00:00 14.85 C 81.5833 % 11.73 C
477 03-04-2016 21:00:00 13.93333 C 84.9167 % 11.44 C
478 03-04-2016 22:00:00 13.425 C 87.9167 % 11.46 C
479 03-04-2016 23:00:00 13.075 C 91.8333 % 11.78 C
480 04-04-2016 00:00:00 12.70833 C 93.7500 % 11.73 C
481 04-04-2016 01:00:00 12.36667 C 94.9167 % 11.58 C
482 04-04-2016 02:00:00 12.18333 C 95.5000 % 11.49 C
483 04-04-2016 03:00:00 12.11667 C 96.0000 % 11.5 C
484 04-04-2016 04:00:00 11.98333 C 96.0000 % 11.37 C
485 04-04-2016 05:00:00 11.06667 C 96.0000 % 10.45 C
486 04-04-2016 06:00:00 10.80833 C 96.0000 % 10.2 C
487 04-04-2016 07:00:00 10.43333 C 96.3333 % 9.88 C
488 04-04-2016 08:00:00 11.26667 C 97.0000 % 10.81 C
489 04-04-2016 09:00:00 12.99167 C 94.3333 % 12.1 C
490 04-04-2016 10:00:00 14.80833 C 82.9167 % 11.94 C
491 04-04-2016 11:00:00 15.725 C 75.7500 % 11.46 C
492 04-04-2016 12:00:00 16.025 C 70.7500 % 10.72 C
493 04-04-2016 13:00:00 16.68333 C 65.5000 % 10.19 C
494 04-04-2016 14:00:00 16.76667 C 63.0000 % 9.69 C
495 04-04-2016 15:00:00 16.35833 C 63.8333 % 9.5 C
496 04-04-2016 16:00:00 16.7 C 63.4167 % 9.73 C
497 04-04-2016 17:00:00 16.04167 C 65.0833 % 9.49 C
498 04-04-2016 18:00:00 17.075 C 60.6667 % 9.42 C
499 04-04-2016 19:00:00 17.19167 C 61.7500 % 9.79 C
500 04-04-2016 20:00:00 12.95833 C 77.8333 % 9.19 C
Sensor: Nr:Datum:Temp:Feuchte:Taupunkt:
Aussen-T/F 501 04-04-2016 21:00:00 11.40833 C 83.5000 % 8.72 C
502 04-04-2016 22:00:00 10.71667 C 86.2500 % 8.52 C
503 04-04-2016 23:00:00 10.80833 C 87.0000 % 8.73 C
504 05-04-2016 00:00:00 10.75833 C 87.1667 % 8.71 C
505 05-04-2016 01:00:00 10.86667 C 90.0833 % 9.31 C
506 05-04-2016 02:00:00 10.83333 C 89.0833 % 9.11 C
507 05-04-2016 03:00:00 10.10833 C 91.0000 % 8.71 C
508 05-04-2016 04:00:00 9.76667 C 93.1667 % 8.72 C
509 05-04-2016 05:00:00 9.74167 C 94.2500 % 8.86 C
510 05-04-2016 06:00:00 9.69167 C 95.0000 % 8.93 C
511 05-04-2016 07:00:00 9.875 C 95.9167 % 9.26 C
512 05-04-2016 08:00:00 10.73333 C 96.3333 % 10.17 C
513 05-04-2016 09:00:00 11.64167 C 97.0000 % 11.18 C
514 05-04-2016 10:00:00 12.7 C 96.6667 % 12.18 C
515 05-04-2016 11:00:00 13.63333 C 92.0000 % 12.36 C
516 05-04-2016 12:00:00 13.71667 C 90.5000 % 12.19 C
517 05-04-2016 13:00:00 15.2 C 84.0833 % 12.53 C
518 05-04-2016 14:00:00 15.65 C 78.0833 % 11.85 C
519 05-04-2016 15:00:00 13.19167 C 89.0833 % 11.43 C
520 05-04-2016 16:00:00 12.19167 C 93.1667 % 11.12 C
521 05-04-2016 17:00:00 11.29167 C 92.9167 % 10.19 C
522 05-04-2016 18:00:00 10.425 C 94.6667 % 9.61 C
523 05-04-2016 19:00:00 10.3 C 95.6667 % 9.64 C
524 05-04-2016 20:00:00 10.01667 C 96.0000 % 9.41 C
525 05-04-2016 21:00:00 9.425 C 96.0000 % 8.82 C
Sensor: Nr:Datum:Temp:Feuchte:Taupunkt:
Aussen-T/F 526 05-04-2016 22:00:00 9.20833 C 96.0833 % 8.62 C
527 05-04-2016 23:00:00 9.05 C 96.8333 % 8.57 C
528 06-04-2016 00:00:00 8.44167 C 96.4167 % 7.91 C
529 06-04-2016 01:00:00 7.55833 C 96.5000 % 7.04 C
530 06-04-2016 02:00:00 7.44167 C 96.9167 % 6.98 C
531 06-04-2016 03:00:00 7.50833 C 97.0000 % 7.06 C
532 06-04-2016 04:00:00 7.65833 C 97.0000 % 7.21 C
533 06-04-2016 05:00:00 7.26667 C 96.8333 % 6.8 C
534 06-04-2016 06:00:00 6.58333 C 96.0000 % 5.99 C
535 06-04-2016 07:00:00 6.66667 C 96.0000 % 6.08 C
536 06-04-2016 08:00:00 6.98333 C 95.2500 % 6.28 C
537 06-04-2016 09:00:00 8.06667 C 93.4167 % 7.07 C
538 06-04-2016 10:00:00 9.61667 C 87.2500 % 7.6 C
539 06-04-2016 11:00:00 10.98333 C 80.1667 % 7.7 C
540 06-04-2016 12:00:00 12.31667 C 74.6667 % 7.95 C
541 06-04-2016 13:00:00 13.56667 C 67.2500 % 7.62 C
542 06-04-2016 14:00:00 14.60833 C 61.6667 % 7.34 C
543 06-04-2016 15:00:00 15.48333 C 58.6667 % 7.43 C
544 06-04-2016 16:00:00 15.825 C 57.0833 % 7.35 C
545 06-04-2016 17:00:00 14.83333 C 60.0000 % 7.15 C
546 06-04-2016 18:00:00 14.525 C 60.7500 % 7.04 C
547 06-04-2016 19:00:00 14.04167 C 62.5000 % 7 C
548 06-04-2016 20:00:00 13.54167 C 65.5000 % 7.21 C
549 06-04-2016 21:00:00 13.13333 C 66.1667 % 6.97 C
550 06-04-2016 22:00:00 12.26667 C 69.2500 % 6.8 C
Sensor: Nr:Datum:Temp:Feuchte:Taupunkt:
Aussen-T/F 551 06-04-2016 23:00:00 12 C 72.1667 % 7.15 C
552 07-04-2016 00:00:00 10.975 C 78.2500 % 7.34 C
553 07-04-2016 01:00:00 9.5 C 77.4167 % 5.75 C
554 07-04-2016 02:00:00 8.91667 C 81.9167 % 6 C
555 07-04-2016 03:00:00 9.08333 C 78.1667 % 5.49 C
556 07-04-2016 04:00:00 8.35 C 86.1667 % 6.18 C
557 07-04-2016 05:00:00 7.48333 C 88.1667 % 5.66 C
558 07-04-2016 06:00:00 6.30833 C 93.0833 % 5.27 C
559 07-04-2016 07:00:00 5.65 C 94.2500 % 4.8 C
560 07-04-2016 08:00:00 5.175 C 94.2500 % 4.33 C
561 07-04-2016 09:00:00 6.175 C 90.1667 % 4.69 C
562 07-04-2016 10:00:00 7.99167 C 78.1667 % 4.43 C
563 07-04-2016 11:00:00 9.1 C 70.5000 % 4.03 C
564 07-04-2016 12:00:00 10.075 C 62.7500 % 3.31 C
565 07-04-2016 13:00:00 10.98333 C 56.9167 % 2.79 C
566 07-04-2016 14:00:00 11.475 C 54.7500 % 2.7 C
567 07-04-2016 15:00:00 11.69167 C 53.0000 % 2.44 C
568 07-04-2016 16:00:00 11.84167 C 53.0833 % 2.6 C
569 07-04-2016 17:00:00 12.175 C 53.5833 % 3.05 C
570 07-04-2016 18:00:00 10.31667 C 63.5833 % 3.72 C
571 07-04-2016 19:00:00 8.35 C 73.0833 % 3.82 C
572 07-04-2016 20:00:00 7.5 C 75.4167 % 3.44 C
573 07-04-2016 21:00:00 5.625 C 83.8333 % 3.11 C
574 07-04-2016 22:00:00 4.90833 C 87.0000 % 2.93 C
575 07-04-2016 23:00:00 4.225 C 89.3333 % 2.63 C
Sensor: Nr:Datum:Temp:Feuchte:Taupunkt:
Aussen-T/F 576 08-04-2016 00:00:00 3.575 C 90.2500 % 2.13 C
577 08-04-2016 01:00:00 3.05 C 91.4167 % 1.79 C
578 08-04-2016 02:00:00 2.39167 C 92.5833 % 1.32 C
579 08-04-2016 03:00:00 1.925 C 93.5833 % 1 C
580 08-04-2016 04:00:00 1.7 C 94.0000 % 0.84 C
581 08-04-2016 05:00:00 1.125 C 94.2500 % 0.31 C
582 08-04-2016 06:00:00 0.84167 C 95.0000 % 0.13 C
583 08-04-2016 07:00:00 0.8 C 95.3333 % 0.14 C
584 08-04-2016 08:00:00 1.15833 C 95.8333 % 0.57 C
585 08-04-2016 09:00:00 2.58333 C 96.3333 % 2.06 C
586 08-04-2016 10:00:00 5.75833 C 91.7500 % 4.52 C
587 08-04-2016 11:00:00 8.69167 C 76.1667 % 4.74 C
588 08-04-2016 12:00:00 10.51667 C 62.0000 % 3.55 C
589 08-04-2016 13:00:00 11.5 C 59.4167 % 3.88 C
590 08-04-2016 14:00:00 12.4 C 56.7500 % 4.07 C
591 08-04-2016 15:00:00 12.55833 C 56.9167 % 4.26 C
592 08-04-2016 16:00:00 12.40833 C 58.3333 % 4.47 C
593 08-04-2016 17:00:00 12.69167 C 57.4167 % 4.51 C
594 08-04-2016 18:00:00 11.75 C 59.5000 % 4.13 C
595 08-04-2016 19:00:00 11.16667 C 68.0000 % 5.49 C
596 08-04-2016 20:00:00 9.15833 C 74.6667 % 4.9 C
597 08-04-2016 21:00:00 7.24167 C 80.3333 % 4.09 C
598 08-04-2016 22:00:00 5.84167 C 84.5000 % 3.44 C
599 08-04-2016 23:00:00 4.78333 C 86.5000 % 2.73 C
600 09-04-2016 00:00:00 3.825 C 89.3333 % 2.24 C
Sensor: Nr:Datum:Temp:Feuchte:Taupunkt:
Aussen-T/F 601 09-04-2016 01:00:00 3.24167 C 91.1667 % 1.94 C
602 09-04-2016 02:00:00 2.7 C 92.1667 % 1.56 C
603 09-04-2016 03:00:00 2.09167 C 93.2500 % 1.12 C
604 09-04-2016 04:00:00 1.68333 C 94.0000 % 0.82 C
605 09-04-2016 05:00:00 1.30833 C 94.2500 % 0.49 C
606 09-04-2016 06:00:00 0.81667 C 95.0000 % 0.11 C
607 09-04-2016 07:00:00 0.675 C 95.0000 % -0.03 C
608 09-04-2016 08:00:00 1.01667 C 95.6667 % 0.4 C
609 09-04-2016 09:00:00 2.025 C 96.0833 % 1.47 C
610 09-04-2016 10:00:00 4.325 C 95.8333 % 3.72 C
611 09-04-2016 11:00:00 7.99167 C 85.5833 % 5.73 C
612 09-04-2016 12:00:00 12.35 C 55.6667 % 3.75 C
613 09-04-2016 13:00:00 13.83333 C 46.0000 % 2.43 C
614 09-04-2016 14:00:00 14.925 C 43.2500 % 2.55 C
615 09-04-2016 15:00:00 15.425 C 38.4167 % 1.35 C
616 09-04-2016 16:00:00 15.66667 C 39.0833 % 1.8 C
617 09-04-2016 17:00:00 15.34167 C 41.5833 % 2.38 C
618 09-04-2016 18:00:00 15.93333 C 39.4167 % 2.16 C
619 09-04-2016 19:00:00 15.125 C 46.0833 % 3.63 C
620 09-04-2016 20:00:00 11.075 C 63.7500 % 4.48 C
621 09-04-2016 21:00:00 9.83333 C 69.2500 % 4.48 C
622 09-04-2016 22:00:00 10.1 C 68.9167 % 4.66 C
623 09-04-2016 23:00:00 10.725 C 68.3333 % 5.14 C
624 10-04-2016 00:00:00 10.65 C 70.6667 % 5.55 C
625 10-04-2016 01:00:00 10.11667 C 74.7500 % 5.84 C
Sensor: Nr:Datum:Temp:Feuchte:Taupunkt:
Aussen-T/F 626 10-04-2016 02:00:00 9.28333 C 79.8333 % 5.99 C
627 10-04-2016 03:00:00 9.03333 C 82.2500 % 6.17 C
628 10-04-2016 04:00:00 8.63333 C 83.5000 % 6 C
629 10-04-2016 05:00:00 8.24167 C 84.0833 % 5.72 C
630 10-04-2016 06:00:00 7.06667 C 86.3333 % 4.94 C
631 10-04-2016 07:00:00 6.225 C 89.5000 % 4.63 C
632 10-04-2016 08:00:00 6.73333 C 91.1667 % 5.4 C
633 10-04-2016 09:00:00 8.60833 C 88.8333 % 6.87 C
634 10-04-2016 10:00:00 11.425 C 72.8333 % 6.73 C
635 10-04-2016 11:00:00 13.69167 C 59.0833 % 5.85 C
636 10-04-2016 12:00:00 14.81667 C 53.9167 % 5.59 C
637 10-04-2016 13:00:00 15.40833 C 52.1667 % 5.66 C
638 10-04-2016 14:00:00 15.95 C 52.7500 % 6.32 C
639 10-04-2016 15:00:00 16.40833 C 51.0000 % 6.26 C
640 10-04-2016 16:00:00 16.675 C 50.5000 % 6.36 C
641 10-04-2016 17:00:00 16.925 C 49.9167 % 6.42 C
642 10-04-2016 18:00:00 17.29167 C 48.5000 % 6.34 C
643 10-04-2016 19:00:00 16.1 C 54.1667 % 6.84 C
644 10-04-2016 20:00:00 12.425 C 69.3333 % 6.97 C
645 10-04-2016 21:00:00 10.85 C 75.0000 % 6.6 C
646 10-04-2016 22:00:00 9.95 C 78.4167 % 6.38 C
647 10-04-2016 23:00:00 9.43333 C 80.2500 % 6.21 C
648 11-04-2016 00:00:00 8.75 C 82.4167 % 5.93 C
649 11-04-2016 01:00:00 8.16667 C 83.7500 % 5.59 C
650 11-04-2016 02:00:00 7.75833 C 84.6667 % 5.34 C
Sensor: Nr:Datum:Temp:Feuchte:Taupunkt:
Aussen-T/F 651 11-04-2016 03:00:00 7.39167 C 84.8333 % 5.01 C
652 11-04-2016 04:00:00 6.83333 C 85.8333 % 4.63 C
653 11-04-2016 05:00:00 6.03333 C 87.7500 % 4.16 C
654 11-04-2016 06:00:00 5.56667 C 89.1667 % 3.93 C
655 11-04-2016 07:00:00 5.29167 C 90.4167 % 3.85 C
656 11-04-2016 08:00:00 5.71667 C 90.0833 % 4.22 C
657 11-04-2016 09:00:00 6.775 C 89.4167 % 5.16 C
658 11-04-2016 10:00:00 9.83333 C 79.0833 % 6.38 C
659 11-04-2016 11:00:00 13.025 C 67.3333 % 7.12 C
660 11-04-2016 12:00:00 15.3 C 57.4167 % 6.95 C
661 11-04-2016 13:00:00 16.41667 C 53.8333 % 7.05 C
662 11-04-2016 14:00:00 17.275 C 51.1667 % 7.1 C
663 11-04-2016 15:00:00 18.31667 C 48.6667 % 7.33 C
664 11-04-2016 16:00:00 19.53333 C 44.8333 % 7.24 C
665 11-04-2016 17:00:00 20.28333 C 43.1667 % 7.36 C
666 11-04-2016 18:00:00 20.71667 C 41.9167 % 7.32 C
667 11-04-2016 19:00:00 18.81667 C 48.3333 % 7.68 C
668 11-04-2016 20:00:00 13.95 C 65.8333 % 7.67 C
669 11-04-2016 21:00:00 12.25 C 72.2500 % 7.41 C
670 11-04-2016 22:00:00 11.975 C 76.2500 % 7.93 C
671 11-04-2016 23:00:00 12.25833 C 73.0000 % 7.57 C
672 12-04-2016 00:00:00 11.34167 C 75.5833 % 7.19 C
673 12-04-2016 01:00:00 9.60833 C 82.3333 % 6.75 C
674 12-04-2016 02:00:00 9.21667 C 84.5833 % 6.76 C
675 12-04-2016 03:00:00 8.71667 C 85.5833 % 6.44 C
Sensor: Nr:Datum:Temp:Feuchte:Taupunkt:
Aussen-T/F 676 12-04-2016 04:00:00 7.7 C 88.0833 % 5.86 C
677 12-04-2016 05:00:00 7.05 C 90.7500 % 5.64 C
678 12-04-2016 06:00:00 6.70833 C 92.2500 % 5.54 C
679 12-04-2016 07:00:00 7.075 C 93.1667 % 6.05 C
680 12-04-2016 08:00:00 8.04167 C 92.5833 % 6.91 C
681 12-04-2016 09:00:00 9.41667 C 89.5833 % 7.79 C
682 12-04-2016 10:00:00 11.6 C 84.3333 % 9.05 C
683 12-04-2016 11:00:00 14.30833 C 71.7500 % 9.28 C
684 12-04-2016 12:00:00 15.725 C 62.5000 % 8.59 C
685 12-04-2016 13:00:00 17.175 C 49.2500 % 6.45 C
686 12-04-2016 14:00:00 18.225 C 43.0833 % 5.48 C
687 12-04-2016 15:00:00 18.8 C 40.1667 % 4.99 C
688 12-04-2016 16:00:00 18.83333 C 44.9167 % 6.63 C
689 12-04-2016 17:00:00 16.15 C 62.2500 % 8.93 C
690 12-04-2016 18:00:00 10.61667 C 89.4167 % 8.95 C
691 12-04-2016 19:00:00 10.49167 C 93.5000 % 9.49 C
692 12-04-2016 20:00:00 9.65 C 93.6667 % 8.68 C
693 12-04-2016 21:00:00 8.575 C 94.8333 % 7.79 C
694 12-04-2016 22:00:00 8.41667 C 95.6667 % 7.77 C
695 12-04-2016 23:00:00 8.04167 C 95.8333 % 7.42 C
696 13-04-2016 00:00:00 7.25833 C 95.8333 % 6.64 C
697 13-04-2016 01:00:00 7.65833 C 96.3333 % 7.11 C
698 13-04-2016 02:00:00 6.925 C 96.0833 % 6.34 C
699 13-04-2016 03:00:00 7.025 C 97.0000 % 6.58 C
700 13-04-2016 04:00:00 7.125 C 97.0000 % 6.68 C
Sensor: Nr:Datum:Temp:Feuchte:Taupunkt:
Aussen-T/F 701 13-04-2016 05:00:00 7.21667 C 97.0000 % 6.77 C
702 13-04-2016 06:00:00 7.34167 C 97.0000 % 6.9 C
703 13-04-2016 07:00:00 7.375 C 97.0000 % 6.93 C
704 13-04-2016 08:00:00 7.64167 C 97.0000 % 7.2 C
705 13-04-2016 09:00:00 7.86667 C 97.0000 % 7.42 C
706 13-04-2016 10:00:00 8.125 C 97.0000 % 7.68 C
707 13-04-2016 11:00:00 8.49167 C 97.0000 % 8.04 C
708 13-04-2016 12:00:00 9.09167 C 96.9167 % 8.63 C
709 13-04-2016 13:00:00 9.9 C 94.5000 % 9.06 C
710 13-04-2016 14:00:00 10.60833 C 92.8333 % 9.5 C
711 13-04-2016 15:00:00 10.775 C 93.5833 % 9.78 C
712 13-04-2016 16:00:00 11.41667 C 88.8333 % 9.64 C
713 13-04-2016 17:00:00 11.675 C 79.8333 % 8.31 C
714 13-04-2016 18:00:00 11.125 C 84.6667 % 8.64 C
715 13-04-2016 19:00:00 10.01667 C 89.5833 % 8.39 C
716 13-04-2016 20:00:00 9.725 C 91.1667 % 8.36 C
717 13-04-2016 21:00:00 9.425 C 91.5000 % 8.11 C
718 13-04-2016 22:00:00 8.96667 C 93.5833 % 7.99 C
719 13-04-2016 23:00:00 8.75 C 95.0000 % 7.99 C
720 14-04-2016 00:00:00 8.53333 C 95.7500 % 7.89 C
721 14-04-2016 01:00:00 8.41667 C 96.0000 % 7.82 C
722 14-04-2016 02:00:00 7.925 C 95.5000 % 7.25 C
723 14-04-2016 03:00:00 6.86667 C 95.2500 % 6.16 C
724 14-04-2016 04:00:00 6.14167 C 95.9167 % 5.54 C
725 14-04-2016 05:00:00 5.4 C 96.0000 % 4.81 C
Sensor: Nr:Datum:Temp:Feuchte:Taupunkt:
Aussen-T/F 726 14-04-2016 06:00:00 5.525 C 96.0833 % 4.95 C
727 14-04-2016 07:00:00 5.56667 C 97.0000 % 5.13 C
728 14-04-2016 08:00:00 5.8 C 97.0000 % 5.36 C
729 14-04-2016 09:00:00 6.23333 C 97.0000 % 5.79 C
730 14-04-2016 10:00:00 7.2 C 97.2500 % 6.79 C
731 14-04-2016 11:00:00 8.56667 C 96.9167 % 8.11 C
732 14-04-2016 12:00:00 11.03333 C 90.1667 % 9.49 C
733 14-04-2016 13:00:00 13.30833 C 74.3333 % 8.84 C
734 14-04-2016 14:00:00 14.78333 C 59.4167 % 6.96 C
735 14-04-2016 15:00:00 15.85 C 50.5833 % 5.62 C
736 14-04-2016 16:00:00 16.44167 C 50.0833 % 6.02 C
737 14-04-2016 17:00:00 17.43333 C 45.6667 % 5.6 C
738 14-04-2016 18:00:00 18.59167 C 43.9167 % 6.09 C
739 14-04-2016 19:00:00 17.14167 C 52.3333 % 7.31 C
740 14-04-2016 20:00:00 13.79167 C 69.6667 % 8.35 C
741 14-04-2016 21:00:00 11.80833 C 78.0833 % 8.12 C
742 14-04-2016 22:00:00 11.1 C 81.4167 % 8.04 C
743 14-04-2016 23:00:00 10.875 C 83.5833 % 8.21 C
744 15-04-2016 00:00:00 10.7 C 85.4167 % 8.36 C
745 15-04-2016 01:00:00 10.01667 C 87.8333 % 8.1 C
746 15-04-2016 02:00:00 10.16667 C 88.5000 % 8.35 C
747 15-04-2016 03:00:00 10.04167 C 89.2500 % 8.36 C
748 15-04-2016 04:00:00 9.775 C 93.2500 % 8.74 C
749 15-04-2016 05:00:00 9.3 C 94.2500 % 8.42 C
750 15-04-2016 06:00:00 8.96667 C 95.0000 % 8.21 C
Sensor: Nr:Datum:Temp:Feuchte:Taupunkt:
Aussen-T/F 751 15-04-2016 07:00:00 9.31667 C 95.8333 % 8.69 C
752 15-04-2016 08:00:00 10.39167 C 93.3333 % 9.36 C
753 15-04-2016 09:00:00 12.075 C 85.9167 % 9.79 C
754 15-04-2016 10:00:00 13.125 C 80.1667 % 9.79 C
755 15-04-2016 11:00:00 13.95833 C 74.7500 % 9.55 C
756 15-04-2016 12:00:00 14.59167 C 66.5000 % 8.43 C
757 15-04-2016 13:00:00 15.26667 C 63.6667 % 8.43 C
758 15-04-2016 14:00:00 16.14167 C 57.7500 % 7.82 C
759 15-04-2016 15:00:00 16.93333 C 51.2500 % 6.81 C
760 15-04-2016 16:00:00 18.03333 C 49.5833 % 7.34 C
761 15-04-2016 17:00:00 18.675 C 45.0833 % 6.54 C
762 15-04-2016 18:00:00 18.00833 C 46.9167 % 6.51 C
763 15-04-2016 19:00:00 17.10833 C 50.4167 % 6.73 C
764 15-04-2016 20:00:00 14.65833 C 59.3333 % 6.82 C
765 15-04-2016 21:00:00 12.75 C 67.7500 % 6.95 C
766 15-04-2016 22:00:00 11.625 C 76.1667 % 7.58 C
767 15-04-2016 23:00:00 11.48333 C 81.6667 % 8.46 C
768 16-04-2016 00:00:00 10.76667 C 84.6667 % 8.29 C
769 16-04-2016 01:00:00 10.85833 C 86.7500 % 8.74 C
770 16-04-2016 02:00:00 10.775 C 87.3333 % 8.76 C
771 16-04-2016 03:00:00 10.575 C 88.8333 % 8.81 C
772 16-04-2016 04:00:00 11.13333 C 85.0000 % 8.71 C
773 16-04-2016 05:00:00 11.08333 C 85.5833 % 8.76 C
774 16-04-2016 06:00:00 10.99167 C 86.7500 % 8.87 C
775 16-04-2016 07:00:00 11.25833 C 85.2500 % 8.88 C
Sensor: Nr:Datum:Temp:Feuchte:Taupunkt:
Aussen-T/F 776 16-04-2016 08:00:00 11.54167 C 83.0000 % 8.76 C
777 16-04-2016 09:00:00 12.10833 C 80.1667 % 8.8 C
778 16-04-2016 10:00:00 12.4 C 77.9167 % 8.66 C
779 16-04-2016 11:00:00 12.88333 C 77.7500 % 9.1 C
780 16-04-2016 12:00:00 14.35833 C 68.5000 % 8.64 C
781 16-04-2016 13:00:00 15.33333 C 61.9167 % 8.08 C
782 16-04-2016 14:00:00 16.175 C 55.9167 % 7.38 C
783 16-04-2016 15:00:00 15.45 C 62.5833 % 8.35 C
784 16-04-2016 16:00:00 14.50833 C 82.2500 % 11.52 C
785 16-04-2016 17:00:00 14.875 C 72.2500 % 9.93 C
786 16-04-2016 18:00:00 12.25 C 82.2500 % 9.32 C
787 16-04-2016 19:00:00 10.90833 C 87.4167 % 8.9 C
788 16-04-2016 20:00:00 9.925 C 92.0000 % 8.69 C
789 16-04-2016 21:00:00 9.58333 C 93.5000 % 8.59 C
790 16-04-2016 22:00:00 9.35833 C 94.0000 % 8.44 C
791 16-04-2016 23:00:00 8.78333 C 94.5000 % 7.95 C
792 17-04-2016 00:00:00 8.59167 C 95.0000 % 7.84 C
793 17-04-2016 01:00:00 8.25 C 95.0000 % 7.5 C
794 17-04-2016 02:00:00 7.69167 C 95.0000 % 6.94 C
795 17-04-2016 03:00:00 7.15833 C 95.3333 % 6.46 C
796 17-04-2016 04:00:00 6.63333 C 95.2500 % 5.93 C
797 17-04-2016 05:00:00 6.15 C 95.7500 % 5.52 C
798 17-04-2016 06:00:00 5.88333 C 96.0000 % 5.3 C
799 17-04-2016 07:00:00 5.84167 C 95.5000 % 5.18 C
800 17-04-2016 08:00:00 6.28333 C 92.8333 % 5.21 C
Sensor: Nr:Datum:Temp:Feuchte:Taupunkt:
Aussen-T/F 801 17-04-2016 09:00:00 6.96667 C 88.8333 % 5.25 C
802 17-04-2016 10:00:00 7.71667 C 81.5000 % 4.76 C
803 17-04-2016 11:00:00 8.83333 C 72.5000 % 4.17 C
804 17-04-2016 12:00:00 9.05 C 72.6667 % 4.41 C
805 17-04-2016 13:00:00 9.6 C 66.4167 % 3.66 C
806 17-04-2016 14:00:00 10.20833 C 61.6667 % 3.19 C
807 17-04-2016 15:00:00 10.85833 C 53.2500 % 1.74 C
808 17-04-2016 16:00:00 12.10833 C 44.6667 % 0.45 C
809 17-04-2016 17:00:00 13.44167 C 40.0833 % 0.16 C
810 17-04-2016 18:00:00 13.15 C 41.7500 % 0.46 C
811 17-04-2016 19:00:00 11.63333 C 54.6667 % 2.82 C
812 17-04-2016 20:00:00 8.65833 C 70.2500 % 3.55 C
813 17-04-2016 21:00:00 6.61667 C 79.5000 % 3.33 C
814 17-04-2016 22:00:00 5.5 C 83.5833 % 2.95 C
815 17-04-2016 23:00:00 5.04167 C 85.5000 % 2.82 C
816 18-04-2016 00:00:00 4.21667 C 88.5000 % 2.49 C
817 18-04-2016 01:00:00 3.30833 C 90.5833 % 1.92 C
818 18-04-2016 02:00:00 2.58333 C 92.1667 % 1.44 C
819 18-04-2016 03:00:00 2.08333 C 93.0000 % 1.07 C
820 18-04-2016 04:00:00 1.64167 C 93.9167 % 0.77 C
821 18-04-2016 05:00:00 1.225 C 94.0833 % 0.38 C
822 18-04-2016 06:00:00 0.84167 C 95.0000 % 0.13 C
823 18-04-2016 07:00:00 0.9 C 95.0833 % 0.2 C
824 18-04-2016 08:00:00 1.55 C 95.9167 % 0.97 C
825 18-04-2016 09:00:00 2.63333 C 96.0833 % 2.07 C
Sensor: Nr:Datum:Temp:Feuchte:Taupunkt:
Aussen-T/F 826 18-04-2016 10:00:00 5.125 C 94.4167 % 4.3 C
827 18-04-2016 11:00:00 8.725 C 76.7500 % 4.88 C
828 18-04-2016 12:00:00 10.475 C 61.5000 % 3.4 C
829 18-04-2016 13:00:00 11.51667 C 56.9167 % 3.28 C
830 18-04-2016 14:00:00 12.44167 C 54.1667 % 3.45 C
831 18-04-2016 15:00:00 12.825 C 53.0000 % 3.49 C
832 18-04-2016 16:00:00 14.025 C 48.1667 % 3.25 C
833 18-04-2016 17:00:00 13.80833 C 47.5833 % 2.88 C
834 18-04-2016 18:00:00 14.54167 C 43.0000 % 2.12 C
835 18-04-2016 19:00:00 14.08333 C 41.8333 % 1.33 C
836 18-04-2016 20:00:00 11.225 C 55.0000 % 2.53 C
837 18-04-2016 21:00:00 8.25 C 70.0000 % 3.11 C
838 18-04-2016 22:00:00 6.85 C 76.3333 % 2.98 C
839 18-04-2016 23:00:00 5.91667 C 79.5833 % 2.66 C
840 19-04-2016 00:00:00 5.38333 C 81.4167 % 2.46 C
841 19-04-2016 01:00:00 4.975 C 83.1667 % 2.36 C
842 19-04-2016 02:00:00 5.54167 C 82.2500 % 2.76 C
843 19-04-2016 03:00:00 5.84167 C 81.0000 % 2.84 C
844 19-04-2016 04:00:00 4.94167 C 84.0000 % 2.47 C
845 19-04-2016 05:00:00 4.01667 C 86.5000 % 1.97 C
846 19-04-2016 06:00:00 4.31667 C 86.1667 % 2.21 C
847 19-04-2016 07:00:00 4.86667 C 85.1667 % 2.59 C
848 19-04-2016 08:00:00 5.84167 C 83.5833 % 3.28 C
849 19-04-2016 09:00:00 7.44167 C 78.6667 % 3.98 C
850 19-04-2016 10:00:00 9.08333 C 73.0000 % 4.51 C
Sensor: Nr:Datum:Temp:Feuchte:Taupunkt:
Aussen-T/F 851 19-04-2016 11:00:00 10.66667 C 68.8333 % 5.19 C
852 19-04-2016 12:00:00 12.33333 C 63.5833 % 5.63 C
853 19-04-2016 13:00:00 12.74167 C 61.5000 % 5.54 C
854 19-04-2016 14:00:00 12.45833 C 61.2500 % 5.21 C
855 19-04-2016 15:00:00 13.36667 C 57.2500 % 5.1 C
856 19-04-2016 16:00:00 14.04167 C 53.0833 % 4.64 C
857 19-04-2016 17:00:00 13.49167 C 55.5833 % 4.79 C
858 19-04-2016 18:00:00 13.575 C 55.5833 % 4.87 C
859 19-04-2016 19:00:00 13.325 C 57.6667 % 5.16 C
860 19-04-2016 20:00:00 11.58333 C 66.6667 % 5.6 C
861 19-04-2016 21:00:00 8.89167 C 75.0000 % 4.71 C
862 19-04-2016 22:00:00 7.3 C 80.5833 % 4.19 C
863 19-04-2016 23:00:00 6.01667 C 84.0000 % 3.52 C
864 20-04-2016 00:00:00 5.24167 C 86.1667 % 3.12 C
865 20-04-2016 01:00:00 4.74167 C 89.4167 % 3.15 C
866 20-04-2016 02:00:00 5.475 C 88.6667 % 3.76 C
867 20-04-2016 03:00:00 5.39167 C 85.6667 % 3.19 C
868 20-04-2016 04:00:00 4.48333 C 86.7500 % 2.47 C
869 20-04-2016 05:00:00 3.225 C 89.5000 % 1.67 C
870 20-04-2016 06:00:00 2.35833 C 91.4167 % 1.11 C
871 20-04-2016 07:00:00 2.16667 C 93.2500 % 1.19 C
872 20-04-2016 08:00:00 2.93333 C 94.0000 % 2.07 C
873 20-04-2016 09:00:00 4.36667 C 92.7500 % 3.3 C
874 20-04-2016 10:00:00 7.80833 C 77.4167 % 4.11 C
875 20-04-2016 11:00:00 10.03333 C 64.9167 % 3.75 C
Sensor: Nr:Datum:Temp:Feuchte:Taupunkt:
Aussen-T/F 876 20-04-2016 12:00:00 11.30833 C 58.7500 % 3.54 C
877 20-04-2016 13:00:00 12.55 C 50.2500 % 2.49 C
878 20-04-2016 14:00:00 13.95 C 40.5833 % 0.79 C
879 20-04-2016 15:00:00 15.35833 C 34.1667 % -0.33 C
880 20-04-2016 16:00:00 16.90833 C 31.4167 % -0.13 C
881 20-04-2016 17:00:00 17.35 C 29.5833 % -0.57 C
882 20-04-2016 18:00:00 17.49167 C 29.3333 % -0.56 C
883 20-04-2016 19:00:00 17.05 C 32.0000 % 0.25 C
884 20-04-2016 20:00:00 13.2 C 51.5000 % 3.44 C
885 20-04-2016 21:00:00 10.3 C 59.7500 % 2.83 C
886 20-04-2016 22:00:00 8.875 C 66.7500 % 3.04 C
887 20-04-2016 23:00:00 7.175 C 71.5833 % 2.39 C
888 21-04-2016 00:00:00 6.3 C 75.8333 % 2.36 C
889 21-04-2016 01:00:00 5.425 C 78.8333 % 2.05 C
890 21-04-2016 02:00:00 4.76667 C 82.0833 % 1.98 C
891 21-04-2016 03:00:00 4.04167 C 84.0000 % 1.59 C
892 21-04-2016 04:00:00 3.38333 C 86.8333 % 1.4 C
893 21-04-2016 05:00:00 2.675 C 89.0000 % 1.05 C
894 21-04-2016 06:00:00 2.23333 C 90.5833 % 0.86 C
895 21-04-2016 07:00:00 2.4 C 91.8333 % 1.21 C
896 21-04-2016 08:00:00 3 C 92.7500 % 1.94 C
897 21-04-2016 09:00:00 4.90833 C 91.0833 % 3.58 C
898 21-04-2016 10:00:00 8.80833 C 78.9167 % 5.36 C
899 21-04-2016 11:00:00 13.125 C 59.1667 % 5.34 C
900 21-04-2016 12:00:00 15.85833 C 46.5000 % 4.42 C
Sensor: Nr:Datum:Temp:Feuchte:Taupunkt:
Aussen-T/F 901 21-04-2016 13:00:00 17.35 C 43.7500 % 4.91 C
902 21-04-2016 14:00:00 18.675 C 40.0000 % 4.82 C
903 21-04-2016 15:00:00 20.06667 C 34.4167 % 3.91 C
904 21-04-2016 16:00:00 21.53333 C 31.7500 % 4.04 C
905 21-04-2016 17:00:00 22.48333 C 30.3333 % 4.22 C
906 21-04-2016 18:00:00 22.81667 C 30.8333 % 4.74 C
907 21-04-2016 19:00:00 20.74167 C 38.6667 % 6.17 C
908 21-04-2016 20:00:00 16.025 C 52.2500 % 6.25 C
909 21-04-2016 21:00:00 14.08333 C 58.2500 % 6.02 C
910 21-04-2016 22:00:00 12.475 C 64.0833 % 5.88 C
911 21-04-2016 23:00:00 11.2 C 70.0833 % 5.96 C
912 22-04-2016 00:00:00 10.49167 C 75.4167 % 6.34 C
913 22-04-2016 01:00:00 9.75 C 79.3333 % 6.35 C
914 22-04-2016 02:00:00 10.66667 C 76.9167 % 6.79 C
915 22-04-2016 03:00:00 10.65833 C 77.6667 % 6.92 C
916 22-04-2016 04:00:00 10.31667 C 77.1667 % 6.5 C
917 22-04-2016 05:00:00 9.85833 C 78.2500 % 6.26 C
918 22-04-2016 06:00:00 9.95833 C 75.4167 % 5.82 C
919 22-04-2016 07:00:00 9.575 C 77.8333 % 5.9 C
920 22-04-2016 08:00:00 10.25 C 74.2500 % 5.88 C
921 22-04-2016 09:00:00 11.2 C 72.7500 % 6.5 C
922 22-04-2016 10:00:00 12.49167 C 65.8333 % 6.28 C
923 22-04-2016 11:00:00 13.60833 C 56.7500 % 5.2 C
924 22-04-2016 12:00:00 14.33333 C 53.0833 % 4.91 C
925 22-04-2016 13:00:00 15.15833 C 48.5000 % 4.38 C
Sensor: Nr:Datum:Temp:Feuchte:Taupunkt:
Aussen-T/F 926 22-04-2016 14:00:00 15.825 C 45.0833 % 3.95 C
927 22-04-2016 15:00:00 17.11667 C 42.5000 % 4.28 C
928 22-04-2016 16:00:00 18.58333 C 42.7500 % 5.69 C
929 22-04-2016 17:00:00 19.13333 C 41.8333 % 5.87 C
930 22-04-2016 18:00:00 17.76667 C 42.4167 % 4.84 C
931 22-04-2016 19:00:00 16.08333 C 47.5833 % 4.96 C
932 22-04-2016 20:00:00 14.875 C 53.3333 % 5.48 C
933 22-04-2016 21:00:00 13.975 C 56.0833 % 5.37 C
934 22-04-2016 22:00:00 12.71667 C 64.2500 % 6.15 C
935 22-04-2016 23:00:00 11.85 C 67.8333 % 6.11 C
936 23-04-2016 00:00:00 11.41667 C 69.5000 % 6.04 C
937 23-04-2016 01:00:00 10.83333 C 73.0833 % 6.21 C
938 23-04-2016 02:00:00 9.9 C 79.4167 % 6.51 C
939 23-04-2016 03:00:00 9.09167 C 85.0833 % 6.72 C
940 23-04-2016 04:00:00 8.4 C 89.5000 % 6.78 C
941 23-04-2016 05:00:00 7.825 C 91.5833 % 6.54 C
942 23-04-2016 06:00:00 7.50833 C 92.1667 % 6.32 C
943 23-04-2016 07:00:00 7.15 C 90.8333 % 5.76 C
944 23-04-2016 08:00:00 6.63333 C 90.6667 % 5.22 C
945 23-04-2016 09:00:00 6.33333 C 91.1667 % 5 C
946 23-04-2016 10:00:00 6.3 C 92.0000 % 5.1 C
947 23-04-2016 11:00:00 6.4 C 90.3333 % 4.94 C
948 23-04-2016 12:00:00 6.7 C 87.4167 % 4.76 C
949 23-04-2016 13:00:00 7.325 C 80.0000 % 4.11 C
950 23-04-2016 14:00:00 8.2 C 73.1667 % 3.69 C
Sensor: Nr:Datum:Temp:Feuchte:Taupunkt:
Aussen-T/F 951 23-04-2016 15:00:00 9.20833 C 60.1667 % 1.9 C
952 23-04-2016 16:00:00 8.80833 C 59.5833 % 1.39 C
953 23-04-2016 17:00:00 9.90833 C 57.1667 % 1.84 C
954 23-04-2016 18:00:00 10.13333 C 51.4167 % 0.58 C
955 23-04-2016 19:00:00 8.325 C 61.1667 % 1.3 C
956 23-04-2016 20:00:00 7.125 C 69.9167 % 2.02 C
957 23-04-2016 21:00:00 5.81667 C 79.0000 % 2.46 C
958 23-04-2016 22:00:00 5.18333 C 83.0833 % 2.55 C
959 23-04-2016 23:00:00 4.66667 C 80.0833 % 1.53 C
960 24-04-2016 00:00:00 4.7 C 77.7500 % 1.16 C
961 24-04-2016 01:00:00 4.80833 C 77.9167 % 1.29 C
962 24-04-2016 02:00:00 4.475 C 79.3333 % 1.22 C
963 24-04-2016 03:00:00 4.08333 C 82.2500 % 1.34 C
964 24-04-2016 04:00:00 3.89167 C 82.9167 % 1.26 C
965 24-04-2016 05:00:00 2.93333 C 85.7500 % 0.79 C
966 24-04-2016 06:00:00 2.66667 C 88.4167 % 0.95 C
967 24-04-2016 07:00:00 3.025 C 90.1667 % 1.57 C
968 24-04-2016 08:00:00 3.85833 C 87.7500 % 2.02 C
969 24-04-2016 09:00:00 4.74167 C 82.0000 % 1.94 C
970 24-04-2016 10:00:00 5.825 C 73.9167 % 1.54 C
971 24-04-2016 11:00:00 6.06667 C 75.1667 % 2.01 C
972 24-04-2016 12:00:00 6.75833 C 70.3333 % 1.75 C
973 24-04-2016 13:00:00 5.40833 C 82.5833 % 2.69 C
974 24-04-2016 14:00:00 6.825 C 76.5000 % 2.99 C
975 24-04-2016 15:00:00 8.04167 C 68.2500 % 2.56 C
Sensor: Nr:Datum:Temp:Feuchte:Taupunkt:
Aussen-T/F 976 24-04-2016 16:00:00 8.95 C 60.5000 % 1.73 C
977 24-04-2016 17:00:00 5.875 C 78.2500 % 2.39 C
978 24-04-2016 18:00:00 8.85 C 66.2500 % 2.91 C
979 24-04-2016 19:00:00 7.75 C 64.7500 % 1.54 C
980 24-04-2016 20:00:00 5.73333 C 71.9167 % 1.07 C
981 24-04-2016 21:00:00 4.26667 C 83.2500 % 1.68 C
982 24-04-2016 22:00:00 3.275 C 89.1667 % 1.67 C
983 24-04-2016 23:00:00 3.05833 C 89.5000 % 1.5 C
984 25-04-2016 00:00:00 2.28333 C 92.3333 % 1.17 C
985 25-04-2016 01:00:00 2.35833 C 94.0000 % 1.49 C
986 25-04-2016 02:00:00 2.03333 C 94.0000 % 1.17 C
987 25-04-2016 03:00:00 1.33333 C 94.0833 % 0.49 C
988 25-04-2016 04:00:00 1.025 C 95.0000 % 0.32 C
989 25-04-2016 05:00:00 1.10833 C 95.0000 % 0.4 C
990 25-04-2016 06:00:00 1.225 C 94.9167 % 0.5 C
991 25-04-2016 07:00:00 1.64167 C 92.4167 % 0.55 C
992 25-04-2016 08:00:00 2.75 C 89.3333 % 1.17 C
993 25-04-2016 09:00:00 4.225 C 85.9167 % 2.08 C
994 25-04-2016 10:00:00 5.525 C 80.7500 % 2.49 C
995 25-04-2016 11:00:00 6.85 C 72.9167 % 2.34 C
996 25-04-2016 12:00:00 7.59167 C 69.9167 % 2.46 C
997 25-04-2016 13:00:00 7.45 C 72.3333 % 2.81 C
998 25-04-2016 14:00:00 7.46667 C 73.8333 % 3.11 C
999 25-04-2016 15:00:00 7.74167 C 74.0833 % 3.42 C
1000 25-04-2016 16:00:00 7.01667 C 81.5833 % 4.09 C
Sensor: Nr:Datum:Temp:Feuchte:Taupunkt:
Aussen-T/F 1001 25-04-2016 17:00:00 6.86667 C 83.0833 % 4.2 C
1002 25-04-2016 18:00:00 6.79167 C 83.4167 % 4.18 C
1003 25-04-2016 19:00:00 6.44167 C 87.0833 % 4.45 C
1004 25-04-2016 20:00:00 6.13333 C 87.8333 % 4.27 C
1005 25-04-2016 21:00:00 6.23333 C 88.6667 % 4.5 C
1006 25-04-2016 22:00:00 6.21667 C 89.6667 % 4.65 C
1007 25-04-2016 23:00:00 4.88333 C 91.3333 % 3.59 C
1008 26-04-2016 00:00:00 3.78333 C 93.3333 % 2.81 C
1009 26-04-2016 01:00:00 3.7 C 94.4167 % 2.89 C
1010 26-04-2016 02:00:00 3.70833 C 95.0000 % 2.98 C
1011 26-04-2016 03:00:00 3.1 C 94.0000 % 2.23 C
1012 26-04-2016 04:00:00 2.30833 C 94.0833 % 1.46 C
1013 26-04-2016 05:00:00 2.15833 C 95.0000 % 1.44 C
1014 26-04-2016 06:00:00 1.88333 C 95.0000 % 1.17 C
1015 26-04-2016 07:00:00 1.98333 C 95.4167 % 1.33 C
1016 26-04-2016 08:00:00 2.2 C 95.2500 % 1.52 C
1017 26-04-2016 09:00:00 3.66667 C 88.4167 % 1.93 C
1018 26-04-2016 10:00:00 5.1 C 77.2500 % 1.45 C
1019 26-04-2016 11:00:00 5.90833 C 71.5000 % 1.16 C
1020 26-04-2016 12:00:00 6.78333 C 66.0000 % 0.89 C
1021 26-04-2016 13:00:00 7.21667 C 65.4167 % 1.18 C
1022 26-04-2016 14:00:00 7.45833 C 67.5000 % 1.84 C
1023 26-04-2016 15:00:00 5.99167 C 78.0000 % 2.46 C
1024 26-04-2016 16:00:00 5.65 C 88.7500 % 3.94 C
1025 26-04-2016 17:00:00 7.43333 C 74.6667 % 3.24 C
Sensor: Nr:Datum:Temp:Feuchte:Taupunkt:
Aussen-T/F 1026 26-04-2016 18:00:00 6.93333 C 72.3333 % 2.31 C
1027 26-04-2016 19:00:00 6.5 C 72.4167 % 1.91 C
1028 26-04-2016 20:00:00 5.58333 C 73.0000 % 1.14 C
1029 26-04-2016 21:00:00 4.31667 C 78.6667 % 0.95 C
1030 26-04-2016 22:00:00 3.625 C 81.8333 % 0.82 C
1031 26-04-2016 23:00:00 3.25 C 83.0833 % 0.66 C
1032 27-04-2016 00:00:00 3.23333 C 82.6667 % 0.58 C
1033 27-04-2016 01:00:00 3.41667 C 82.0833 % 0.66 C
1034 27-04-2016 02:00:00 3.5 C 82.7500 % 0.85 C
1035 27-04-2016 03:00:00 3.68333 C 81.7500 % 0.86 C
1036 27-04-2016 04:00:00 3.675 C 82.0833 % 0.91 C
1037 27-04-2016 05:00:00 3.78333 C 81.1667 % 0.86 C
1038 27-04-2016 06:00:00 3.825 C 80.0000 % 0.7 C
1039 27-04-2016 07:00:00 3.89167 C 80.1667 % 0.79 C
1040 27-04-2016 08:00:00 4.7 C 78.0000 % 1.2 C
1041 27-04-2016 09:00:00 5.49167 C 76.4167 % 1.68 C
1042 27-04-2016 10:00:00 4.825 C 84.4167 % 2.43 C
1043 27-04-2016 11:00:00 5.18333 C 83.5833 % 2.64 C
1044 27-04-2016 12:00:00 5.74167 C 83.1667 % 3.11 C
1045 27-04-2016 13:00:00 6.9 C 79.5833 % 3.62 C
1046 27-04-2016 14:00:00 7.35833 C 78.0833 % 3.8 C
1047 27-04-2016 15:00:00 8.29167 C 72.0833 % 3.57 C
1048 27-04-2016 16:00:00 8.575 C 69.5000 % 3.32 C
1049 27-04-2016 17:00:00 8.23333 C 69.9167 % 3.08 C
1050 27-04-2016 18:00:00 9.09167 C 66.7500 % 3.25 C
Sensor: Nr:Datum:Temp:Feuchte:Taupunkt:
Aussen-T/F 1051 27-04-2016 19:00:00 8.13333 C 68.5833 % 2.71 C
1052 27-04-2016 20:00:00 6.85 C 71.0000 % 1.97 C
1053 27-04-2016 21:00:00 5.375 C 79.0833 % 2.05 C
1054 27-04-2016 22:00:00 5.23333 C 82.5000 % 2.5 C
1055 27-04-2016 23:00:00 4.8 C 83.5000 % 2.25 C
1056 28-04-2016 00:00:00 3.96667 C 87.1667 % 2.03 C
1057 28-04-2016 01:00:00 3.26667 C 88.0833 % 1.49 C
1058 28-04-2016 02:00:00 2.73333 C 89.2500 % 1.14 C
1059 28-04-2016 03:00:00 2.05833 C 91.0000 % 0.75 C
1060 28-04-2016 04:00:00 1.60833 C 91.6667 % 0.4 C
1061 28-04-2016 05:00:00 1.75833 C 92.0000 % 0.6 C
1062 28-04-2016 06:00:00 1.79167 C 92.0000 % 0.63 C
1063 28-04-2016 07:00:00 2.43333 C 90.2500 % 1 C
1064 28-04-2016 08:00:00 2.99167 C 88.5000 % 1.28 C
1065 28-04-2016 09:00:00 3.91667 C 86.2500 % 1.83 C
1066 28-04-2016 10:00:00 6.23333 C 79.0000 % 2.87 C
1067 28-04-2016 11:00:00 8.375 C 65.0833 % 2.21 C
1068 28-04-2016 12:00:00 9.30833 C 52.5000 % 0.1 C
1069 28-04-2016 13:00:00 9.50833 C 53.0000 % 0.42 C
1070 28-04-2016 14:00:00 9.45 C 53.0000 % 0.36 C
1071 28-04-2016 15:00:00 11.85 C 43.1667 % -0.26 C
1072 28-04-2016 16:00:00 13.50833 C 38.1667 % -0.45 C
1073 28-04-2016 17:00:00 12.48333 C 43.5000 % 0.42 C
1074 28-04-2016 18:00:00 13.29167 C 39.1667 % -0.29 C
1075 28-04-2016 19:00:00 11.81667 C 45.8333 % 0.54 C
Sensor: Nr:Datum:Temp:Feuchte:Taupunkt:
Aussen-T/F 1076 28-04-2016 20:00:00 8.575 C 64.3333 % 2.24 C
1077 28-04-2016 21:00:00 7.16667 C 72.5833 % 2.58 C
1078 28-04-2016 22:00:00 6.375 C 78.3333 % 2.89 C
1079 28-04-2016 23:00:00 5.13333 C 82.5833 % 2.42 C
1080 29-04-2016 00:00:00 4.29167 C 83.6667 % 1.78 C
1081 29-04-2016 01:00:00 3.14167 C 86.5833 % 1.13 C
1082 29-04-2016 02:00:00 2.10833 C 88.9167 % 0.48 C
1083 29-04-2016 03:00:00 1.65 C 90.5833 % 0.28 C
1084 29-04-2016 04:00:00 1.55833 C 91.9167 % 0.39 C
1085 29-04-2016 05:00:00 1.63333 C 92.4167 % 0.54 C
1086 29-04-2016 06:00:00 1.93333 C 93.0000 % 0.92 C
1087 29-04-2016 07:00:00 2.84167 C 92.4167 % 1.74 C
1088 29-04-2016 08:00:00 4.25 C 88.3333 % 2.5 C
1089 29-04-2016 09:00:00 5.95 C 81.8333 % 3.09 C
1090 29-04-2016 10:00:00 8.525 C 72.0833 % 3.79 C
1091 29-04-2016 11:00:00 11.25 C 52.0000 % 1.77 C
1092 29-04-2016 12:00:00 11.85833 C 46.7500 % 0.85 C
1093 29-04-2016 13:00:00 12.98333 C 43.5000 % 0.87 C
1094 29-04-2016 14:00:00 13.09167 C 43.8333 % 1.08 C
1095 29-04-2016 15:00:00 13.25 C 44.8333 % 1.54 C
1096 29-04-2016 16:00:00 13.33333 C 44.5833 % 1.53 C
1097 29-04-2016 17:00:00 13.63333 C 44.7500 % 1.86 C
1098 29-04-2016 18:00:00 14.98333 C 42.1667 % 2.25 C
1099 29-04-2016 19:00:00 13.56667 C 46.8333 % 2.43 C
1100 29-04-2016 20:00:00 10.86667 C 61.8333 % 3.85 C
Sensor: Nr:Datum:Temp:Feuchte:Taupunkt:
Aussen-T/F 1101 29-04-2016 21:00:00 8.43333 C 71.5000 % 3.59 C
1102 29-04-2016 22:00:00 7.4 C 75.6667 % 3.39 C
1103 29-04-2016 23:00:00 6.6 C 78.3333 % 3.11 C
1104 30-04-2016 00:00:00 6.325 C 80.5833 % 3.24 C
1105 30-04-2016 01:00:00 5.88333 C 81.1667 % 2.91 C
1106 30-04-2016 02:00:00 5.15833 C 83.5000 % 2.6 C
1107 30-04-2016 03:00:00 4.55 C 85.8333 % 2.39 C
1108 30-04-2016 04:00:00 3.98333 C 87.7500 % 2.14 C
1109 30-04-2016 05:00:00 3.48333 C 90.0000 % 2 C
1110 30-04-2016 06:00:00 3.31667 C 91.5833 % 2.08 C
1111 30-04-2016 07:00:00 4.35833 C 91.0833 % 3.03 C
1112 30-04-2016 08:00:00 5.73333 C 87.0833 % 3.76 C
1113 30-04-2016 09:00:00 7.64167 C 80.5833 % 4.52 C
1114 30-04-2016 10:00:00 9.51667 C 74.5000 % 5.22 C
1115 30-04-2016 11:00:00 10.05833 C 75.5000 % 5.93 C
1116 30-04-2016 12:00:00 11.075 C 74.3333 % 6.69 C
1117 30-04-2016 13:00:00 11.29167 C 75.2500 % 7.08 C
1118 30-04-2016 14:00:00 10.31667 C 80.8333 % 7.17 C
1119 30-04-2016 15:00:00 9.64167 C 87.8333 % 7.73 C
1120 30-04-2016 16:00:00 10.41667 C 85.5833 % 8.11 C
1121 30-04-2016 17:00:00 10.25 C 82.0000 % 7.32 C
1122 30-04-2016 18:00:00 10.05833 C 77.8333 % 6.37 C
1123 30-04-2016 19:00:00 9.40833 C 78.7500 % 5.91 C
1124 30-04-2016 20:00:00 8.94167 C 81.1667 % 5.89 C
1125 30-04-2016 21:00:00 8.38333 C 85.1667 % 6.04 C
Sensor: Nr:Datum:Temp:Feuchte:Taupunkt:
Aussen-T/F 1126 30-04-2016 22:00:00 7.73333 C 90.0833 % 6.21 C
1127 30-04-2016 23:00:00 7.31667 C 92.6667 % 6.21 C
1128 01-05-2016 00:00:00 7.15 C 91.4167 % 5.85 C
1129 01-05-2016 01:00:00 7.05833 C 91.0833 % 5.71 C
1130 01-05-2016 02:00:00 6.775 C 92.9167 % 5.71 C
1131 01-05-2016 03:00:00 6.6 C 94.0833 % 5.72 C
1132 01-05-2016 04:00:00 6.525 C 95.0000 % 5.78 C
1133 01-05-2016 05:00:00 6.5 C 94.2500 % 5.64 C
1134 01-05-2016 06:00:00 6.35 C 92.7500 % 5.26 C
1135 01-05-2016 07:00:00 6.29167 C 91.7500 % 5.05 C
1136 01-05-2016 08:00:00 6.38333 C 91.2500 % 5.06 C
1137 01-05-2016 09:00:00 6.825 C 90.0833 % 5.32 C
1138 01-05-2016 10:00:00 7.475 C 88.5000 % 5.7 C
1139 01-05-2016 11:00:00 8.56667 C 87.3333 % 6.58 C
1140 01-05-2016 12:00:00 9.80833 C 85.7500 % 7.54 C
1141 01-05-2016 13:00:00 11.34167 C 81.4167 % 8.28 C
1142 01-05-2016 14:00:00 13.28333 C 73.1667 % 8.59 C
1143 01-05-2016 15:00:00 14.54167 C 67.2500 % 8.55 C
1144 01-05-2016 16:00:00 15.35 C 63.6667 % 8.51 C
1145 01-05-2016 17:00:00 15.8 C 61.1667 % 8.34 C
1146 01-05-2016 18:00:00 15.96667 C 60.2500 % 8.28 C
1147 01-05-2016 19:00:00 16.375 C 58.2500 % 8.16 C
1148 01-05-2016 20:00:00 14.725 C 64.3333 % 8.07 C
1149 01-05-2016 21:00:00 11.73333 C 77.9167 % 8.01 C
1150 01-05-2016 22:00:00 11.28333 C 78.8333 % 7.75 C
Sensor: Nr:Datum:Temp:Feuchte:Taupunkt:
Aussen-T/F 1151 01-05-2016 23:00:00 9.80833 C 84.6667 % 7.35 C
1152 02-05-2016 00:00:00 8.84167 C 87.7500 % 6.92 C
1153 02-05-2016 01:00:00 8.31667 C 88.6667 % 6.56 C
1154 02-05-2016 02:00:00 7.6 C 90.4167 % 6.13 C
1155 02-05-2016 03:00:00 6.45833 C 91.2500 % 5.14 C
1156 02-05-2016 04:00:00 5.26667 C 93.0833 % 4.24 C
1157 02-05-2016 05:00:00 4.475 C 94.0000 % 3.6 C
1158 02-05-2016 06:00:00 4.00833 C 94.9167 % 3.27 C
1159 02-05-2016 07:00:00 4.44167 C 95.5000 % 3.79 C
1160 02-05-2016 08:00:00 5.31667 C 96.0000 % 4.73 C
1161 02-05-2016 09:00:00 6.39167 C 96.2500 % 5.84 C
1162 02-05-2016 10:00:00 8.675 C 95.8333 % 8.05 C
1163 02-05-2016 11:00:00 12.30833 C 81.3333 % 9.21 C
1164 02-05-2016 12:00:00 15.49167 C 60.3333 % 7.85 C
1165 02-05-2016 13:00:00 17.08333 C 49.4167 % 6.42 C
1166 02-05-2016 14:00:00 17.88333 C 46.2500 % 6.19 C
1167 02-05-2016 15:00:00 19.69167 C 42.0833 % 6.46 C
1168 02-05-2016 16:00:00 21.55833 C 39.5833 % 7.24 C
1169 02-05-2016 17:00:00 22.55833 C 37.9167 % 7.5 C
1170 02-05-2016 18:00:00 22.45833 C 36.2500 % 6.76 C
1171 02-05-2016 19:00:00 20.54167 C 46.2500 % 8.61 C
1172 02-05-2016 20:00:00 15.08333 C 65.5833 % 8.69 C
1173 02-05-2016 21:00:00 12.60833 C 73.3333 % 7.97 C
1174 02-05-2016 22:00:00 11.45 C 75.9167 % 7.36 C
1175 02-05-2016 23:00:00 11.025 C 80.5000 % 7.8 C
Sensor: Nr:Datum:Temp:Feuchte:Taupunkt:
Aussen-T/F 1176 03-05-2016 00:00:00 9.81667 C 85.4167 % 7.49 C
1177 03-05-2016 01:00:00 9.2 C 88.0833 % 7.33 C
1178 03-05-2016 02:00:00 8.725 C 89.4167 % 7.08 C
1179 03-05-2016 03:00:00 8.425 C 90.7500 % 7 C
1180 03-05-2016 04:00:00 8.33333 C 91.0000 % 6.95 C
1181 03-05-2016 05:00:00 8.19167 C 91.0000 % 6.81 C
1182 03-05-2016 06:00:00 8.51667 C 90.5833 % 7.07 C
1183 03-05-2016 07:00:00 9.15833 C 90.0000 % 7.61 C
1184 03-05-2016 08:00:00 9.53333 C 91.7500 % 8.26 C
1185 03-05-2016 09:00:00 9.51667 C 92.8333 % 8.42 C
1186 03-05-2016 10:00:00 10.10833 C 90.2500 % 8.59 C
1187 03-05-2016 11:00:00 11.44167 C 81.5833 % 8.41 C
1188 03-05-2016 12:00:00 12.29167 C 73.4167 % 7.68 C
1189 03-05-2016 13:00:00 12.94167 C 67.3333 % 7.04 C
1190 03-05-2016 14:00:00 12.39167 C 66.5833 % 6.35 C
1191 03-05-2016 15:00:00 12.85 C 67.0833 % 6.9 C
1192 03-05-2016 16:00:00 13.81667 C 65.3333 % 7.43 C
1193 03-05-2016 17:00:00 16.71667 C 45.3333 % 4.84 C
1194 03-05-2016 18:00:00 15.6 C 45.0833 % 3.75 C
1195 03-05-2016 19:00:00 14.875 C 44.2500 % 2.83 C
1196 03-05-2016 20:00:00 13.23333 C 52.9167 % 3.85 C
1197 03-05-2016 21:00:00 10.28333 C 66.5000 % 4.33 C
1198 03-05-2016 22:00:00 8.64167 C 73.8333 % 4.24 C
1199 03-05-2016 23:00:00 7.9 C 77.0000 % 4.12 C
1200 04-05-2016 00:00:00 6.375 C 82.5833 % 3.63 C
Sensor: Nr:Datum:Temp:Feuchte:Taupunkt:
Aussen-T/F 1201 04-05-2016 01:00:00 5.08333 C 87.5000 % 3.18 C
1202 04-05-2016 02:00:00 4.46667 C 89.3333 % 2.87 C
1203 04-05-2016 03:00:00 3.7 C 90.6667 % 2.32 C
1204 04-05-2016 04:00:00 3.13333 C 92.0833 % 1.98 C
1205 04-05-2016 05:00:00 2.75 C 93.1667 % 1.76 C
1206 04-05-2016 06:00:00 2.375 C 93.6667 % 1.46 C
1207 04-05-2016 07:00:00 2.75833 C 94.3333 % 1.94 C
1208 04-05-2016 08:00:00 3.71667 C 95.0000 % 2.99 C
1209 04-05-2016 09:00:00 5.36667 C 93.6667 % 4.43 C
1210 04-05-2016 10:00:00 8.26667 C 81.4167 % 5.28 C
1211 04-05-2016 11:00:00 11.10833 C 60.8333 % 3.84 C
1212 04-05-2016 12:00:00 12.25 C 52.3333 % 2.78 C
1213 04-05-2016 13:00:00 13.05833 C 49.0000 % 2.6 C
1214 04-05-2016 14:00:00 14.15833 C 45.1667 % 2.46 C
1215 04-05-2016 15:00:00 15.66667 C 39.1667 % 1.83 C
1216 04-05-2016 16:00:00 16.98333 C 35.3333 % 1.56 C
1217 04-05-2016 17:00:00 17.36667 C 33.1667 % 1.02 C
1218 04-05-2016 18:00:00 16.60833 C 34.6667 % 0.97 C
1219 04-05-2016 19:00:00 13.96667 C 53.3333 % 4.64 C
1220 04-05-2016 20:00:00 12.45833 C 58.5833 % 4.58 C
1221 04-05-2016 21:00:00 10.25833 C 57.5833 % 2.27 C
1222 04-05-2016 22:00:00 8.93333 C 60.8333 % 1.79 C
1223 04-05-2016 23:00:00 7.6 C 68.3333 % 2.15 C
1224 05-05-2016 00:00:00 5.84167 C 76.3333 % 2.01 C
1225 05-05-2016 01:00:00 4.725 C 81.3333 % 1.81 C
Sensor: Nr:Datum:Temp:Feuchte:Taupunkt:
Aussen-T/F 1226 05-05-2016 02:00:00 4.04167 C 84.6667 % 1.7 C
1227 05-05-2016 03:00:00 3.475 C 87.0000 % 1.52 C
1228 05-05-2016 04:00:00 3.24167 C 88.4167 % 1.52 C
1229 05-05-2016 05:00:00 2.50833 C 90.0000 % 1.04 C
1230 05-05-2016 06:00:00 2.06667 C 91.0833 % 0.77 C
1231 05-05-2016 07:00:00 2.375 C 92.1667 % 1.24 C
1232 05-05-2016 08:00:00 3.54167 C 93.1667 % 2.54 C
1233 05-05-2016 09:00:00 7.19167 C 84.1667 % 4.7 C
1234 05-05-2016 10:00:00 11.36667 C 65.5000 % 5.14 C
1235 05-05-2016 11:00:00 13.94167 C 56.4167 % 5.42 C
1236 05-05-2016 12:00:00 15.46667 C 51.4167 % 5.5 C
1237 05-05-2016 13:00:00 17.06667 C 46.5833 % 5.55 C
1238 05-05-2016 14:00:00 18.05833 C 45.8333 % 6.22 C
1239 05-05-2016 15:00:00 19.54167 C 44.2500 % 7.06 C
1240 05-05-2016 16:00:00 21.225 C 39.5833 % 6.95 C
1241 05-05-2016 17:00:00 21.30833 C 39.3333 % 6.93 C
1242 05-05-2016 18:00:00 21.36667 C 40.2500 % 7.32 C
1243 05-05-2016 19:00:00 20.69167 C 42.9167 % 7.65 C
1244 05-05-2016 20:00:00 18.18333 C 54.8333 % 8.96 C
1245 05-05-2016 21:00:00 14.64167 C 65.7500 % 8.31 C
1246 05-05-2016 22:00:00 12.45833 C 74.8333 % 8.12 C
1247 05-05-2016 23:00:00 10.55833 C 80.5833 % 7.36 C
1248 06-05-2016 00:00:00 9.53333 C 84.7500 % 7.1 C
1249 06-05-2016 01:00:00 8.71667 C 87.7500 % 6.8 C
1250 06-05-2016 02:00:00 7.99167 C 89.5833 % 6.39 C
Sensor: Nr:Datum:Temp:Feuchte:Taupunkt:
Aussen-T/F 1251 06-05-2016 03:00:00 7.36667 C 91.7500 % 6.12 C
1252 06-05-2016 04:00:00 7.225 C 92.6667 % 6.12 C
1253 06-05-2016 05:00:00 6.8 C 93.2500 % 5.79 C
1254 06-05-2016 06:00:00 6.28333 C 93.6667 % 5.34 C
1255 06-05-2016 07:00:00 6.49167 C 94.6667 % 5.7 C
1256 06-05-2016 08:00:00 7.75833 C 95.6667 % 7.11 C
1257 06-05-2016 09:00:00 9.99167 C 95.0000 % 9.23 C
1258 06-05-2016 10:00:00 14.975 C 76.4167 % 10.87 C
1259 06-05-2016 11:00:00 18.08333 C 63.0000 % 10.94 C
1260 06-05-2016 12:00:00 19.73333 C 56.5000 % 10.85 C
1261 06-05-2016 13:00:00 20.725 C 52.7500 % 10.74 C
1262 06-05-2016 14:00:00 22.16667 C 48.5000 % 10.8 C
1263 06-05-2016 15:00:00 23.91667 C 43.8333 % 10.87 C
1264 06-05-2016 16:00:00 25.50833 C 39.3333 % 10.67 C
1265 06-05-2016 17:00:00 26.24167 C 36.5000 % 10.2 C
1266 06-05-2016 18:00:00 26.01667 C 31.6667 % 7.9 C
1267 06-05-2016 19:00:00 24.58333 C 37.0833 % 8.97 C
1268 06-05-2016 20:00:00 20.025 C 53.5833 % 10.32 C
1269 06-05-2016 21:00:00 16.86667 C 59.2500 % 8.88 C
1270 06-05-2016 22:00:00 16.6 C 60.5833 % 8.95 C
1271 06-05-2016 23:00:00 14.70833 C 70.5833 % 9.42 C
1272 07-05-2016 00:00:00 12.225 C 79.5000 % 8.79 C
1273 07-05-2016 01:00:00 10.9 C 83.3333 % 8.19 C
1274 07-05-2016 02:00:00 9.84167 C 87.2500 % 7.83 C
1275 07-05-2016 03:00:00 9.06667 C 89.5833 % 7.45 C
Sensor: Nr:Datum:Temp:Feuchte:Taupunkt:
Aussen-T/F 1276 07-05-2016 04:00:00 8.5 C 91.5000 % 7.2 C
1277 07-05-2016 05:00:00 7.95833 C 92.5833 % 6.83 C
1278 07-05-2016 06:00:00 7.48333 C 93.5833 % 6.52 C
1279 07-05-2016 07:00:00 7.75 C 94.9167 % 6.99 C
1280 07-05-2016 08:00:00 8.73333 C 95.2500 % 8.02 C
1281 07-05-2016 09:00:00 10.56667 C 94.9167 % 9.79 C
1282 07-05-2016 10:00:00 14.35833 C 85.0833 % 11.89 C
1283 07-05-2016 11:00:00 19.35 C 61.5833 % 11.79 C
1284 07-05-2016 12:00:00 21.725 C 52.1667 % 11.49 C
1285 07-05-2016 13:00:00 23.29167 C 44.3333 % 10.48 C
1286 07-05-2016 14:00:00 24.525 C 37.8333 % 9.22 C
1287 07-05-2016 15:00:00 25.70833 C 33.4167 % 8.42 C
1288 07-05-2016 16:00:00 27.46667 C 28.6667 % 7.69 C
1289 07-05-2016 17:00:00 28.325 C 28.5833 % 8.38 C
1290 07-05-2016 18:00:00 28.1 C 27.3333 % 7.53 C
1291 07-05-2016 19:00:00 26.55833 C 32.6667 % 8.83 C
1292 07-05-2016 20:00:00 21.35833 C 48.0000 % 9.91 C
1293 07-05-2016 21:00:00 18.36667 C 54.7500 % 9.11 C
1294 07-05-2016 22:00:00 16.33333 C 64.5000 % 9.63 C
1295 07-05-2016 23:00:00 15.55833 C 64.9167 % 8.99 C
1296 08-05-2016 00:00:00 15.41667 C 62.2500 % 8.24 C
1297 08-05-2016 01:00:00 14.875 C 61.6667 % 7.59 C
1298 08-05-2016 02:00:00 14.4 C 62.3333 % 7.3 C
1299 08-05-2016 03:00:00 13.99167 C 63.0833 % 7.09 C
1300 08-05-2016 04:00:00 13.16667 C 65.8333 % 6.93 C
Sensor: Nr:Datum:Temp:Feuchte:Taupunkt:
Aussen-T/F 1301 08-05-2016 05:00:00 12.25 C 70.3333 % 7.01 C
1302 08-05-2016 06:00:00 11.725 C 72.9167 % 7.04 C
1303 08-05-2016 07:00:00 11.76667 C 75.7500 % 7.63 C
1304 08-05-2016 08:00:00 12.575 C 76.9167 % 8.64 C
1305 08-05-2016 09:00:00 14.25833 C 73.2500 % 9.54 C
1306 08-05-2016 10:00:00 17.825 C 57.3333 % 9.29 C
1307 08-05-2016 11:00:00 20.55833 C 47.3333 % 8.97 C
1308 08-05-2016 12:00:00 22.06667 C 37.8333 % 7.04 C
1309 08-05-2016 13:00:00 23.24167 C 34.0833 % 6.55 C
1310 08-05-2016 14:00:00 24.025 C 33.8333 % 7.13 C
1311 08-05-2016 15:00:00 25.225 C 32.5833 % 7.63 C
1312 08-05-2016 16:00:00 26.20833 C 30.6667 % 7.6 C
1313 08-05-2016 17:00:00 26.825 C 28.9167 % 7.27 C
1314 08-05-2016 18:00:00 26.43333 C 27.9167 % 6.42 C
1315 08-05-2016 19:00:00 25.61667 C 29.9167 % 6.72 C
1316 08-05-2016 20:00:00 22.68333 C 43.3333 % 9.59 C
1317 08-05-2016 21:00:00 18.23333 C 54.5000 % 8.91 C
1318 08-05-2016 22:00:00 16.93333 C 57.7500 % 8.56 C
1319 08-05-2016 23:00:00 16.06667 C 60.9167 % 8.53 C
1320 09-05-2016 00:00:00 15.15 C 65.0833 % 8.64 C
1321 09-05-2016 01:00:00 14.38333 C 67.8333 % 8.52 C
1322 09-05-2016 02:00:00 13.89167 C 69.0000 % 8.31 C
1323 09-05-2016 03:00:00 13.64167 C 69.0833 % 8.08 C
1324 09-05-2016 04:00:00 12.70833 C 72.4167 % 7.88 C
1325 09-05-2016 05:00:00 12.04167 C 75.5833 % 7.87 C
Sensor: Nr:Datum:Temp:Feuchte:Taupunkt:
Aussen-T/F 1326 09-05-2016 06:00:00 11.39167 C 79.8333 % 8.04 C
1327 09-05-2016 07:00:00 11.025 C 84.5833 % 8.53 C
1328 09-05-2016 08:00:00 12.125 C 85.0833 % 9.7 C
1329 09-05-2016 09:00:00 15 C 74.9167 % 10.59 C
1330 09-05-2016 10:00:00 18.175 C 62.5833 % 10.92 C
1331 09-05-2016 11:00:00 20.36667 C 55.5000 % 11.17 C
1332 09-05-2016 12:00:00 21.96667 C 50.1667 % 11.12 C
1333 09-05-2016 13:00:00 23.125 C 47.4167 % 11.33 C
1334 09-05-2016 14:00:00 23.98333 C 44.5000 % 11.16 C
1335 09-05-2016 15:00:00 25.49167 C 42.0833 % 11.67 C
1336 09-05-2016 16:00:00 26.09167 C 38.0833 % 10.7 C
1337 09-05-2016 17:00:00 25.725 C 39.7500 % 11.02 C
1338 09-05-2016 18:00:00 24.83333 C 43.1667 % 11.47 C
1339 09-05-2016 19:00:00 23.58333 C 55.8333 % 14.25 C
1340 09-05-2016 20:00:00 20.75833 C 61.3333 % 13.05 C
1341 09-05-2016 21:00:00 18.73333 C 64.3333 % 11.87 C
1342 09-05-2016 22:00:00 17.725 C 66.4167 % 11.39 C
1343 09-05-2016 23:00:00 16.975 C 67.0000 % 10.81 C
1344 10-05-2016 00:00:00 16.56667 C 68.0833 % 10.66 C
1345 10-05-2016 01:00:00 16.30833 C 69.7500 % 10.78 C
1346 10-05-2016 02:00:00 16.59167 C 68.1667 % 10.7 C
1347 10-05-2016 03:00:00 16.01667 C 71.0000 % 10.76 C
1348 10-05-2016 04:00:00 15.25 C 74.0833 % 10.67 C
1349 10-05-2016 05:00:00 15.075 C 74.7500 % 10.63 C
1350 10-05-2016 06:00:00 14.875 C 76.0000 % 10.69 C
Sensor: Nr:Datum:Temp:Feuchte:Taupunkt:
Aussen-T/F 1351 10-05-2016 07:00:00 15.11667 C 78.0833 % 11.33 C
1352 10-05-2016 08:00:00 16.45 C 75.7500 % 12.16 C
1353 10-05-2016 09:00:00 17.90833 C 65.5833 % 11.38 C
1354 10-05-2016 10:00:00 19.16667 C 61.9167 % 11.7 C
1355 10-05-2016 11:00:00 20.2 C 61.0000 % 12.44 C
1356 10-05-2016 12:00:00 19.90833 C 71.6667 % 14.64 C
1357 10-05-2016 13:00:00 18.91667 C 80.3333 % 15.46 C
1358 10-05-2016 14:00:00 18.9 C 81.0833 % 15.58 C
1359 10-05-2016 15:00:00 18.69167 C 83.9167 % 15.92 C
1360 10-05-2016 16:00:00 18.91667 C 82.7500 % 15.92 C
1361 10-05-2016 17:00:00 18.85833 C 82.5000 % 15.81 C
1362 10-05-2016 18:00:00 17.825 C 86.7500 % 15.59 C
1363 10-05-2016 19:00:00 18.3 C 84.0833 % 15.57 C
1364 10-05-2016 20:00:00 16.81667 C 88.2500 % 14.86 C
1365 10-05-2016 21:00:00 15.35 C 90.9167 % 13.88 C
1366 10-05-2016 22:00:00 14.31667 C 92.3333 % 13.09 C
1367 10-05-2016 23:00:00 13.75 C 93.8333 % 12.77 C
1368 11-05-2016 00:00:00 13.40833 C 94.1667 % 12.49 C
1369 11-05-2016 01:00:00 12.85 C 94.8333 % 12.04 C
1370 11-05-2016 02:00:00 12.24167 C 95.0833 % 11.48 C
1371 11-05-2016 03:00:00 11.6 C 95.4167 % 10.89 C
1372 11-05-2016 04:00:00 11.7 C 95.9167 % 11.07 C
1373 11-05-2016 05:00:00 11.21667 C 96.0000 % 10.6 C
1374 11-05-2016 06:00:00 11.53333 C 96.7500 % 11.04 C
1375 11-05-2016 07:00:00 12.2 C 97.0000 % 11.74 C
Sensor: Nr:Datum:Temp:Feuchte:Taupunkt:
Aussen-T/F 1376 11-05-2016 08:00:00 12.61667 C 97.0000 % 12.15 C
1377 11-05-2016 09:00:00 13.46667 C 97.0000 % 13 C
1378 11-05-2016 10:00:00 15.60833 C 95.0833 % 14.82 C
1379 11-05-2016 11:00:00 18.1 C 83.7500 % 15.31 C
1380 11-05-2016 12:00:00 20.63333 C 69.8333 % 14.93 C
1381 11-05-2016 13:00:00 22.075 C 63.7500 % 14.89 C
1382 11-05-2016 14:00:00 23.45833 C 53.5000 % 13.48 C
1383 11-05-2016 15:00:00 24.34167 C 50.6667 % 13.46 C
1384 11-05-2016 16:00:00 25.375 C 47.8333 % 13.52 C
1385 11-05-2016 17:00:00 25.25833 C 45.3333 % 12.59 C
1386 11-05-2016 18:00:00 24.98333 C 43.6667 % 11.77 C
1387 11-05-2016 19:00:00 24.10833 C 45.5833 % 11.63 C
1388 11-05-2016 20:00:00 21.10833 C 58.0000 % 12.53 C
1389 11-05-2016 21:00:00 17.6 C 65.1667 % 10.99 C
1390 11-05-2016 22:00:00 16.68333 C 69.1667 % 11.01 C
1391 11-05-2016 23:00:00 16.25833 C 71.9167 % 11.19 C
1392 12-05-2016 00:00:00 15.8 C 76.3333 % 11.65 C
1393 12-05-2016 01:00:00 15.69167 C 76.5000 % 11.58 C
1394 12-05-2016 02:00:00 15.34167 C 77.2500 % 11.38 C
1395 12-05-2016 03:00:00 14.975 C 77.8333 % 11.14 C
1396 12-05-2016 04:00:00 14.58333 C 79.0000 % 10.99 C
1397 12-05-2016 05:00:00 14.16667 C 79.7500 % 10.72 C
1398 12-05-2016 06:00:00 13.85833 C 81.4167 % 10.73 C
1399 12-05-2016 07:00:00 15.525 C 72.9167 % 10.69 C
1400 12-05-2016 08:00:00 16.175 C 69.0833 % 10.51 C
Sensor: Nr:Datum:Temp:Feuchte:Taupunkt:
Aussen-T/F 1401 12-05-2016 09:00:00 16.81667 C 68.8333 % 11.06 C
1402 12-05-2016 10:00:00 17.65833 C 66.5000 % 11.35 C
1403 12-05-2016 11:00:00 18.225 C 65.2500 % 11.6 C
1404 12-05-2016 12:00:00 18.98333 C 64.8333 % 12.22 C
1405 12-05-2016 13:00:00 20.225 C 63.0833 % 12.98 C
1406 12-05-2016 14:00:00 20.80833 C 61.1667 % 13.06 C
1407 12-05-2016 15:00:00 21.65 C 58.3333 % 13.12 C
1408 12-05-2016 16:00:00 21.75 C 58.1667 % 13.17 C
1409 12-05-2016 17:00:00 22.8 C 54.4167 % 13.13 C
1410 12-05-2016 18:00:00 22.275 C 56.4167 % 13.19 C
1411 12-05-2016 19:00:00 22.175 C 59.6667 % 13.96 C
1412 12-05-2016 20:00:00 19.6 C 69.6667 % 13.91 C
1413 12-05-2016 21:00:00 17.65833 C 75.5000 % 13.28 C
1414 12-05-2016 22:00:00 16.34167 C 80.3333 % 12.95 C
1415 12-05-2016 23:00:00 15.14167 C 84.0833 % 12.47 C
1416 13-05-2016 00:00:00 14.125 C 87.7500 % 12.13 C
1417 13-05-2016 01:00:00 13.025 C 89.8333 % 11.4 C
1418 13-05-2016 02:00:00 12.275 C 91.2500 % 10.89 C
1419 13-05-2016 03:00:00 11.9 C 92.5000 % 10.72 C
1420 13-05-2016 04:00:00 11.95 C 93.0000 % 10.85 C
1421 13-05-2016 05:00:00 11.33333 C 93.0833 % 10.26 C
1422 13-05-2016 06:00:00 11.36667 C 94.5833 % 10.53 C
1423 13-05-2016 07:00:00 12.26667 C 95.0000 % 11.49 C
1424 13-05-2016 08:00:00 13.025 C 94.8333 % 12.22 C
1425 13-05-2016 09:00:00 13.95833 C 93.1667 % 12.87 C
Sensor: Nr:Datum:Temp:Feuchte:Taupunkt:
Aussen-T/F 1426 13-05-2016 10:00:00 16.375 C 81.2500 % 13.16 C
1427 13-05-2016 11:00:00 19.075 C 70.0833 % 13.5 C
1428 13-05-2016 12:00:00 20.76667 C 65.5000 % 14.07 C
1429 13-05-2016 13:00:00 17.08333 C 81.5000 % 13.89 C
1430 13-05-2016 14:00:00 13.91667 C 92.7500 % 12.76 C
1431 13-05-2016 15:00:00 13.26667 C 94.5833 % 12.42 C
1432 13-05-2016 16:00:00 14.04167 C 95.7500 % 13.37 C
1433 13-05-2016 17:00:00 15.19167 C 95.4167 % 14.46 C
1434 13-05-2016 18:00:00 16.58333 C 88.9167 % 14.75 C
1435 13-05-2016 19:00:00 18.075 C 87.1667 % 15.91 C
1436 13-05-2016 20:00:00 15.80833 C 89.9167 % 14.16 C
1437 13-05-2016 21:00:00 13.55 C 92.8333 % 12.41 C
1438 13-05-2016 22:00:00 12.8 C 94.5000 % 11.94 C
1439 13-05-2016 23:00:00 11.85833 C 95.0000 % 11.08 C
1440 14-05-2016 00:00:00 11.28333 C 95.8333 % 10.64 C
1441 14-05-2016 01:00:00 10.69167 C 95.9167 % 10.07 C
1442 14-05-2016 02:00:00 10.56667 C 96.0000 % 9.96 C
1443 14-05-2016 03:00:00 10.24167 C 92.9167 % 9.15 C
1444 14-05-2016 04:00:00 9.98333 C 86.6667 % 7.87 C
1445 14-05-2016 05:00:00 9.56667 C 85.7500 % 7.3 C
1446 14-05-2016 06:00:00 9.30833 C 85.2500 % 6.96 C
1447 14-05-2016 07:00:00 9.19167 C 82.5000 % 6.37 C
1448 14-05-2016 08:00:00 9.09167 C 83.0833 % 6.38 C
1449 14-05-2016 09:00:00 9.33333 C 77.5000 % 5.61 C
1450 14-05-2016 10:00:00 9.81667 C 67.7500 % 4.15 C
Sensor: Nr:Datum:Temp:Feuchte:Taupunkt:
Aussen-T/F 1451 14-05-2016 11:00:00 10.75 C 59.7500 % 3.25 C
1452 14-05-2016 12:00:00 11.23333 C 57.5000 % 3.16 C
1453 14-05-2016 13:00:00 11.54167 C 57.9167 % 3.55 C
1454 14-05-2016 14:00:00 11.20833 C 62.6667 % 4.36 C
1455 14-05-2016 15:00:00 12.31667 C 56.8333 % 4.01 C
1456 14-05-2016 16:00:00 12.35 C 55.7500 % 3.77 C
1457 14-05-2016 17:00:00 12.325 C 53.7500 % 3.23 C
1458 14-05-2016 18:00:00 12.275 C 53.6667 % 3.16 C
1459 14-05-2016 19:00:00 11.33333 C 57.5000 % 3.26 C
1460 14-05-2016 20:00:00 10.925 C 58.5833 % 3.14 C
1461 14-05-2016 21:00:00 9.6 C 63.5833 % 3.04 C
1462 14-05-2016 22:00:00 8.39167 C 69.3333 % 3.11 C
1463 14-05-2016 23:00:00 7.70833 C 70.9167 % 2.78 C
1464 15-05-2016 00:00:00 7.2 C 73.0833 % 2.71 C
1465 15-05-2016 01:00:00 7.15833 C 74.0000 % 2.84 C
1466 15-05-2016 02:00:00 7.1 C 75.7500 % 3.12 C
1467 15-05-2016 03:00:00 6.78333 C 77.3333 % 3.1 C
1468 15-05-2016 04:00:00 6.41667 C 80.0000 % 3.22 C
1469 15-05-2016 05:00:00 6.3 C 80.3333 % 3.17 C
1470 15-05-2016 06:00:00 6.24167 C 82.5000 % 3.49 C
1471 15-05-2016 07:00:00 6.28333 C 82.6667 % 3.56 C
1472 15-05-2016 08:00:00 7.39167 C 78.8333 % 3.97 C
1473 15-05-2016 09:00:00 8.725 C 73.0000 % 4.16 C
1474 15-05-2016 10:00:00 9.64167 C 67.4167 % 3.91 C
1475 15-05-2016 11:00:00 10.21667 C 63.7500 % 3.66 C
Sensor: Nr:Datum:Temp:Feuchte:Taupunkt:
Aussen-T/F 1476 15-05-2016 12:00:00 8.79167 C 80.2500 % 5.58 C
1477 15-05-2016 13:00:00 10.34167 C 65.7500 % 4.22 C
1478 15-05-2016 14:00:00 11.19167 C 57.2500 % 3.06 C
1479 15-05-2016 15:00:00 11.78333 C 55.6667 % 3.22 C
1480 15-05-2016 16:00:00 12.56667 C 54.9167 % 3.76 C
1481 15-05-2016 17:00:00 11.99167 C 55.7500 % 3.44 C
1482 15-05-2016 18:00:00 11.68333 C 61.1667 % 4.46 C
1483 15-05-2016 19:00:00 11.675 C 56.3333 % 3.29 C
1484 15-05-2016 20:00:00 10.85 C 61.0000 % 3.64 C
1485 15-05-2016 21:00:00 9.975 C 68.0000 % 4.35 C
1486 15-05-2016 22:00:00 8.86667 C 76.2500 % 4.92 C
1487 15-05-2016 23:00:00 8.68333 C 79.1667 % 5.28 C
1488 16-05-2016 00:00:00 8.2 C 80.8333 % 5.11 C
1489 16-05-2016 01:00:00 8.20833 C 81.0000 % 5.15 C
1490 16-05-2016 02:00:00 8.16667 C 81.2500 % 5.15 C
1491 16-05-2016 03:00:00 7.925 C 84.2500 % 5.44 C
1492 16-05-2016 04:00:00 7.725 C 86.1667 % 5.56 C
1493 16-05-2016 05:00:00 7.675 C 87.5833 % 5.75 C
1494 16-05-2016 06:00:00 7.55 C 87.5833 % 5.63 C
1495 16-05-2016 07:00:00 7.98333 C 81.0000 % 4.93 C
1496 16-05-2016 08:00:00 8.26667 C 78.2500 % 4.71 C
1497 16-05-2016 09:00:00 8.56667 C 77.0000 % 4.77 C
1498 16-05-2016 10:00:00 9.61667 C 74.3333 % 5.28 C
1499 16-05-2016 11:00:00 11.10833 C 62.7500 % 4.28 C
1500 16-05-2016 12:00:00 11.56667 C 58.6667 % 3.76 C
Sensor: Nr:Datum:Temp:Feuchte:Taupunkt:
Aussen-T/F 1501 16-05-2016 13:00:00 11.65 C 58.0000 % 3.68 C
1502 16-05-2016 14:00:00 11.65 C 59.0833 % 3.94 C
1503 16-05-2016 15:00:00 12.25833 C 57.5000 % 4.12 C
1504 16-05-2016 16:00:00 12.95 C 53.6667 % 3.79 C
1505 16-05-2016 17:00:00 13.30833 C 51.3333 % 3.49 C
1506 16-05-2016 18:00:00 12.98333 C 49.6667 % 2.72 C
1507 16-05-2016 19:00:00 12.19167 C 55.5833 % 3.58 C
1508 16-05-2016 20:00:00 11.75833 C 60.5000 % 4.38 C
1509 16-05-2016 21:00:00 10.10833 C 71.4167 % 5.18 C
1510 16-05-2016 22:00:00 9.425 C 75.0000 % 5.22 C
1511 16-05-2016 23:00:00 8.875 C 79.7500 % 5.57 C
1512 17-05-2016 00:00:00 8.55 C 82.5000 % 5.75 C
1513 17-05-2016 01:00:00 8.1 C 83.9167 % 5.55 C
1514 17-05-2016 02:00:00 7.825 C 85.1667 % 5.49 C
1515 17-05-2016 03:00:00 7.76667 C 86.4167 % 5.65 C
1516 17-05-2016 04:00:00 7.66667 C 87.6667 % 5.75 C
1517 17-05-2016 05:00:00 7.66667 C 86.4167 % 5.55 C
1518 17-05-2016 06:00:00 7.81667 C 86.1667 % 5.65 C
1519 17-05-2016 07:00:00 8.46667 C 83.8333 % 5.89 C
1520 17-05-2016 08:00:00 9.575 C 79.5000 % 6.21 C
1521 17-05-2016 09:00:00 11.09167 C 73.0000 % 6.44 C
1522 17-05-2016 10:00:00 12.45 C 67.3333 % 6.57 C
1523 17-05-2016 11:00:00 14.025 C 59.9167 % 6.37 C
1524 17-05-2016 12:00:00 15.09167 C 53.0833 % 5.62 C
1525 17-05-2016 13:00:00 15.78333 C 49.3333 % 5.2 C
Sensor: Nr:Datum:Temp:Feuchte:Taupunkt:
Aussen-T/F 1526 17-05-2016 14:00:00 17.00833 C 44.9167 % 4.98 C
1527 17-05-2016 15:00:00 17.01667 C 45.8333 % 5.27 C
1528 17-05-2016 16:00:00 17.475 C 47.4167 % 6.18 C
1529 17-05-2016 17:00:00 16.675 C 50.8333 % 6.45 C
1530 17-05-2016 18:00:00 16.63333 C 54.0000 % 7.29 C
1531 17-05-2016 19:00:00 15.90833 C 61.9167 % 8.62 C
1532 17-05-2016 20:00:00 14.60833 C 66.5833 % 8.46 C
1533 17-05-2016 21:00:00 13.61667 C 70.6667 % 8.39 C
1534 17-05-2016 22:00:00 12.78333 C 73.3333 % 8.14 C
1535 17-05-2016 23:00:00 11.975 C 76.5833 % 7.99 C
1536 18-05-2016 00:00:00 11.8 C 77.8333 % 8.06 C
1537 18-05-2016 01:00:00 11.45833 C 79.5833 % 8.06 C
1538 18-05-2016 02:00:00 11.06667 C 82.0000 % 8.11 C
1539 18-05-2016 03:00:00 10.875 C 83.8333 % 8.25 C
1540 18-05-2016 04:00:00 10.89167 C 83.2500 % 8.17 C
1541 18-05-2016 05:00:00 11.10833 C 82.7500 % 8.29 C
1542 18-05-2016 06:00:00 11.14167 C 83.3333 % 8.43 C
1543 18-05-2016 07:00:00 11.43333 C 84.2500 % 8.87 C
1544 18-05-2016 08:00:00 12.66667 C 81.0000 % 9.49 C
1545 18-05-2016 09:00:00 14.075 C 77.7500 % 10.25 C
1546 18-05-2016 10:00:00 15.8 C 71.9167 % 10.75 C
1547 18-05-2016 11:00:00 16.8 C 64.8333 % 10.15 C
1548 18-05-2016 12:00:00 17.425 C 61.4167 % 9.93 C
1549 18-05-2016 13:00:00 18.325 C 57.5833 % 9.82 C
1550 18-05-2016 14:00:00 18.84167 C 53.5833 % 9.23 C
Sensor: Nr:Datum:Temp:Feuchte:Taupunkt:
Aussen-T/F 1551 18-05-2016 15:00:00 18.71667 C 57.0000 % 10.03 C
1552 18-05-2016 16:00:00 19.43333 C 51.8333 % 9.28 C
1553 18-05-2016 17:00:00 19.075 C 55.2500 % 9.9 C
1554 18-05-2016 18:00:00 18.34167 C 66.3333 % 11.96 C
1555 18-05-2016 19:00:00 16.61667 C 70.5000 % 11.23 C
1556 18-05-2016 20:00:00 14.84167 C 79.0833 % 11.25 C
1557 18-05-2016 21:00:00 12.975 C 89.6667 % 11.32 C
1558 18-05-2016 22:00:00 12 C 91.1667 % 10.61 C
1559 18-05-2016 23:00:00 11.7 C 92.6667 % 10.55 C
1560 19-05-2016 00:00:00 11.66667 C 93.1667 % 10.6 C
1561 19-05-2016 01:00:00 11.20833 C 94.0000 % 10.28 C
1562 19-05-2016 02:00:00 11.35 C 94.9167 % 10.57 C
1563 19-05-2016 03:00:00 11.29167 C 94.0000 % 10.36 C
1564 19-05-2016 04:00:00 10.95 C 93.0000 % 9.86 C
1565 19-05-2016 05:00:00 10.81667 C 92.9167 % 9.72 C
1566 19-05-2016 06:00:00 10.93333 C 94.0833 % 10.02 C
1567 19-05-2016 07:00:00 11.33333 C 93.9167 % 10.39 C
1568 19-05-2016 08:00:00 11.65 C 91.5833 % 10.33 C
1569 19-05-2016 09:00:00 12.45833 C 83.7500 % 9.79 C
1570 19-05-2016 10:00:00 13.73333 C 75.0833 % 9.4 C
1571 19-05-2016 11:00:00 14.61667 C 69.4167 % 9.09 C
1572 19-05-2016 12:00:00 15.50833 C 64.1667 % 8.77 C
1573 19-05-2016 13:00:00 16.40833 C 60.0000 % 8.63 C
1574 19-05-2016 14:00:00 17.33333 C 56.4167 % 8.59 C
1575 19-05-2016 15:00:00 17.575 C 55.1667 % 8.48 C
Sensor: Nr:Datum:Temp:Feuchte:Taupunkt:
Aussen-T/F 1576 19-05-2016 16:00:00 18.61667 C 51.3333 % 8.39 C
1577 19-05-2016 17:00:00 18.73333 C 51.1667 % 8.45 C
1578 19-05-2016 18:00:00 19.21667 C 50.3333 % 8.65 C
1579 19-05-2016 19:00:00 19.5 C 50.5833 % 8.98 C
1580 19-05-2016 20:00:00 15.425 C 67.7500 % 9.5 C
1581 19-05-2016 21:00:00 13.31667 C 75.2500 % 9.03 C
1582 19-05-2016 22:00:00 12.11667 C 80.2500 % 8.82 C
1583 19-05-2016 23:00:00 11.375 C 83.7500 % 8.73 C
1584 20-05-2016 00:00:00 10.85 C 86.2500 % 8.65 C
1585 20-05-2016 01:00:00 10.36667 C 88.2500 % 8.51 C
1586 20-05-2016 02:00:00 10.025 C 88.8333 % 8.27 C
1587 20-05-2016 03:00:00 9.76667 C 89.8333 % 8.18 C
1588 20-05-2016 04:00:00 9.28333 C 90.6667 % 7.84 C
1589 20-05-2016 05:00:00 9.11667 C 91.5833 % 7.82 C
1590 20-05-2016 06:00:00 9.16667 C 92.0000 % 7.94 C
1591 20-05-2016 07:00:00 9.99167 C 90.8333 % 8.57 C
1592 20-05-2016 08:00:00 11.81667 C 86.5000 % 9.64 C
1593 20-05-2016 09:00:00 13.425 C 82.9167 % 10.58 C
1594 20-05-2016 10:00:00 14.8 C 78.5833 % 11.12 C
1595 20-05-2016 11:00:00 16.16667 C 73.3333 % 11.4 C
1596 20-05-2016 12:00:00 17.33333 C 67.6667 % 11.3 C
1597 20-05-2016 13:00:00 16.85 C 72.5833 % 11.9 C
1598 20-05-2016 14:00:00 16.48333 C 73.9167 % 11.82 C
1599 20-05-2016 15:00:00 17.65 C 69.4167 % 11.99 C
1600 20-05-2016 16:00:00 17.78333 C 67.7500 % 11.75 C
Sensor: Nr:Datum:Temp:Feuchte:Taupunkt:
Aussen-T/F 1601 20-05-2016 17:00:00 19.375 C 62.3333 % 11.99 C
1602 20-05-2016 18:00:00 18.16667 C 65.8333 % 11.68 C
1603 20-05-2016 19:00:00 17.81667 C 69.3333 % 12.13 C
1604 20-05-2016 20:00:00 17.18333 C 72.5833 % 12.22 C
1605 20-05-2016 21:00:00 15.55 C 80.4167 % 12.19 C
1606 20-05-2016 22:00:00 14.68333 C 84.7500 % 12.15 C
1607 20-05-2016 23:00:00 14.3 C 86.0833 % 12.01 C
1608 21-05-2016 00:00:00 12.975 C 88.8333 % 11.18 C
1609 21-05-2016 01:00:00 12.49167 C 91.8333 % 11.2 C
1610 21-05-2016 02:00:00 12.30833 C 92.2500 % 11.09 C
1611 21-05-2016 03:00:00 11.925 C 92.9167 % 10.82 C
1612 21-05-2016 04:00:00 11.54167 C 94.0000 % 10.61 C
1613 21-05-2016 05:00:00 12.19167 C 94.2500 % 11.3 C
1614 21-05-2016 06:00:00 11.8 C 93.6667 % 10.81 C
1615 21-05-2016 07:00:00 11.83333 C 94.2500 % 10.94 C
1616 21-05-2016 08:00:00 13.15 C 94.5000 % 12.29 C
1617 21-05-2016 09:00:00 15.90833 C 86.6667 % 13.69 C
1618 21-05-2016 10:00:00 18.225 C 75.5000 % 13.82 C
1619 21-05-2016 11:00:00 19.15 C 70.8333 % 13.73 C
1620 21-05-2016 12:00:00 19.78333 C 66.9167 % 13.46 C
1621 21-05-2016 13:00:00 21.11667 C 61.4167 % 13.41 C
1622 21-05-2016 14:00:00 21.91667 C 56.2500 % 12.81 C
1623 21-05-2016 15:00:00 23.15833 C 53.2500 % 13.13 C
1624 21-05-2016 16:00:00 24.85 C 48.4167 % 13.23 C
1625 21-05-2016 17:00:00 25.875 C 46.1667 % 13.43 C
Sensor: Nr:Datum:Temp:Feuchte:Taupunkt:
Aussen-T/F 1626 21-05-2016 18:00:00 26.34167 C 44.2500 % 13.2 C
1627 21-05-2016 19:00:00 25.24167 C 47.5833 % 13.32 C
1628 21-05-2016 20:00:00 20.95833 C 65.6667 % 14.29 C
1629 21-05-2016 21:00:00 18.175 C 72.7500 % 13.21 C
1630 21-05-2016 22:00:00 16.9 C 76.7500 % 12.79 C
1631 21-05-2016 23:00:00 16.43333 C 80.0000 % 12.98 C
1632 22-05-2016 00:00:00 16.4 C 80.6667 % 13.07 C
1633 22-05-2016 01:00:00 16.03333 C 80.0000 % 12.59 C
1634 22-05-2016 02:00:00 14.89167 C 83.5000 % 12.12 C
1635 22-05-2016 03:00:00 13.75 C 86.6667 % 11.57 C
1636 22-05-2016 04:00:00 12.79167 C 90.0000 % 11.19 C
1637 22-05-2016 05:00:00 12.275 C 92.0000 % 11.01 C
1638 22-05-2016 06:00:00 12.15 C 93.1667 % 11.08 C
1639 22-05-2016 07:00:00 13.1 C 93.8333 % 12.13 C
1640 22-05-2016 08:00:00 15.70833 C 89.5000 % 13.99 C
1641 22-05-2016 09:00:00 19.425 C 74.1667 % 14.71 C
1642 22-05-2016 10:00:00 21.40833 C 67.3333 % 15.11 C
1643 22-05-2016 11:00:00 22.05833 C 64.2500 % 14.99 C
1644 22-05-2016 12:00:00 22.975 C 60.7500 % 14.99 C
1645 22-05-2016 13:00:00 23.55833 C 57.6667 % 14.73 C
1646 22-05-2016 14:00:00 24.59167 C 56.1667 % 15.28 C
1647 22-05-2016 15:00:00 24.88333 C 55.4167 % 15.34 C
1648 22-05-2016 16:00:00 24.68333 C 50.6667 % 13.77 C
1649 22-05-2016 17:00:00 23.14167 C 59.1667 % 14.74 C
1650 22-05-2016 18:00:00 21.75 C 68.0000 % 15.58 C
Sensor: Nr:Datum:Temp:Feuchte:Taupunkt:
Aussen-T/F 1651 22-05-2016 19:00:00 21.50833 C 61.0000 % 13.67 C
1652 22-05-2016 20:00:00 19.68333 C 61.7500 % 12.14 C
1653 22-05-2016 21:00:00 18.38333 C 68.9167 % 12.58 C
1654 22-05-2016 22:00:00 17.56667 C 72.3333 % 12.53 C
1655 22-05-2016 23:00:00 16.15833 C 83.1667 % 13.3 C
1656 23-05-2016 00:00:00 14.98333 C 88.9167 % 13.17 C
1657 23-05-2016 01:00:00 14.5 C 91.0833 % 13.06 C
1658 23-05-2016 02:00:00 14.55833 C 88.7500 % 12.72 C
1659 23-05-2016 03:00:00 14.65 C 86.3333 % 12.39 C
1660 23-05-2016 04:00:00 14.00833 C 85.2500 % 11.57 C
1661 23-05-2016 05:00:00 13.05 C 90.1667 % 11.48 C
1662 23-05-2016 06:00:00 12.8 C 90.9167 % 11.35 C
1663 23-05-2016 07:00:00 12.95833 C 89.9167 % 11.34 C
1664 23-05-2016 08:00:00 13.25 C 89.7500 % 11.6 C
1665 23-05-2016 09:00:00 14.25 C 85.3333 % 11.82 C
1666 23-05-2016 10:00:00 14.68333 C 81.0833 % 11.48 C
1667 23-05-2016 11:00:00 15.36667 C 74.4167 % 10.85 C
1668 23-05-2016 12:00:00 16.34167 C 69.0833 % 10.67 C
1669 23-05-2016 13:00:00 16.48333 C 68.8333 % 10.75 C
1670 23-05-2016 14:00:00 15.28333 C 73.1667 % 10.51 C
1671 23-05-2016 15:00:00 15.20833 C 75.1667 % 10.84 C
1672 23-05-2016 16:00:00 14.54167 C 78.4167 % 10.83 C
1673 23-05-2016 17:00:00 14.09167 C 80.5000 % 10.79 C
1674 23-05-2016 18:00:00 13.81667 C 79.5833 % 10.35 C
1675 23-05-2016 19:00:00 13.35833 C 80.7500 % 10.12 C
Sensor: Nr:Datum:Temp:Feuchte:Taupunkt:
Aussen-T/F 1676 23-05-2016 20:00:00 12.85833 C 83.7500 % 10.18 C
1677 23-05-2016 21:00:00 12.10833 C 87.8333 % 10.15 C
1678 23-05-2016 22:00:00 11.69167 C 89.8333 % 10.08 C
1679 23-05-2016 23:00:00 11.55 C 89.7500 % 9.93 C
1680 24-05-2016 00:00:00 11.33333 C 90.0833 % 9.77 C
1681 24-05-2016 01:00:00 11.25 C 90.0833 % 9.69 C
1682 24-05-2016 02:00:00 11.10833 C 90.1667 % 9.56 C
1683 24-05-2016 03:00:00 10.85833 C 91.7500 % 9.57 C
1684 24-05-2016 04:00:00 10.8 C 92.0000 % 9.55 C
1685 24-05-2016 05:00:00 10.73333 C 90.9167 % 9.31 C
1686 24-05-2016 06:00:00 10.675 C 90.0000 % 9.1 C
1687 24-05-2016 07:00:00 10.48333 C 90.0000 % 8.91 C
1688 24-05-2016 08:00:00 10.55833 C 89.5833 % 8.92 C
1689 24-05-2016 09:00:00 10.74167 C 88.0000 % 8.84 C
1690 24-05-2016 10:00:00 10.80833 C 87.5833 % 8.83 C
1691 24-05-2016 11:00:00 10.99167 C 88.0000 % 9.08 C
1692 24-05-2016 12:00:00 10.49167 C 91.2500 % 9.13 C
1693 24-05-2016 13:00:00 10.65 C 90.0833 % 9.09 C
1694 24-05-2016 14:00:00 11.00833 C 91.3333 % 9.65 C
1695 24-05-2016 15:00:00 11.20833 C 92.4167 % 10.03 C
1696 24-05-2016 16:00:00 11.2 C 92.5000 % 10.03 C
1697 24-05-2016 17:00:00 11.59167 C 92.7500 % 10.46 C
1698 24-05-2016 18:00:00 12.01667 C 91.6667 % 10.7 C
1699 24-05-2016 19:00:00 11.95 C 92.9167 % 10.84 C
1700 24-05-2016 20:00:00 11.4 C 93.7500 % 10.43 C
Sensor: Nr:Datum:Temp:Feuchte:Taupunkt:
Aussen-T/F 1701 24-05-2016 21:00:00 10.83333 C 94.5000 % 9.99 C
1702 24-05-2016 22:00:00 10.50833 C 95.0000 % 9.74 C
1703 24-05-2016 23:00:00 10.18333 C 95.5000 % 9.5 C
1704 25-05-2016 00:00:00 10.2 C 96.0000 % 9.59 C
1705 25-05-2016 01:00:00 10.125 C 96.0000 % 9.52 C
1706 25-05-2016 02:00:00 10.14167 C 96.0000 % 9.53 C
1707 25-05-2016 03:00:00 10.25833 C 96.0000 % 9.65 C
1708 25-05-2016 04:00:00 10.4 C 96.2500 % 9.83 C
1709 25-05-2016 05:00:00 10.48333 C 96.1667 % 9.9 C
1710 25-05-2016 06:00:00 10.50833 C 96.0000 % 9.9 C
1711 25-05-2016 07:00:00 10.49167 C 96.0000 % 9.88 C
1712 25-05-2016 08:00:00 10.69167 C 95.7500 % 10.04 C
1713 25-05-2016 09:00:00 11.63333 C 90.9167 % 10.2 C
1714 25-05-2016 10:00:00 12.90833 C 86.3333 % 10.68 C
1715 25-05-2016 11:00:00 13.875 C 81.0833 % 10.69 C
1716 25-05-2016 12:00:00 14.50833 C 77.8333 % 10.69 C
1717 25-05-2016 13:00:00 15.09167 C 75.2500 % 10.75 C
1718 25-05-2016 14:00:00 15.44167 C 74.4167 % 10.92 C
1719 25-05-2016 15:00:00 15.8 C 74.4167 % 11.26 C
1720 25-05-2016 16:00:00 15.875 C 74.5833 % 11.37 C
1721 25-05-2016 17:00:00 15.73333 C 82.6667 % 12.79 C
1722 25-05-2016 18:00:00 14.925 C 86.5833 % 12.71 C
1723 25-05-2016 19:00:00 16.00833 C 78.7500 % 12.32 C
1724 25-05-2016 20:00:00 15.475 C 81.0000 % 12.23 C
1725 25-05-2016 21:00:00 12.71667 C 88.3333 % 10.84 C
Sensor: Nr:Datum:Temp:Feuchte:Taupunkt:
Aussen-T/F 1726 25-05-2016 22:00:00 11.45833 C 91.1667 % 10.07 C
1727 25-05-2016 23:00:00 10.35 C 92.6667 % 9.22 C
1728 26-05-2016 00:00:00 9.58333 C 93.9167 % 8.65 C
1729 26-05-2016 01:00:00 8.89167 C 94.6667 % 8.08 C
1730 26-05-2016 02:00:00 8.40833 C 95.0000 % 7.65 C
1731 26-05-2016 03:00:00 7.96667 C 95.6667 % 7.32 C
1732 26-05-2016 04:00:00 8.1 C 95.9167 % 7.49 C
1733 26-05-2016 05:00:00 8.20833 C 96.0000 % 7.61 C
1734 26-05-2016 06:00:00 8.13333 C 96.0000 % 7.53 C
1735 26-05-2016 07:00:00 8.3 C 96.5833 % 7.79 C
1736 26-05-2016 08:00:00 9.06667 C 97.0000 % 8.62 C
1737 26-05-2016 09:00:00 10.25833 C 97.0000 % 9.8 C
1738 26-05-2016 10:00:00 12.35 C 95.9167 % 11.72 C
1739 26-05-2016 11:00:00 15.50833 C 84.9167 % 12.98 C
1740 26-05-2016 12:00:00 18.00833 C 74.5833 % 13.43 C
1741 26-05-2016 13:00:00 18.4 C 73.9167 % 13.67 C
1742 26-05-2016 14:00:00 20.7 C 63.5000 % 13.53 C
1743 26-05-2016 15:00:00 22.2 C 54.7500 % 12.66 C
1744 26-05-2016 16:00:00 22.99167 C 53.0000 % 12.9 C
1745 26-05-2016 17:00:00 23.69167 C 51.6667 % 13.16 C
1746 26-05-2016 18:00:00 23.96667 C 51.1667 % 13.26 C
1747 26-05-2016 19:00:00 23.60833 C 55.7500 % 14.25 C
1748 26-05-2016 20:00:00 19.58333 C 73.6667 % 14.75 C
1749 26-05-2016 21:00:00 17.63333 C 78.7500 % 13.9 C
1750 26-05-2016 22:00:00 16.575 C 85.5833 % 14.15 C
Sensor: Nr:Datum:Temp:Feuchte:Taupunkt:
Aussen-T/F 1751 26-05-2016 23:00:00 15.425 C 91.3333 % 14.02 C
1752 27-05-2016 00:00:00 14.825 C 93.0000 % 13.7 C
1753 27-05-2016 01:00:00 14.36667 C 93.5000 % 13.33 C
1754 27-05-2016 02:00:00 14.46667 C 94.5833 % 13.61 C
1755 27-05-2016 03:00:00 14.625 C 95.0000 % 13.83 C
1756 27-05-2016 04:00:00 14.41667 C 95.2500 % 13.67 C
1757 27-05-2016 05:00:00 13.93636 C 96.0000 % 13.31 C
1758 27-05-2016 08:00:00 14.65 C 96.3333 % 14.07 C
1759 27-05-2016 09:00:00 15.34167 C 95.6667 % 14.65 C
1760 27-05-2016 10:00:00 16.58333 C 92.5000 % 15.36 C
1761 27-05-2016 11:00:00 17.84167 C 86.9167 % 15.63 C
1762 27-05-2016 12:00:00 18.55833 C 89.0000 % 16.71 C
1763 27-05-2016 13:00:00 19.29167 C 86.9167 % 17.06 C
1764 27-05-2016 14:00:00 20.41667 C 80.0000 % 16.85 C
1765 27-05-2016 15:00:00 22.7 C 65.6667 % 15.94 C
1766 27-05-2016 16:00:00 21.85833 C 78.4167 % 17.93 C
1767 27-05-2016 17:00:00 17.44167 C 89.2500 % 15.65 C
1768 27-05-2016 18:00:00 16.56667 C 94.5833 % 15.69 C
1769 27-05-2016 19:00:00 16.7 C 95.0000 % 15.9 C
1770 27-05-2016 20:00:00 16.54167 C 95.0833 % 15.75 C
1771 27-05-2016 21:00:00 15.85833 C 95.5833 % 15.15 C
1772 27-05-2016 22:00:00 15.125 C 95.9167 % 14.48 C
1773 28-05-2016 01:00:00 13.73333 C 96.6667 % 13.21 C
1774 28-05-2016 02:00:00 14.13333 C 97.0000 % 13.66 C
1775 28-05-2016 03:00:00 13.81667 C 97.0000 % 13.35 C
Sensor: Nr:Datum:Temp:Feuchte:Taupunkt:
Aussen-T/F 1776 28-05-2016 04:00:00 13.7 C 97.0000 % 13.23 C
1777 28-05-2016 12:00:00 18.3 C 90.5000 % 16.72 C
1778 28-05-2016 13:00:00 19.73333 C 84.9167 % 17.12 C
1779 28-05-2016 14:00:00 21.75 C 72.5833 % 16.61 C
1780 28-05-2016 15:00:00 22.68333 C 75.7500 % 18.18 C
1781 28-05-2016 16:00:00 23.03333 C 74.7500 % 18.31 C
1782 28-05-2016 17:00:00 20.65 C 85.2500 % 18.08 C
1783 28-05-2016 18:00:00 18.925 C 90.9167 % 17.41 C
1784 28-05-2016 19:00:00 18.1 C 93.1667 % 16.98 C
1785 28-05-2016 20:00:00 17.73333 C 94.0000 % 16.76 C
1786 28-05-2016 21:00:00 16.5 C 94.0833 % 15.54 C
1787 28-05-2016 22:00:00 15.86667 C 95.0000 % 15.07 C
1788 28-05-2016 23:00:00 15.4 C 95.0000 % 14.6 C
1789 29-05-2016 00:00:00 14.83333 C 95.6667 % 14.15 C
1790 29-05-2016 01:00:00 14.38333 C 96.0000 % 13.75 C
1791 29-05-2016 02:00:00 14.1 C 96.0000 % 13.47 C
1792 29-05-2016 03:00:00 13.31667 C 96.0000 % 12.69 C
1793 29-05-2016 04:00:00 12.8 C 96.5000 % 12.26 C
1794 29-05-2016 05:00:00 13.09167 C 97.0000 % 12.63 C
1795 29-05-2016 06:00:00 13.45833 C 97.0000 % 12.99 C
1796 29-05-2016 07:00:00 13.925 C 97.0000 % 13.46 C
1797 29-05-2016 08:00:00 14.49167 C 97.0833 % 14.03 C
1798 29-05-2016 09:00:00 15.64167 C 97.1667 % 15.19 C
1799 29-05-2016 10:00:00 16.34167 C 94.1667 % 15.4 C
1800 29-05-2016 11:00:00 17.15 C 89.7500 % 15.45 C
Sensor: Nr:Datum:Temp:Feuchte:Taupunkt:
Aussen-T/F 1801 29-05-2016 12:00:00 18.325 C 86.7500 % 16.08 C
1802 29-05-2016 13:00:00 20 C 82.0000 % 16.83 C
1803 29-05-2016 14:00:00 20.90833 C 79.0833 % 17.15 C
1804 29-05-2016 15:00:00 22.09167 C 77.0000 % 17.87 C
1805 29-05-2016 16:00:00 23.40833 C 69.5833 % 17.53 C
1806 29-05-2016 17:00:00 23.85 C 68.5833 % 17.72 C
1807 29-05-2016 18:00:00 21.70833 C 81.7500 % 18.45 C
1808 29-05-2016 19:00:00 20.86667 C 85.2500 % 18.3 C
1809 29-05-2016 20:00:00 19.25 C 88.4167 % 17.29 C
1810 29-05-2016 21:00:00 18.1 C 92.5833 % 16.88 C
1811 29-05-2016 22:00:00 17.31667 C 94.2500 % 16.38 C
1812 29-05-2016 23:00:00 17.40833 C 95.8333 % 16.74 C
1813 30-05-2016 00:00:00 16.98333 C 95.7500 % 16.3 C
1814 30-05-2016 01:00:00 16.93333 C 96.0000 % 16.29 C
1815 30-05-2016 02:00:00 16.66667 C 96.0000 % 16.03 C
1816 30-05-2016 03:00:00 16.375 C 96.0000 % 15.74 C
1817 30-05-2016 04:00:00 16.14167 C 96.0000 % 15.5 C
1818 30-05-2016 05:00:00 15.825 C 96.0000 % 15.19 C
1819 30-05-2016 06:00:00 15.875 C 96.8333 % 15.37 C
1820 30-05-2016 07:00:00 16.13333 C 97.0000 % 15.66 C
1821 30-05-2016 08:00:00 16.58333 C 97.0000 % 16.11 C
1822 30-05-2016 09:00:00 16.95833 C 97.0000 % 16.48 C
1823 30-05-2016 10:00:00 17.33333 C 96.7500 % 16.81 C
1824 30-05-2016 11:00:00 17.95833 C 93.5833 % 16.91 C
1825 30-05-2016 12:00:00 19.11667 C 88.6667 % 17.2 C
Sensor: Nr:Datum:Temp:Feuchte:Taupunkt:
Aussen-T/F 1826 30-05-2016 13:00:00 19.375 C 89.7500 % 17.65 C
1827 30-05-2016 14:00:00 20.05 C 87.5833 % 17.93 C
1828 30-05-2016 15:00:00 20.4 C 88.1667 % 18.38 C
1829 30-05-2016 16:00:00 21.3 C 83.4167 % 18.37 C
1830 30-05-2016 17:00:00 19.925 C 84.5833 % 17.25 C
1831 30-05-2016 18:00:00 18.49167 C 90.2500 % 16.86 C
1832 30-05-2016 19:00:00 17.75833 C 93.6667 % 16.72 C
1833 30-05-2016 20:00:00 16.975 C 94.0000 % 16 C
1834 30-05-2016 21:00:00 15.96667 C 94.3333 % 15.06 C
1835 30-05-2016 22:00:00 15.575 C 95.0000 % 14.78 C
1836 30-05-2016 23:00:00 15.23333 C 95.0000 % 14.44 C
1837 31-05-2016 00:00:00 14.675 C 95.3333 % 13.94 C
1838 31-05-2016 01:00:00 14.5 C 96.0000 % 13.87 C
1839 31-05-2016 02:00:00 13.775 C 96.0000 % 13.15 C
1840 31-05-2016 03:00:00 13.5 C 96.0000 % 12.87 C
1841 31-05-2016 04:00:00 13.11667 C 96.3333 % 12.55 C
1842 31-05-2016 05:00:00 13.24167 C 97.0000 % 12.78 C
1843 31-05-2016 06:00:00 13.575 C 97.0000 % 13.11 C
1844 31-05-2016 07:00:00 14.325 C 96.7500 % 13.82 C
1845 31-05-2016 08:00:00 15.31667 C 91.9167 % 14.01 C
1846 31-05-2016 09:00:00 16.7 C 85.6667 % 14.29 C
1847 31-05-2016 10:00:00 17.58333 C 81.0000 % 14.29 C
1848 31-05-2016 11:00:00 18.125 C 80.6667 % 14.75 C
1849 31-05-2016 12:00:00 18.7 C 77.9167 % 14.77 C
1850 31-05-2016 13:00:00 19.30833 C 75.5833 % 14.89 C
Sensor: Nr:Datum:Temp:Feuchte:Taupunkt:
Aussen-T/F 1851 31-05-2016 14:00:00 18.4 C 82.5000 % 15.37 C
1852 31-05-2016 15:00:00 18.975 C 80.9167 % 15.63 C
1853 31-05-2016 16:00:00 19.29167 C 77.3333 % 15.23 C
1854 31-05-2016 17:00:00 19.09167 C 77.0833 % 14.98 C
1855 31-05-2016 18:00:00 19.88333 C 74.8333 % 15.29 C
1856 31-05-2016 19:00:00 18.58333 C 85.3333 % 16.07 C
1857 31-05-2016 20:00:00 17.65 C 87.4167 % 15.53 C
1858 31-05-2016 21:00:00 16.525 C 88.3333 % 14.59 C
1859 31-05-2016 22:00:00 15.95 C 90.6667 % 14.43 C
1860 31-05-2016 23:00:00 15.55833 C 92.0833 % 14.28 C
1861 01-06-2016 00:00:00 15.3 C 92.9167 % 14.16 C
1862 01-06-2016 01:00:00 15.025 C 93.0833 % 13.92 C
1863 01-06-2016 02:00:00 14.61667 C 94.0000 % 13.66 C
1864 01-06-2016 03:00:00 13.89167 C 94.3333 % 13 C
1865 01-06-2016 04:00:00 13.8 C 95.0000 % 13.01 C
1866 01-06-2016 05:00:00 13.70833 C 95.3333 % 12.98 C
1867 01-06-2016 06:00:00 13.88333 C 95.5833 % 13.19 C
1868 01-06-2016 07:00:00 14.43333 C 94.0833 % 13.49 C
1869 01-06-2016 08:00:00 15.20833 C 91.5833 % 13.85 C
1870 01-06-2016 09:00:00 15.8 C 90.6667 % 14.28 C
1871 01-06-2016 10:00:00 16.03333 C 92.8333 % 14.87 C
1872 01-06-2016 11:00:00 16.26667 C 93.5000 % 15.22 C
1873 01-06-2016 12:00:00 16.5 C 94.7500 % 15.66 C
1874 01-06-2016 13:00:00 16.8 C 95.0000 % 15.99 C
1875 01-06-2016 14:00:00 16.81667 C 95.0000 % 16.01 C
Sensor: Nr:Datum:Temp:Feuchte:Taupunkt:
Aussen-T/F 1876 01-06-2016 15:00:00 16.83333 C 95.1667 % 16.05 C
1877 01-06-2016 16:00:00 16.66667 C 95.2500 % 15.9 C
1878 01-06-2016 17:00:00 16.66667 C 96.0000 % 16.03 C
1879 01-06-2016 18:00:00 16.78333 C 96.0000 % 16.14 C
1880 01-06-2016 19:00:00 16.73333 C 96.0000 % 16.09 C
1881 01-06-2016 20:00:00 16.40833 C 96.0833 % 15.78 C
1882 01-06-2016 21:00:00 16.3 C 97.0000 % 15.82 C
1883 01-06-2016 22:00:00 16.2 C 97.0000 % 15.72 C
1884 01-06-2016 23:00:00 16.10833 C 97.0000 % 15.63 C
1885 02-06-2016 00:00:00 16.16667 C 97.0000 % 15.69 C
1886 02-06-2016 01:00:00 16.25 C 97.0000 % 15.77 C
1887 02-06-2016 02:00:00 16.21667 C 97.0000 % 15.74 C
1888 02-06-2016 03:00:00 15.93333 C 97.0000 % 15.46 C
1889 02-06-2016 04:00:00 15.7 C 97.0000 % 15.23 C
1890 02-06-2016 05:00:00 15.6 C 97.0000 % 15.13 C
1891 02-06-2016 06:00:00 15.66667 C 97.0833 % 15.21 C
1892 02-06-2016 07:00:00 15.99167 C 97.5000 % 15.6 C
1893 02-06-2016 08:00:00 16.45833 C 97.5000 % 16.06 C
1894 02-06-2016 09:00:00 16.8 C 96.5833 % 16.25 C
1895 02-06-2016 10:00:00 17.81667 C 93.5833 % 16.77 C
1896 02-06-2016 11:00:00 18.94167 C 88.7500 % 17.04 C
1897 02-06-2016 12:00:00 19.35833 C 89.6667 % 17.62 C
1898 02-06-2016 13:00:00 20.15 C 83.7500 % 17.31 C
1899 02-06-2016 14:00:00 21.44167 C 76.9167 % 17.22 C
1900 02-06-2016 15:00:00 21.93333 C 75.6667 % 17.44 C
Sensor: Nr:Datum:Temp:Feuchte:Taupunkt:
Aussen-T/F 1901 02-06-2016 16:00:00 22 C 79.5833 % 18.31 C
1902 02-06-2016 17:00:00 21.15 C 82.0000 % 17.96 C
1903 02-06-2016 18:00:00 17.75833 C 90.1667 % 16.13 C
1904 02-06-2016 19:00:00 16.19167 C 94.2500 % 15.27 C
1905 02-06-2016 20:00:00 15.99167 C 95.0000 % 15.19 C
1906 02-06-2016 21:00:00 15.8 C 96.0000 % 15.16 C
1907 02-06-2016 22:00:00 15.61667 C 96.0000 % 14.98 C
1908 02-06-2016 23:00:00 15.54167 C 96.0833 % 14.92 C
1909 03-06-2016 00:00:00 15.36667 C 96.0833 % 14.75 C
1910 03-06-2016 01:00:00 15.10833 C 96.1667 % 14.5 C
1911 03-06-2016 02:00:00 15.10833 C 97.0000 % 14.64 C
1912 03-06-2016 03:00:00 15.31667 C 97.0000 % 14.84 C
1913 03-06-2016 04:00:00 15.43333 C 97.0000 % 14.96 C
1914 03-06-2016 05:00:00 15.4 C 97.0000 % 14.93 C
1915 03-06-2016 06:00:00 15.55 C 97.0000 % 15.08 C
1916 03-06-2016 07:00:00 15.21667 C 97.0000 % 14.74 C
1917 03-06-2016 08:00:00 15.44167 C 97.0000 % 14.97 C
1918 03-06-2016 09:00:00 16.09167 C 97.0833 % 15.63 C
1919 03-06-2016 10:00:00 16.85833 C 94.2500 % 15.93 C
1920 03-06-2016 11:00:00 18.19167 C 88.6667 % 16.29 C
1921 03-06-2016 12:00:00 19.19167 C 84.7500 % 16.56 C
1922 03-06-2016 13:00:00 19.3 C 88.5000 % 17.35 C
1923 03-06-2016 14:00:00 17.7 C 93.6667 % 16.67 C
1924 03-06-2016 15:00:00 18 C 94.9167 % 17.17 C
1925 03-06-2016 16:00:00 17.4 C 94.8333 % 16.56 C
Sensor: Nr:Datum:Temp:Feuchte:Taupunkt:
Aussen-T/F 1926 03-06-2016 17:00:00 18.31667 C 95.5833 % 17.6 C
1927 03-06-2016 18:00:00 19.15833 C 94.4167 % 18.24 C
1928 03-06-2016 19:00:00 18.76667 C 94.0000 % 17.78 C
1929 03-06-2016 20:00:00 17.25 C 93.0833 % 16.12 C
1930 03-06-2016 21:00:00 15.86667 C 95.0833 % 15.08 C
1931 03-06-2016 22:00:00 16.15833 C 96.0000 % 15.52 C
1932 03-06-2016 23:00:00 16.25833 C 96.2500 % 15.66 C
1933 04-06-2016 00:00:00 16.1 C 96.6667 % 15.57 C
1934 04-06-2016 01:00:00 16.01667 C 97.0000 % 15.54 C
1935 04-06-2016 02:00:00 15.3 C 97.0000 % 14.83 C
1936 04-06-2016 03:00:00 15.04167 C 97.0000 % 14.57 C
1937 04-06-2016 04:00:00 15.3 C 97.0000 % 14.83 C
1938 04-06-2016 05:00:00 15.375 C 97.0000 % 14.9 C
1939 04-06-2016 06:00:00 15.24167 C 97.0000 % 14.77 C
1940 04-06-2016 07:00:00 15.4 C 97.0000 % 14.93 C
1941 04-06-2016 08:00:00 15.81667 C 97.0000 % 15.34 C
1942 04-06-2016 09:00:00 16.71667 C 95.4167 % 15.98 C
1943 04-06-2016 10:00:00 17.96667 C 91.5000 % 16.56 C
1944 04-06-2016 11:00:00 19.36667 C 86.8333 % 17.12 C
1945 04-06-2016 12:00:00 19.85833 C 86.8333 % 17.6 C
1946 04-06-2016 13:00:00 20.50833 C 85.7500 % 18.04 C
1947 04-06-2016 14:00:00 21.25833 C 81.9167 % 18.04 C
1948 04-06-2016 15:00:00 22.95 C 72.0833 % 17.65 C
1949 04-06-2016 16:00:00 23.76667 C 68.4167 % 17.6 C
1950 04-06-2016 17:00:00 20.64167 C 82.9167 % 17.64 C
Sensor: Nr:Datum:Temp:Feuchte:Taupunkt:
Aussen-T/F 1951 04-06-2016 18:00:00 18.425 C 91.6667 % 17.04 C
1952 04-06-2016 19:00:00 19.44167 C 92.7500 % 18.24 C
1953 04-06-2016 20:00:00 19.35833 C 87.0833 % 17.15 C
1954 04-06-2016 21:00:00 16.51667 C 93.6667 % 15.49 C
1955 04-06-2016 22:00:00 16.10833 C 95.0000 % 15.31 C
1956 04-06-2016 23:00:00 15.95 C 95.8333 % 15.29 C
1957 05-06-2016 00:00:00 16.4 C 96.7500 % 15.88 C
1958 05-06-2016 01:00:00 16.7 C 97.0000 % 16.22 C
1959 05-06-2016 02:00:00 16.76667 C 97.0000 % 16.29 C
1960 05-06-2016 03:00:00 16.88333 C 97.0000 % 16.4 C
1961 05-06-2016 04:00:00 16.9 C 97.0000 % 16.42 C
1962 05-06-2016 05:00:00 16.84167 C 97.0000 % 16.36 C
1963 05-06-2016 06:00:00 17 C 97.0000 % 16.52 C
1964 05-06-2016 07:00:00 17.41667 C 97.0000 % 16.94 C
1965 05-06-2016 08:00:00 17.76667 C 97.0000 % 17.28 C
1966 05-06-2016 09:00:00 18.175 C 96.9167 % 17.68 C
1967 05-06-2016 10:00:00 18.71667 C 95.7500 % 18.02 C
1968 05-06-2016 11:00:00 19.66667 C 93.6667 % 18.62 C
1969 05-06-2016 12:00:00 21.20833 C 86.9167 % 18.94 C
1970 05-06-2016 13:00:00 23.375 C 77.1667 % 19.15 C
1971 05-06-2016 14:00:00 24.575 C 67.3333 % 18.12 C
1972 05-06-2016 15:00:00 25.7 C 65.0833 % 18.65 C
1973 05-06-2016 16:00:00 23.66667 C 78.0833 % 19.62 C
1974 05-06-2016 17:00:00 21.45833 C 81.8333 % 18.22 C
1975 05-06-2016 18:00:00 22.56667 C 73.4167 % 17.57 C
Sensor: Nr:Datum:Temp:Feuchte:Taupunkt:
Aussen-T/F 1976 05-06-2016 19:00:00 21.45833 C 78.1667 % 17.5 C
1977 05-06-2016 20:00:00 18.4 C 88.5000 % 16.47 C
1978 05-06-2016 21:00:00 17.14167 C 93.3333 % 16.06 C
1979 05-06-2016 22:00:00 16.25 C 94.0000 % 15.28 C
1980 05-06-2016 23:00:00 15.43333 C 94.2500 % 14.51 C
1981 06-06-2016 00:00:00 15.04167 C 94.7500 % 14.21 C
1982 06-06-2016 01:00:00 14.5 C 95.0833 % 13.72 C
1983 06-06-2016 02:00:00 14.39167 C 96.0833 % 13.78 C
1984 06-06-2016 03:00:00 14.91667 C 96.0000 % 14.28 C
1985 06-06-2016 04:00:00 14.88333 C 96.0833 % 14.26 C
1986 06-06-2016 05:00:00 14.4 C 96.5833 % 13.86 C
1987 06-06-2016 06:00:00 14.31667 C 97.0000 % 13.85 C
1988 06-06-2016 07:00:00 14.425 C 97.0000 % 13.95 C
1989 06-06-2016 08:00:00 14.85833 C 97.0000 % 14.39 C
1990 06-06-2016 09:00:00 15.45 C 96.9167 % 14.96 C
1991 06-06-2016 10:00:00 17.24167 C 93.5833 % 16.2 C
1992 06-06-2016 11:00:00 19.64167 C 88.0833 % 17.61 C
1993 06-06-2016 12:00:00 21.71667 C 84.4167 % 18.97 C
1994 06-06-2016 13:00:00 23.80833 C 75.2500 % 19.16 C
1995 06-06-2016 14:00:00 25.3 C 70.4167 % 19.53 C
1996 06-06-2016 15:00:00 25.09167 C 70.8333 % 19.42 C
1997 06-06-2016 16:00:00 22.25833 C 75.5833 % 17.74 C
1998 06-06-2016 17:00:00 24.15 C 73.3333 % 19.08 C
1999 06-06-2016 18:00:00 24.35833 C 77.2500 % 20.12 C
2000 06-06-2016 19:00:00 24.45833 C 77.3333 % 20.23 C
Sensor: Nr:Datum:Temp:Feuchte:Taupunkt:
Aussen-T/F 2001 06-06-2016 20:00:00 25.55 C 74.2500 % 20.62 C
2002 06-06-2016 21:00:00 21.95833 C 84.5833 % 19.24 C
2003 06-06-2016 22:00:00 19.675 C 89.4167 % 17.88 C
2004 06-06-2016 23:00:00 18.11667 C 90.9167 % 16.61 C
2005 07-06-2016 00:00:00 16.89167 C 91.9167 % 15.57 C
2006 07-06-2016 01:00:00 16.05833 C 93.4167 % 15 C
2007 07-06-2016 02:00:00 15.4 C 94.1667 % 14.47 C
2008 07-06-2016 03:00:00 14.94167 C 94.9167 % 14.13 C
2009 07-06-2016 04:00:00 14.41667 C 95.1667 % 13.65 C
2010 07-06-2016 05:00:00 13.88333 C 95.8333 % 13.23 C
2011 07-06-2016 06:00:00 14.41667 C 96.5000 % 13.87 C
2012 07-06-2016 07:00:00 15.04167 C 97.0000 % 14.57 C
2013 07-06-2016 08:00:00 15.475 C 97.0000 % 15 C
2014 07-06-2016 09:00:00 16.575 C 97.0000 % 16.1 C
2015 07-06-2016 10:00:00 19.40833 C 93.2500 % 18.29 C
2016 07-06-2016 11:00:00 21.80833 C 83.3333 % 18.86 C
2017 07-06-2016 12:00:00 24.075 C 67.4167 % 17.66 C
2018 07-06-2016 13:00:00 25.53333 C 54.1667 % 15.59 C
2019 07-06-2016 14:00:00 25.63333 C 62.3333 % 17.89 C
2020 07-06-2016 15:00:00 25.36667 C 71.6667 % 19.88 C
2021 07-06-2016 16:00:00 27.08333 C 63.5000 % 19.56 C
2022 07-06-2016 17:00:00 25.85833 C 67.3333 % 19.34 C
2023 07-06-2016 18:00:00 26 C 63.6667 % 18.58 C
2024 07-06-2016 19:00:00 23.96667 C 70.8333 % 18.35 C
2025 07-06-2016 20:00:00 21.23333 C 80.2500 % 17.69 C
Sensor: Nr:Datum:Temp:Feuchte:Taupunkt:
Aussen-T/F 2026 07-06-2016 21:00:00 20.10833 C 80.9167 % 16.73 C
2027 07-06-2016 22:00:00 19.93333 C 77.3333 % 15.85 C
2028 07-06-2016 23:00:00 18.10833 C 82.9167 % 15.16 C
2029 08-06-2016 00:00:00 17.5 C 84.3333 % 14.83 C
2030 08-06-2016 01:00:00 17.00833 C 86.5000 % 14.74 C
2031 08-06-2016 02:00:00 16.56667 C 89.6667 % 14.86 C
2032 08-06-2016 03:00:00 16.51667 C 89.9167 % 14.86 C
2033 08-06-2016 04:00:00 16.35 C 90.5833 % 14.81 C
2034 08-06-2016 05:00:00 16.325 C 91.4167 % 14.92 C
2035 08-06-2016 06:00:00 16.23333 C 93.2500 % 15.14 C
2036 08-06-2016 07:00:00 16.50833 C 94.5000 % 15.62 C
2037 08-06-2016 08:00:00 17.44167 C 93.6667 % 16.41 C
2038 08-06-2016 09:00:00 18.30833 C 90.0000 % 16.64 C
2039 08-06-2016 10:00:00 18.85833 C 86.8333 % 16.62 C
2040 08-06-2016 11:00:00 19.56667 C 82.9167 % 16.59 C
2041 08-06-2016 12:00:00 20.18333 C 81.1667 % 16.85 C
2042 08-06-2016 13:00:00 20.8 C 78.9167 % 17.01 C
2043 08-06-2016 14:00:00 22.13333 C 73.2500 % 17.12 C
2044 08-06-2016 15:00:00 23.89167 C 65.6667 % 17.07 C
2045 08-06-2016 16:00:00 24.94167 C 57.4167 % 15.95 C
2046 08-06-2016 17:00:00 24.675 C 55.0000 % 15.03 C
2047 08-06-2016 18:00:00 24.41667 C 54.0833 % 14.53 C
2048 08-06-2016 19:00:00 24.025 C 53.0000 % 13.86 C
2049 08-06-2016 20:00:00 22.7 C 53.5000 % 12.78 C
2050 08-06-2016 21:00:00 20.49167 C 57.3333 % 11.78 C
Sensor: Nr:Datum:Temp:Feuchte:Taupunkt:
Aussen-T/F 2051 08-06-2016 22:00:00 17.79167 C 71.0000 % 12.47 C
2052 08-06-2016 23:00:00 16.29167 C 80.0833 % 12.85 C
2053 09-06-2016 00:00:00 15.31667 C 83.5833 % 12.55 C
2054 09-06-2016 01:00:00 15.06667 C 86.7500 % 12.88 C
2055 09-06-2016 02:00:00 14.84167 C 88.5833 % 12.97 C
2056 09-06-2016 03:00:00 14.71667 C 91.0833 % 13.28 C
2057 09-06-2016 04:00:00 14.6 C 90.0000 % 12.98 C
2058 09-06-2016 05:00:00 14.58333 C 89.2500 % 12.83 C
2059 09-06-2016 06:00:00 14.6 C 87.2500 % 12.51 C
2060 09-06-2016 07:00:00 14.725 C 85.4167 % 12.31 C
2061 09-06-2016 08:00:00 15.09167 C 81.0000 % 11.86 C
2062 09-06-2016 09:00:00 15.24167 C 78.0000 % 11.43 C
2063 09-06-2016 10:00:00 16.2 C 73.4167 % 11.45 C
2064 09-06-2016 11:00:00 16.96667 C 68.6667 % 11.17 C
2065 09-06-2016 12:00:00 17.50833 C 65.0833 % 10.88 C
2066 09-06-2016 13:00:00 18.60833 C 59.5833 % 10.59 C
2067 09-06-2016 14:00:00 19.56667 C 55.7500 % 10.49 C
2068 09-06-2016 15:00:00 20.90833 C 53.1667 % 11.02 C
2069 09-06-2016 16:00:00 22.26667 C 49.9167 % 11.32 C
2070 09-06-2016 17:00:00 22.94167 C 48.3333 % 11.46 C
2071 09-06-2016 18:00:00 22.59167 C 48.5833 % 11.21 C
2072 09-06-2016 19:00:00 21.85833 C 51.4167 % 11.4 C
2073 09-06-2016 20:00:00 20.59167 C 54.0833 % 10.99 C
2074 09-06-2016 21:00:00 17.775 C 67.6667 % 11.72 C
2075 09-06-2016 22:00:00 15.26667 C 77.2500 % 11.31 C
Sensor: Nr:Datum:Temp:Feuchte:Taupunkt:
Aussen-T/F 2076 09-06-2016 23:00:00 13.825 C 83.5000 % 11.08 C
2077 10-06-2016 00:00:00 12.36667 C 88.3333 % 10.49 C
2078 10-06-2016 01:00:00 11.7 C 90.5000 % 10.2 C
2079 10-06-2016 02:00:00 11.11667 C 91.7500 % 9.83 C
2080 10-06-2016 03:00:00 10.55 C 92.8333 % 9.44 C
2081 10-06-2016 04:00:00 10.025 C 93.0000 % 8.95 C
2082 10-06-2016 05:00:00 9.43333 C 93.8333 % 8.49 C
2083 10-06-2016 06:00:00 9.59167 C 94.8333 % 8.81 C
2084 10-06-2016 07:00:00 10.23333 C 95.0000 % 9.47 C
2085 10-06-2016 08:00:00 11.425 C 94.5000 % 10.57 C
2086 10-06-2016 09:00:00 13.01667 C 90.2500 % 11.46 C
2087 10-06-2016 10:00:00 16.63333 C 74.5833 % 12.1 C
2088 10-06-2016 11:00:00 17.925 C 59.8333 % 10.01 C
2089 10-06-2016 12:00:00 18.85833 C 53.5833 % 9.24 C
2090 10-06-2016 13:00:00 20.06667 C 53.5000 % 10.34 C
2091 10-06-2016 14:00:00 21.18333 C 53.8333 % 11.47 C
2092 10-06-2016 15:00:00 22.45 C 50.4167 % 11.64 C
2093 10-06-2016 16:00:00 23.68333 C 46.6667 % 11.6 C
2094 10-06-2016 17:00:00 22.84167 C 46.8333 % 10.89 C
2095 10-06-2016 18:00:00 23.10833 C 42.8333 % 9.8 C
2096 10-06-2016 19:00:00 22.98333 C 41.3333 % 9.15 C
2097 10-06-2016 20:00:00 20.34167 C 57.5833 % 11.7 C
2098 10-06-2016 21:00:00 17.25833 C 65.9167 % 10.83 C
2099 10-06-2016 22:00:00 16.15833 C 66.8333 % 9.99 C
2100 10-06-2016 23:00:00 14.775 C 76.0833 % 10.61 C
Sensor: Nr:Datum:Temp:Feuchte:Taupunkt:
Aussen-T/F 2101 11-06-2016 00:00:00 14.15 C 81.3333 % 11 C
2102 11-06-2016 01:00:00 13.5 C 83.9167 % 10.84 C
2103 11-06-2016 02:00:00 12.775 C 86.2500 % 10.54 C
2104 11-06-2016 03:00:00 12.71667 C 88.0000 % 10.78 C
2105 11-06-2016 04:00:00 12.625 C 88.5833 % 10.79 C
2106 11-06-2016 05:00:00 12.25833 C 89.7500 % 10.63 C
2107 11-06-2016 06:00:00 12.46667 C 90.5833 % 10.97 C
2108 11-06-2016 07:00:00 13.425 C 88.7500 % 11.61 C
2109 11-06-2016 08:00:00 14.65 C 83.3333 % 11.86 C
2110 11-06-2016 09:00:00 16.03333 C 79.1667 % 12.43 C
2111 11-06-2016 10:00:00 17.66667 C 74.4167 % 13.06 C
2112 11-06-2016 11:00:00 19.19167 C 66.0000 % 12.69 C
2113 11-06-2016 12:00:00 19.93333 C 63.6667 % 12.84 C
2114 11-06-2016 13:00:00 20.75833 C 61.5000 % 13.09 C
2115 11-06-2016 14:00:00 21.70833 C 54.8333 % 12.23 C
2116 11-06-2016 15:00:00 22.35833 C 53.3333 % 12.41 C
2117 11-06-2016 16:00:00 22.7 C 56.8333 % 13.7 C
2118 11-06-2016 17:00:00 23.075 C 55.8333 % 13.78 C
2119 11-06-2016 18:00:00 23.275 C 53.4167 % 13.28 C
2120 11-06-2016 19:00:00 22.88333 C 64.0833 % 15.73 C
2121 11-06-2016 20:00:00 20.625 C 74.9167 % 16.02 C
2122 11-06-2016 21:00:00 18.49167 C 80.8333 % 15.14 C
2123 11-06-2016 22:00:00 17.51667 C 82.6667 % 14.54 C
2124 11-06-2016 23:00:00 16.825 C 86.0833 % 14.49 C
2125 12-06-2016 00:00:00 16.43333 C 87.1667 % 14.29 C
Sensor: Nr:Datum:Temp:Feuchte:Taupunkt:
Aussen-T/F 2126 12-06-2016 01:00:00 16.325 C 88.0833 % 14.35 C
2127 12-06-2016 02:00:00 15.95833 C 89.4167 % 14.22 C
2128 12-06-2016 03:00:00 15.7 C 91.3333 % 14.29 C
2129 12-06-2016 04:00:00 15.45833 C 92.8333 % 14.3 C
2130 12-06-2016 05:00:00 15.2 C 93.8333 % 14.21 C
2131 12-06-2016 06:00:00 15.2 C 94.4167 % 14.31 C
2132 12-06-2016 07:00:00 15.825 C 95.0000 % 15.03 C
2133 12-06-2016 08:00:00 16.34167 C 94.5000 % 15.46 C
2134 12-06-2016 09:00:00 17.075 C 89.7500 % 15.38 C
2135 12-06-2016 10:00:00 18.225 C 85.0000 % 15.66 C
2136 12-06-2016 11:00:00 18.84167 C 79.9167 % 15.3 C
2137 12-06-2016 12:00:00 19.08333 C 78.1667 % 15.19 C
2138 12-06-2016 13:00:00 18.825 C 78.5833 % 15.02 C
2139 12-06-2016 14:00:00 19.225 C 76.5833 % 15.01 C
2140 12-06-2016 15:00:00 20.325 C 73.5000 % 15.43 C
2141 12-06-2016 16:00:00 21.275 C 70.6667 % 15.73 C
2142 12-06-2016 17:00:00 21.125 C 70.9167 % 15.64 C
2143 12-06-2016 18:00:00 17.55833 C 88.2500 % 15.59 C
2144 12-06-2016 19:00:00 17.08333 C 92.7500 % 15.9 C
2145 12-06-2016 20:00:00 16.2 C 93.0833 % 15.08 C
2146 12-06-2016 21:00:00 15.14167 C 93.8333 % 14.16 C
2147 12-06-2016 22:00:00 14.93333 C 95.1667 % 14.17 C
2148 12-06-2016 23:00:00 15.03333 C 95.0833 % 14.25 C
2149 13-06-2016 00:00:00 14.60833 C 95.3333 % 13.87 C
2150 13-06-2016 01:00:00 14.45833 C 96.0000 % 13.83 C
Sensor: Nr:Datum:Temp:Feuchte:Taupunkt:
Aussen-T/F 2151 13-06-2016 02:00:00 14.61667 C 96.0000 % 13.99 C
2152 13-06-2016 03:00:00 14.61667 C 96.0000 % 13.99 C
2153 13-06-2016 04:00:00 14.39167 C 96.0000 % 13.76 C
2154 13-06-2016 05:00:00 14.39167 C 96.3333 % 13.82 C
2155 13-06-2016 06:00:00 14.875 C 97.0000 % 14.4 C
2156 13-06-2016 07:00:00 15.25833 C 97.0000 % 14.79 C
2157 13-06-2016 08:00:00 15.89167 C 97.0000 % 15.42 C
2158 13-06-2016 09:00:00 16.825 C 96.9167 % 16.33 C
2159 13-06-2016 10:00:00 17.175 C 95.8333 % 16.5 C
2160 13-06-2016 11:00:00 17.81667 C 94.5000 % 16.92 C
2161 13-06-2016 12:00:00 17.39167 C 92.9167 % 16.23 C
2162 13-06-2016 13:00:00 17.43333 C 93.7500 % 16.42 C
2163 13-06-2016 14:00:00 18.68333 C 91.9167 % 17.34 C
2164 13-06-2016 15:00:00 18 C 91.5000 % 16.59 C
2165 13-06-2016 16:00:00 18.20833 C 91.7500 % 16.84 C
2166 13-06-2016 17:00:00 17.83333 C 92.4167 % 16.59 C
2167 13-06-2016 18:00:00 16.7 C 92.5000 % 15.48 C
2168 13-06-2016 19:00:00 15.825 C 94.8333 % 15 C
2169 13-06-2016 20:00:00 14.79167 C 94.2500 % 13.88 C
2170 13-06-2016 21:00:00 14.575 C 95.0000 % 13.78 C
2171 13-06-2016 22:00:00 14.24167 C 95.5833 % 13.55 C
2172 13-06-2016 23:00:00 14.06667 C 96.0000 % 13.44 C
2173 14-06-2016 00:00:00 14.00833 C 96.0000 % 13.38 C
2174 14-06-2016 01:00:00 13.74167 C 96.2500 % 13.16 C
2175 14-06-2016 02:00:00 13.5 C 97.0000 % 13.03 C
Sensor: Nr:Datum:Temp:Feuchte:Taupunkt:
Aussen-T/F 2176 14-06-2016 03:00:00 13.6 C 97.0000 % 13.13 C
2177 14-06-2016 04:00:00 13.525 C 97.0000 % 13.06 C
2178 14-06-2016 05:00:00 13.55 C 97.0000 % 13.08 C
2179 14-06-2016 06:00:00 13.725 C 97.0000 % 13.26 C
2180 14-06-2016 07:00:00 14.39167 C 97.0000 % 13.92 C
2181 14-06-2016 08:00:00 14.76667 C 96.7500 % 14.26 C
2182 14-06-2016 09:00:00 15.55833 C 92.7500 % 14.39 C
2183 14-06-2016 10:00:00 16.98333 C 86.0000 % 14.63 C
2184 14-06-2016 11:00:00 18.03333 C 82.3333 % 14.98 C
2185 14-06-2016 12:00:00 19.025 C 76.2500 % 14.75 C
2186 14-06-2016 13:00:00 18.98333 C 77.5833 % 14.98 C
2187 14-06-2016 14:00:00 19.24167 C 75.7500 % 14.86 C
2188 14-06-2016 15:00:00 19.46667 C 75.1667 % 14.95 C
2189 14-06-2016 16:00:00 18.2 C 84.1667 % 15.48 C
2190 14-06-2016 17:00:00 18.93333 C 81.1667 % 15.63 C
2191 14-06-2016 18:00:00 18.75 C 78.4167 % 14.92 C
2192 14-06-2016 19:00:00 19.43333 C 78.0000 % 15.5 C
2193 14-06-2016 20:00:00 18.55833 C 80.0000 % 15.04 C
2194 14-06-2016 21:00:00 16.43333 C 87.9167 % 14.43 C
2195 14-06-2016 22:00:00 15.50833 C 90.0000 % 13.88 C
2196 14-06-2016 23:00:00 14.86667 C 91.9167 % 13.57 C
2197 15-06-2016 00:00:00 14.15833 C 92.5833 % 12.97 C
2198 15-06-2016 01:00:00 13.58333 C 93.0000 % 12.47 C
2199 15-06-2016 02:00:00 13.23333 C 93.9167 % 12.28 C
2200 15-06-2016 03:00:00 13.26667 C 94.0000 % 12.32 C
Sensor: Nr:Datum:Temp:Feuchte:Taupunkt:
Aussen-T/F 2201 15-06-2016 04:00:00 12.91667 C 94.0000 % 11.97 C
2202 15-06-2016 05:00:00 12.39167 C 94.3333 % 11.51 C
2203 15-06-2016 06:00:00 12.73333 C 95.2500 % 11.99 C
2204 15-06-2016 07:00:00 13.63333 C 95.2500 % 12.89 C
2205 15-06-2016 08:00:00 14.21667 C 94.0833 % 13.28 C
2206 15-06-2016 09:00:00 14.84167 C 92.9167 % 13.71 C
2207 15-06-2016 10:00:00 15.35833 C 90.5000 % 13.81 C
2208 15-06-2016 11:00:00 16.55833 C 84.0833 % 13.86 C
2209 15-06-2016 12:00:00 17.3 C 81.4167 % 14.09 C
2210 15-06-2016 13:00:00 16.98333 C 79.9167 % 13.49 C
2211 15-06-2016 14:00:00 17.6 C 79.0833 % 13.93 C
2212 15-06-2016 15:00:00 18.3 C 78.5833 % 14.51 C
2213 15-06-2016 16:00:00 18.05833 C 76.0000 % 13.76 C
2214 15-06-2016 17:00:00 19.56667 C 69.0833 % 13.75 C
2215 15-06-2016 18:00:00 20.95833 C 61.9167 % 13.38 C
2216 15-06-2016 19:00:00 18.14167 C 76.0000 % 13.85 C
2217 15-06-2016 20:00:00 15.79167 C 91.0833 % 14.34 C
2218 15-06-2016 21:00:00 14.73333 C 90.9167 % 13.27 C
2219 15-06-2016 22:00:00 13.36667 C 93.7500 % 12.38 C
2220 15-06-2016 23:00:00 12.49167 C 94.7500 % 11.67 C
2221 16-06-2016 00:00:00 11.875 C 95.0000 % 11.1 C
2222 16-06-2016 01:00:00 11.33333 C 95.4167 % 10.63 C
2223 16-06-2016 02:00:00 10.8 C 96.0000 % 10.19 C
2224 16-06-2016 03:00:00 10.69167 C 96.0000 % 10.08 C
2225 16-06-2016 04:00:00 10.925 C 96.3333 % 10.36 C
Sensor: Nr:Datum:Temp:Feuchte:Taupunkt:
Aussen-T/F 2226 16-06-2016 05:00:00 10.70833 C 96.6667 % 10.2 C
2227 16-06-2016 06:00:00 10.70833 C 96.8333 % 10.23 C
2228 16-06-2016 07:00:00 10.84167 C 97.0000 % 10.38 C
2229 16-06-2016 08:00:00 11.075 C 97.0000 % 10.62 C
2230 16-06-2016 09:00:00 11.90833 C 97.0000 % 11.45 C
2231 16-06-2016 10:00:00 12.86667 C 97.0000 % 12.4 C
2232 16-06-2016 11:00:00 14.05 C 96.5000 % 13.5 C
2233 16-06-2016 12:00:00 15.90833 C 91.1667 % 14.47 C
2234 16-06-2016 13:00:00 16.16667 C 90.9167 % 14.68 C
2235 16-06-2016 14:00:00 16.50833 C 90.0000 % 14.86 C
2236 16-06-2016 15:00:00 16.95833 C 89.4167 % 15.21 C
2237 16-06-2016 16:00:00 17.30833 C 87.5000 % 15.21 C
2238 16-06-2016 17:00:00 15.6 C 91.1667 % 14.16 C
2239 16-06-2016 18:00:00 15.25833 C 94.2500 % 14.34 C
2240 16-06-2016 19:00:00 17.48333 C 87.0000 % 15.3 C
2241 16-06-2016 20:00:00 17.25833 C 88.4167 % 15.33 C
2242 16-06-2016 21:00:00 16.18333 C 91.1667 % 14.74 C
2243 16-06-2016 22:00:00 14.33333 C 93.3333 % 13.27 C
2244 16-06-2016 23:00:00 13.8 C 95.0833 % 13.03 C
2245 17-06-2016 00:00:00 13.58333 C 96.0000 % 12.96 C
2246 17-06-2016 01:00:00 13.34167 C 96.0000 % 12.72 C
2247 17-06-2016 02:00:00 12.91667 C 96.0000 % 12.29 C
2248 17-06-2016 03:00:00 12.63333 C 96.0000 % 12.01 C
2249 17-06-2016 04:00:00 12.44167 C 96.0833 % 11.84 C
2250 17-06-2016 05:00:00 12.225 C 96.9167 % 11.75 C
Sensor: Nr:Datum:Temp:Feuchte:Taupunkt:
Aussen-T/F 2251 17-06-2016 06:00:00 12.16667 C 96.5833 % 11.64 C
2252 17-06-2016 07:00:00 12.34167 C 95.9167 % 11.71 C
2253 17-06-2016 08:00:00 12.79167 C 94.5833 % 11.94 C
2254 17-06-2016 09:00:00 14.04167 C 91.2500 % 12.64 C
2255 17-06-2016 10:00:00 15.38333 C 88.0833 % 13.42 C
2256 17-06-2016 11:00:00 16.18333 C 85.5833 % 13.77 C
2257 17-06-2016 12:00:00 16.99167 C 81.7500 % 13.85 C
2258 17-06-2016 13:00:00 18.05833 C 77.7500 % 14.12 C
2259 17-06-2016 14:00:00 18.26667 C 77.9167 % 14.35 C
2260 17-06-2016 15:00:00 16.675 C 85.5833 % 14.25 C
2261 17-06-2016 16:00:00 17.26667 C 86.6667 % 15.02 C
2262 17-06-2016 17:00:00 17.675 C 86.8333 % 15.45 C
2263 17-06-2016 18:00:00 17.84167 C 84.9167 % 15.27 C
2264 17-06-2016 19:00:00 15.44167 C 91.0000 % 13.98 C
2265 17-06-2016 20:00:00 14.95833 C 93.5000 % 13.92 C
2266 17-06-2016 21:00:00 14.325 C 94.5833 % 13.47 C
2267 17-06-2016 22:00:00 13 C 94.4167 % 12.12 C
2268 17-06-2016 23:00:00 11.98333 C 95.0000 % 11.21 C
2269 18-06-2016 00:00:00 11.65 C 95.9167 % 11.02 C
2270 18-06-2016 01:00:00 11.33333 C 96.0000 % 10.72 C
2271 18-06-2016 02:00:00 11 C 96.0000 % 10.39 C
2272 18-06-2016 03:00:00 10.76667 C 96.3333 % 10.21 C
2273 18-06-2016 04:00:00 10.79167 C 97.0000 % 10.34 C
2274 18-06-2016 05:00:00 10.95 C 97.0000 % 10.49 C
2275 18-06-2016 06:00:00 11.51667 C 97.0000 % 11.06 C
Sensor: Nr:Datum:Temp:Feuchte:Taupunkt:
Aussen-T/F 2276 18-06-2016 07:00:00 12.19167 C 97.0000 % 11.73 C
2277 18-06-2016 08:00:00 13.34167 C 97.0000 % 12.88 C
2278 18-06-2016 09:00:00 13.94167 C 96.5000 % 13.39 C
2279 18-06-2016 10:00:00 15.15 C 92.9167 % 14.01 C
2280 18-06-2016 11:00:00 16.10833 C 88.5000 % 14.21 C
2281 18-06-2016 12:00:00 16.85 C 84.0833 % 14.15 C
2282 18-06-2016 13:00:00 18.26667 C 78.0833 % 14.38 C
2283 18-06-2016 14:00:00 19.3 C 74.6667 % 14.69 C
2284 18-06-2016 15:00:00 19.90833 C 71.0833 % 14.51 C
2285 18-06-2016 16:00:00 20.375 C 66.9167 % 14.03 C
2286 18-06-2016 17:00:00 18.09167 C 76.0833 % 13.81 C
2287 18-06-2016 18:00:00 16.625 C 77.5833 % 12.69 C
2288 18-06-2016 19:00:00 17.60833 C 76.5000 % 13.43 C
2289 18-06-2016 20:00:00 16.54167 C 84.9167 % 14 C
2290 18-06-2016 21:00:00 15.30833 C 86.9167 % 13.14 C
2291 18-06-2016 22:00:00 14.79167 C 85.3333 % 12.36 C
2292 18-06-2016 23:00:00 13.95833 C 89.5833 % 12.28 C
2293 19-06-2016 00:00:00 13.625 C 89.0833 % 11.86 C
2294 19-06-2016 01:00:00 13.41667 C 89.0833 % 11.66 C
2295 19-06-2016 02:00:00 13.2 C 91.0000 % 11.76 C
2296 19-06-2016 03:00:00 13.2 C 89.5000 % 11.51 C
2297 19-06-2016 04:00:00 13.21667 C 88.3333 % 11.33 C
2298 19-06-2016 05:00:00 13.10833 C 89.7500 % 11.46 C
2299 19-06-2016 06:00:00 13.08333 C 90.4167 % 11.55 C
2300 19-06-2016 07:00:00 13.10833 C 92.1667 % 11.87 C
Sensor: Nr:Datum:Temp:Feuchte:Taupunkt:
Aussen-T/F 2301 19-06-2016 08:00:00 13.14167 C 90.7500 % 11.66 C
2302 19-06-2016 09:00:00 13.83333 C 86.7500 % 11.66 C
2303 19-06-2016 10:00:00 14.85 C 79.1667 % 11.28 C
2304 19-06-2016 11:00:00 15.2 C 76.5000 % 11.1 C
2305 19-06-2016 12:00:00 15.9 C 72.6667 % 11 C
2306 19-06-2016 13:00:00 16.375 C 70.5000 % 11 C
2307 19-06-2016 14:00:00 17.39167 C 65.0833 % 10.77 C
2308 19-06-2016 15:00:00 18.075 C 63.7500 % 11.11 C
2309 19-06-2016 16:00:00 19.225 C 57.4167 % 10.61 C
2310 19-06-2016 17:00:00 19.98333 C 54.0833 % 10.42 C
2311 19-06-2016 18:00:00 20.29167 C 50.9167 % 9.81 C
2312 19-06-2016 19:00:00 19.99167 C 50.2500 % 9.34 C
2313 19-06-2016 20:00:00 18.86667 C 52.0833 % 8.83 C
2314 19-06-2016 21:00:00 15.93333 C 68.7500 % 10.2 C
2315 19-06-2016 22:00:00 13.175 C 79.0000 % 9.62 C
2316 19-06-2016 23:00:00 11.475 C 86.1667 % 9.25 C
2317 20-06-2016 00:00:00 10.25833 C 89.5833 % 8.62 C
2318 20-06-2016 01:00:00 9.53333 C 91.5000 % 8.22 C
2319 20-06-2016 02:00:00 8.95833 C 92.5000 % 7.81 C
2320 20-06-2016 03:00:00 8.40833 C 93.5000 % 7.42 C
2321 20-06-2016 04:00:00 8.15 C 94.0000 % 7.24 C
2322 20-06-2016 05:00:00 7.75833 C 94.4167 % 6.92 C
2323 20-06-2016 06:00:00 7.85833 C 95.2500 % 7.15 C
2324 20-06-2016 07:00:00 8.5 C 96.0000 % 7.9 C
2325 20-06-2016 08:00:00 9.65 C 96.0000 % 9.04 C
Sensor: Nr:Datum:Temp:Feuchte:Taupunkt:
Aussen-T/F 2326 20-06-2016 09:00:00 12.16667 C 92.4167 % 10.97 C
2327 20-06-2016 10:00:00 15.66667 C 79.5833 % 12.15 C
2328 20-06-2016 11:00:00 18.425 C 59.8333 % 10.48 C
2329 20-06-2016 12:00:00 19.44167 C 59.1667 % 11.27 C
2330 20-06-2016 13:00:00 20.93333 C 57.2500 % 12.17 C
2331 20-06-2016 14:00:00 22.075 C 55.8333 % 12.85 C
2332 20-06-2016 15:00:00 22.3 C 56.6667 % 13.28 C
2333 20-06-2016 16:00:00 21.78333 C 60.4167 % 13.78 C
2334 20-06-2016 17:00:00 21.73333 C 62.3333 % 14.22 C
2335 20-06-2016 18:00:00 20.04167 C 72.2500 % 14.89 C
2336 20-06-2016 19:00:00 16.775 C 89.5000 % 15.04 C
2337 20-06-2016 20:00:00 15.79167 C 92.7500 % 14.62 C
2338 20-06-2016 21:00:00 15.04167 C 94.2500 % 14.12 C
2339 20-06-2016 22:00:00 14.825 C 95.0000 % 14.03 C
2340 20-06-2016 23:00:00 14.8 C 95.5000 % 14.09 C
2341 21-06-2016 00:00:00 15.075 C 95.6667 % 14.39 C
2342 21-06-2016 01:00:00 15.275 C 95.0000 % 14.48 C
2343 21-06-2016 02:00:00 15.25 C 95.2500 % 14.49 C
2344 21-06-2016 03:00:00 15.2 C 96.0000 % 14.57 C
2345 21-06-2016 04:00:00 15.2 C 96.0000 % 14.57 C
2346 21-06-2016 05:00:00 15.15 C 96.0000 % 14.52 C
2347 21-06-2016 06:00:00 14.99167 C 96.1667 % 14.39 C
2348 21-06-2016 07:00:00 15.45 C 96.7500 % 14.94 C
2349 21-06-2016 08:00:00 16.61667 C 94.6667 % 15.76 C
2350 21-06-2016 09:00:00 17.725 C 89.4167 % 15.96 C
Sensor: Nr:Datum:Temp:Feuchte:Taupunkt:
Aussen-T/F 2351 21-06-2016 10:00:00 18.45833 C 85.7500 % 16.03 C
2352 21-06-2016 11:00:00 19.525 C 81.6667 % 16.31 C
2353 21-06-2016 12:00:00 20.39167 C 78.8333 % 16.59 C
2354 21-06-2016 13:00:00 21.14167 C 76.4167 % 16.83 C
2355 21-06-2016 14:00:00 21.98333 C 72.5000 % 16.81 C
2356 21-06-2016 15:00:00 23.24167 C 69.0833 % 17.26 C
2357 21-06-2016 16:00:00 22.89167 C 77.0833 % 18.66 C
2358 21-06-2016 17:00:00 22.74167 C 77.4167 % 18.59 C
2359 21-06-2016 18:00:00 20.31667 C 86.8333 % 18.05 C
2360 21-06-2016 19:00:00 19.45833 C 90.9167 % 17.94 C
2361 21-06-2016 20:00:00 18.575 C 92.4167 % 17.32 C
2362 21-06-2016 21:00:00 17.825 C 93.7500 % 16.8 C
2363 21-06-2016 22:00:00 17.50833 C 94.8333 % 16.67 C
2364 21-06-2016 23:00:00 17.225 C 95.0000 % 16.42 C
2365 22-06-2016 00:00:00 17.04167 C 95.3333 % 16.29 C
2366 22-06-2016 01:00:00 16.925 C 96.0000 % 16.28 C
2367 22-06-2016 02:00:00 17.08333 C 96.0000 % 16.44 C
2368 22-06-2016 03:00:00 16.91667 C 96.0000 % 16.27 C
2369 22-06-2016 04:00:00 16.83333 C 96.0000 % 16.19 C
2370 22-06-2016 05:00:00 16.725 C 96.3333 % 16.14 C
2371 22-06-2016 06:00:00 17.05 C 97.0000 % 16.57 C
2372 22-06-2016 07:00:00 17.675 C 97.0000 % 17.19 C
2373 22-06-2016 08:00:00 18.53333 C 96.5000 % 17.97 C
2374 22-06-2016 09:00:00 19.85833 C 91.5833 % 18.45 C
2375 22-06-2016 10:00:00 21.01667 C 86.2500 % 18.63 C
Sensor: Nr:Datum:Temp:Feuchte:Taupunkt:
Aussen-T/F 2376 22-06-2016 11:00:00 22.1 C 82.3333 % 18.95 C
2377 22-06-2016 12:00:00 22.78333 C 83.0000 % 19.74 C
2378 22-06-2016 13:00:00 23.225 C 84.4167 % 20.45 C
2379 22-06-2016 14:00:00 23.98333 C 80.5000 % 20.42 C
2380 22-06-2016 15:00:00 24.99167 C 76.1667 % 20.5 C
2381 22-06-2016 16:00:00 25.025 C 78.7500 % 21.07 C
2382 22-06-2016 17:00:00 25.34167 C 80.0000 % 21.64 C
2383 22-06-2016 18:00:00 25.3 C 79.7500 % 21.55 C
2384 22-06-2016 19:00:00 26.125 C 74.4167 % 21.21 C
2385 22-06-2016 20:00:00 24.85 C 78.3333 % 20.82 C
2386 22-06-2016 21:00:00 22.03333 C 84.5000 % 19.3 C
2387 22-06-2016 22:00:00 20.08333 C 89.7500 % 18.35 C
2388 22-06-2016 23:00:00 18.85 C 92.0833 % 17.54 C
2389 23-06-2016 00:00:00 17.80833 C 93.8333 % 16.8 C
2390 23-06-2016 01:00:00 17.225 C 94.7500 % 16.38 C
2391 23-06-2016 02:00:00 16.66667 C 95.0833 % 15.88 C
2392 23-06-2016 03:00:00 16.06667 C 95.4167 % 15.33 C
2393 23-06-2016 04:00:00 15.60833 C 96.0000 % 14.97 C
2394 23-06-2016 05:00:00 15.29167 C 96.0000 % 14.66 C
2395 23-06-2016 06:00:00 15.74167 C 96.8333 % 15.24 C
2396 23-06-2016 07:00:00 16.4 C 97.0000 % 15.92 C
2397 23-06-2016 08:00:00 17.075 C 97.0000 % 16.59 C
2398 23-06-2016 09:00:00 18.38333 C 97.0000 % 17.9 C
2399 23-06-2016 10:00:00 21.39167 C 94.5833 % 20.49 C
2400 23-06-2016 11:00:00 24.84167 C 83.0000 % 21.75 C
Sensor: Nr:Datum:Temp:Feuchte:Taupunkt:
Aussen-T/F 2401 23-06-2016 12:00:00 27.01667 C 75.4167 % 22.29 C
2402 23-06-2016 13:00:00 28.53333 C 71.0833 % 22.78 C
2403 23-06-2016 14:00:00 30.13333 C 65.3333 % 22.91 C
2404 23-06-2016 15:00:00 31.575 C 62.1667 % 23.44 C
2405 23-06-2016 16:00:00 33.9 C 56.0833 % 23.9 C
2406 23-06-2016 17:00:00 34.68333 C 54.5000 % 24.15 C
2407 23-06-2016 18:00:00 34.73333 C 56.0833 % 24.68 C
2408 23-06-2016 19:00:00 33.60833 C 60.3333 % 24.85 C
2409 23-06-2016 20:00:00 30.175 C 70.2500 % 24.15 C
2410 23-06-2016 21:00:00 26.20833 C 79.0833 % 22.29 C
2411 23-06-2016 22:00:00 24.16667 C 83.5000 % 21.19 C
2412 23-06-2016 23:00:00 23.13333 C 86.2500 % 20.71 C
2413 24-06-2016 00:00:00 22.45833 C 88.9167 % 20.54 C
2414 24-06-2016 01:00:00 22.89167 C 85.0000 % 20.23 C
2415 24-06-2016 02:00:00 21.75 C 87.3333 % 19.55 C
2416 24-06-2016 03:00:00 20.725 C 89.9167 % 19.01 C
2417 24-06-2016 04:00:00 19.76667 C 92.4167 % 18.5 C
2418 24-06-2016 05:00:00 19.35 C 93.5833 % 18.29 C
2419 24-06-2016 06:00:00 19.175 C 94.0833 % 18.2 C
2420 24-06-2016 07:00:00 19.45 C 94.9167 % 18.61 C
2421 24-06-2016 08:00:00 20.425 C 94.9167 % 19.58 C
2422 24-06-2016 09:00:00 21.91667 C 93.2500 % 20.78 C
2423 24-06-2016 10:00:00 25.375 C 82.8333 % 22.24 C
2424 24-06-2016 11:00:00 26.68333 C 80.9167 % 23.13 C
2425 24-06-2016 12:00:00 25.725 C 79.1667 % 21.84 C
Sensor: Nr:Datum:Temp:Feuchte:Taupunkt:
Aussen-T/F 2426 24-06-2016 13:00:00 23.075 C 91.2500 % 21.57 C
2427 24-06-2016 14:00:00 23.45 C 91.7500 % 22.03 C
2428 24-06-2016 15:00:00 23.95833 C 83.3333 % 20.96 C
2429 24-06-2016 16:00:00 22.89167 C 89.6667 % 21.1 C
2430 24-06-2016 17:00:00 22.90833 C 92.5833 % 21.64 C
2431 24-06-2016 18:00:00 23.35833 C 91.9167 % 21.97 C
2432 24-06-2016 19:00:00 22.56667 C 93.3333 % 21.43 C
2433 24-06-2016 20:00:00 21.74167 C 94.1667 % 20.76 C
2434 24-06-2016 21:00:00 21.03333 C 95.0000 % 20.2 C
2435 24-06-2016 22:00:00 20.29167 C 95.4167 % 19.53 C
2436 24-06-2016 23:00:00 19.90833 C 95.9167 % 19.24 C
2437 25-06-2016 00:00:00 19.525 C 96.0000 % 18.87 C
2438 25-06-2016 01:00:00 19.175 C 96.0000 % 18.52 C
2439 25-06-2016 02:00:00 19.14167 C 96.0000 % 18.49 C
2440 25-06-2016 03:00:00 19.2 C 96.0000 % 18.55 C
2441 25-06-2016 04:00:00 19.06667 C 96.0000 % 18.41 C
2442 25-06-2016 05:00:00 18.91667 C 96.0000 % 18.26 C
2443 25-06-2016 06:00:00 18.625 C 96.0000 % 17.97 C
2444 25-06-2016 07:00:00 18.375 C 96.5000 % 17.81 C
2445 25-06-2016 08:00:00 18.35 C 96.8333 % 17.84 C
2446 25-06-2016 09:00:00 17.66667 C 96.4167 % 17.09 C
2447 25-06-2016 10:00:00 17.6 C 96.3333 % 17.01 C
2448 25-06-2016 11:00:00 17.01667 C 96.0000 % 16.37 C
2449 25-06-2016 12:00:00 16.66667 C 96.0000 % 16.03 C
2450 25-06-2016 13:00:00 16.21667 C 95.9167 % 15.56 C
Sensor: Nr:Datum:Temp:Feuchte:Taupunkt:
Aussen-T/F 2451 25-06-2016 14:00:00 15.94167 C 96.0000 % 15.3 C
2452 25-06-2016 15:00:00 15.79167 C 95.8333 % 15.13 C
2453 25-06-2016 16:00:00 15.48333 C 95.5000 % 14.77 C
2454 25-06-2016 17:00:00 15.45833 C 95.6667 % 14.77 C
2455 25-06-2016 18:00:00 15.675 C 95.0000 % 14.88 C
2456 25-06-2016 19:00:00 15.23333 C 95.0000 % 14.44 C
2457 25-06-2016 20:00:00 15.10833 C 96.0000 % 14.48 C
2458 25-06-2016 21:00:00 14.225 C 95.4167 % 13.5 C
2459 25-06-2016 22:00:00 13.28333 C 95.9167 % 12.65 C
2460 25-06-2016 23:00:00 12.76667 C 96.0000 % 12.15 C
2461 26-06-2016 00:00:00 12.6 C 96.7500 % 12.1 C
2462 26-06-2016 01:00:00 13.35833 C 97.0000 % 12.89 C
2463 26-06-2016 02:00:00 13.05 C 97.0000 % 12.59 C
2464 26-06-2016 03:00:00 12.75 C 97.0000 % 12.29 C
2465 26-06-2016 04:00:00 12.175 C 97.0000 % 11.71 C
2466 26-06-2016 05:00:00 11.40833 C 97.0000 % 10.95 C
2467 26-06-2016 06:00:00 11.44167 C 97.0000 % 10.98 C
2468 26-06-2016 07:00:00 12.29167 C 97.5833 % 11.92 C
2469 26-06-2016 08:00:00 13.05833 C 97.2500 % 12.63 C
2470 26-06-2016 09:00:00 13.95 C 94.6667 % 13.11 C
2471 26-06-2016 10:00:00 16.13333 C 85.0000 % 13.61 C
2472 26-06-2016 11:00:00 17.075 C 77.2500 % 13.06 C
2473 26-06-2016 12:00:00 17.90833 C 73.0000 % 13 C
2474 26-06-2016 13:00:00 19.31667 C 67.3333 % 13.11 C
2475 26-06-2016 14:00:00 19.7 C 67.5000 % 13.52 C
Sensor: Nr:Datum:Temp:Feuchte:Taupunkt:
Aussen-T/F 2476 26-06-2016 15:00:00 20.48333 C 65.6667 % 13.84 C
2477 26-06-2016 16:00:00 20.675 C 64.2500 % 13.69 C
2478 26-06-2016 17:00:00 19.44167 C 66.7500 % 13.1 C
2479 26-06-2016 18:00:00 18.675 C 73.5833 % 13.86 C
2480 26-06-2016 19:00:00 17.79167 C 75.9167 % 13.49 C
2481 26-06-2016 20:00:00 16.025 C 87.2500 % 13.91 C
2482 26-06-2016 21:00:00 14.75 C 90.6667 % 13.24 C
2483 26-06-2016 22:00:00 13.3 C 92.4167 % 12.1 C
2484 26-06-2016 23:00:00 12.61667 C 94.4167 % 11.74 C
2485 27-06-2016 00:00:00 12.34167 C 95.0000 % 11.56 C
2486 27-06-2016 01:00:00 12.15 C 95.0833 % 11.39 C
2487 27-06-2016 02:00:00 11.875 C 95.5833 % 11.19 C
2488 27-06-2016 03:00:00 12.25833 C 96.0000 % 11.64 C
2489 27-06-2016 04:00:00 12.18333 C 95.6667 % 11.51 C
2490 27-06-2016 05:00:00 11.99167 C 95.1667 % 11.24 C
2491 27-06-2016 06:00:00 11.53333 C 95.0000 % 10.76 C
2492 27-06-2016 07:00:00 11.68333 C 95.8333 % 11.04 C
2493 27-06-2016 08:00:00 13.58333 C 93.3333 % 12.53 C
2494 27-06-2016 09:00:00 15.74167 C 82.7500 % 12.82 C
2495 27-06-2016 10:00:00 16.85 C 79.9167 % 13.36 C
2496 27-06-2016 11:00:00 17.26667 C 79.6667 % 13.72 C
2497 27-06-2016 12:00:00 17.64167 C 80.1667 % 14.18 C
2498 27-06-2016 13:00:00 18.29167 C 78.4167 % 14.47 C
2499 27-06-2016 14:00:00 18.78333 C 78.3333 % 14.93 C
2500 27-06-2016 15:00:00 18.91667 C 79.0000 % 15.2 C
Sensor: Nr:Datum:Temp:Feuchte:Taupunkt:
Aussen-T/F 2501 27-06-2016 16:00:00 18.95 C 79.5000 % 15.33 C
2502 27-06-2016 17:00:00 19.59167 C 78.7500 % 15.8 C
2503 27-06-2016 18:00:00 20.31667 C 76.9167 % 16.14 C
2504 27-06-2016 19:00:00 20.075 C 77.8333 % 16.09 C
2505 27-06-2016 20:00:00 18.775 C 83.1667 % 15.86 C
2506 27-06-2016 21:00:00 17.7 C 86.8333 % 15.48 C
2507 27-06-2016 22:00:00 17.13333 C 91.0833 % 15.67 C
2508 27-06-2016 23:00:00 16.34167 C 93.5833 % 15.3 C
2509 28-06-2016 00:00:00 15.96667 C 94.8333 % 15.14 C
2510 28-06-2016 01:00:00 15.86667 C 95.0000 % 15.07 C
2511 28-06-2016 02:00:00 15.43333 C 95.9167 % 14.79 C
2512 28-06-2016 03:00:00 14.90833 C 96.0000 % 14.28 C
2513 28-06-2016 04:00:00 14.18333 C 96.0000 % 13.55 C
2514 28-06-2016 05:00:00 14.55833 C 96.2500 % 13.97 C
2515 28-06-2016 06:00:00 14.81667 C 96.5833 % 14.28 C
2516 28-06-2016 07:00:00 15.28333 C 97.0000 % 14.81 C
2517 28-06-2016 08:00:00 15.725 C 96.6667 % 15.2 C
2518 28-06-2016 09:00:00 16.48333 C 95.5000 % 15.76 C
2519 28-06-2016 10:00:00 17.69167 C 90.9167 % 16.19 C
2520 28-06-2016 11:00:00 19.05 C 83.0833 % 16.11 C
2521 28-06-2016 12:00:00 20.38333 C 76.2500 % 16.06 C
2522 28-06-2016 13:00:00 21.175 C 71.2500 % 15.76 C
2523 28-06-2016 14:00:00 21.41667 C 67.4167 % 15.13 C
2524 28-06-2016 15:00:00 22.325 C 61.5833 % 14.59 C
2525 28-06-2016 16:00:00 23.30833 C 59.0000 % 14.85 C
Sensor: Nr:Datum:Temp:Feuchte:Taupunkt:
Aussen-T/F 2526 28-06-2016 17:00:00 22.9 C 65.3333 % 16.05 C
2527 28-06-2016 18:00:00 23.06667 C 65.3333 % 16.21 C
2528 28-06-2016 19:00:00 21.775 C 74.2500 % 16.99 C
2529 28-06-2016 20:00:00 19.36667 C 83.3333 % 16.47 C
2530 28-06-2016 21:00:00 18.13333 C 87.1667 % 15.97 C
2531 28-06-2016 22:00:00 17.29167 C 89.3333 % 15.52 C
2532 28-06-2016 23:00:00 17.275 C 90.7500 % 15.75 C
2533 29-06-2016 00:00:00 17.03333 C 91.1667 % 15.58 C
2534 29-06-2016 01:00:00 17.08333 C 90.7500 % 15.56 C
2535 29-06-2016 02:00:00 16.86667 C 91.4167 % 15.46 C
2536 29-06-2016 03:00:00 16.70833 C 91.8333 % 15.37 C
2537 29-06-2016 04:00:00 16.84167 C 90.8333 % 15.34 C
2538 29-06-2016 05:00:00 17.08333 C 89.2500 % 15.3 C
2539 29-06-2016 06:00:00 17.5 C 85.5000 % 15.04 C
2540 29-06-2016 07:00:00 17.85 C 83.5833 % 15.03 C
2541 29-06-2016 08:00:00 18.325 C 81.0833 % 15.02 C
2542 29-06-2016 09:00:00 19.08333 C 72.3333 % 13.99 C
2543 29-06-2016 10:00:00 19.575 C 68.1667 % 13.55 C
2544 29-06-2016 11:00:00 20.16667 C 62.1667 % 12.7 C
2545 29-06-2016 12:00:00 20.275 C 60.4167 % 12.37 C
2546 29-06-2016 13:00:00 20.725 C 55.1667 % 11.41 C
2547 29-06-2016 14:00:00 21.54167 C 56.4167 % 12.51 C
2548 29-06-2016 15:00:00 23 C 51.5833 % 12.5 C
2549 29-06-2016 16:00:00 22.74167 C 51.0833 % 12.11 C
2550 29-06-2016 17:00:00 23.46667 C 51.8333 % 13 C
Sensor: Nr:Datum:Temp:Feuchte:Taupunkt:
Aussen-T/F 2551 29-06-2016 18:00:00 23.01667 C 61.5833 % 15.24 C
2552 29-06-2016 19:00:00 20.10833 C 73.2500 % 15.17 C
2553 29-06-2016 20:00:00 18.46667 C 78.5833 % 14.68 C
2554 29-06-2016 21:00:00 17.28333 C 81.1667 % 14.03 C
2555 29-06-2016 22:00:00 16.48333 C 84.0833 % 13.79 C
2556 29-06-2016 23:00:00 15.84167 C 86.0000 % 13.51 C
2557 30-06-2016 00:00:00 15.68333 C 87.2500 % 13.57 C
2558 30-06-2016 01:00:00 15.575 C 88.2500 % 13.64 C
2559 30-06-2016 02:00:00 15.725 C 88.0833 % 13.76 C
2560 30-06-2016 03:00:00 15.875 C 87.8333 % 13.86 C
2561 30-06-2016 04:00:00 15.9 C 87.9167 % 13.9 C
2562 30-06-2016 05:00:00 15.85 C 89.5833 % 14.14 C
2563 30-06-2016 06:00:00 15.88333 C 91.1667 % 14.44 C
2564 30-06-2016 07:00:00 16.34167 C 92.5833 % 15.14 C
2565 30-06-2016 08:00:00 17.30833 C 89.6667 % 15.59 C
2566 30-06-2016 09:00:00 18.4 C 81.0833 % 15.1 C
2567 30-06-2016 10:00:00 19.45 C 74.6667 % 14.84 C
2568 30-06-2016 11:00:00 20.45833 C 70.8333 % 14.99 C
2569 30-06-2016 12:00:00 21.175 C 70.7500 % 15.65 C
2570 30-06-2016 13:00:00 21.30833 C 69.5833 % 15.52 C
2571 30-06-2016 14:00:00 21.26667 C 72.5000 % 16.12 C
2572 30-06-2016 15:00:00 22.00833 C 68.9167 % 16.04 C
2573 30-06-2016 16:00:00 21.66667 C 71.6667 % 16.33 C
2574 30-06-2016 17:00:00 22.475 C 69.1667 % 16.54 C
2575 30-06-2016 18:00:00 21.975 C 70.5000 % 16.36 C
Sensor: Nr:Datum:Temp:Feuchte:Taupunkt:
Aussen-T/F 2576 30-06-2016 19:00:00 21.6 C 76.7500 % 17.34 C
2577 30-06-2016 20:00:00 20.40833 C 79.9167 % 16.83 C
2578 30-06-2016 21:00:00 19.13333 C 83.7500 % 16.32 C
2579 30-06-2016 22:00:00 17.84167 C 87.1667 % 15.68 C
2580 30-06-2016 23:00:00 16.85 C 90.2500 % 15.24 C
2581 01-07-2016 00:00:00 16.825 C 91.7500 % 15.48 C
2582 01-07-2016 01:00:00 16.86667 C 92.0000 % 15.56 C
2583 01-07-2016 02:00:00 16.98333 C 92.0000 % 15.67 C
2584 01-07-2016 03:00:00 16.65833 C 92.3333 % 15.41 C
2585 01-07-2016 04:00:00 16.55 C 93.0833 % 15.43 C
2586 01-07-2016 05:00:00 16.81667 C 93.0833 % 15.69 C
2587 01-07-2016 06:00:00 17.75833 C 89.6667 % 16.04 C
2588 01-07-2016 07:00:00 18.45833 C 87.4167 % 16.33 C
2589 01-07-2016 08:00:00 19.25 C 86.0000 % 16.85 C
2590 01-07-2016 09:00:00 19.95 C 84.7500 % 17.31 C
2591 01-07-2016 10:00:00 21.15 C 78.7500 % 17.31 C
2592 01-07-2016 11:00:00 22.13333 C 73.2500 % 17.12 C
2593 01-07-2016 12:00:00 22.075 C 70.5000 % 16.46 C
2594 01-07-2016 13:00:00 22.125 C 70.9167 % 16.6 C
2595 01-07-2016 14:00:00 22.55833 C 69.1667 % 16.62 C
2596 01-07-2016 15:00:00 22.625 C 67.5000 % 16.3 C
2597 01-07-2016 16:00:00 23.96667 C 64.7500 % 16.92 C
2598 01-07-2016 17:00:00 22.75 C 68.5000 % 16.65 C
2599 01-07-2016 18:00:00 21.93333 C 73.0000 % 16.87 C
2600 01-07-2016 19:00:00 22.75 C 71.0000 % 17.22 C
Sensor: Nr:Datum:Temp:Feuchte:Taupunkt:
Aussen-T/F 2601 01-07-2016 20:00:00 21.93333 C 75.0000 % 17.3 C
2602 01-07-2016 21:00:00 19.40833 C 82.7500 % 16.4 C
2603 01-07-2016 22:00:00 17.99167 C 87.7500 % 15.93 C
2604 01-07-2016 23:00:00 17.65 C 90.4167 % 16.06 C
2605 02-07-2016 00:00:00 17.88333 C 91.0000 % 16.39 C
2606 02-07-2016 01:00:00 17.50833 C 91.1667 % 16.05 C
2607 02-07-2016 02:00:00 17.86667 C 90.4167 % 16.28 C
2608 02-07-2016 03:00:00 18.65833 C 85.7500 % 16.22 C
2609 02-07-2016 04:00:00 18.39167 C 86.5000 % 16.1 C
2610 02-07-2016 05:00:00 18.06667 C 84.4167 % 15.4 C
2611 02-07-2016 06:00:00 15.65 C 90.8333 % 14.16 C
2612 02-07-2016 07:00:00 14.75 C 90.6667 % 13.24 C
2613 02-07-2016 08:00:00 14.24167 C 88.5833 % 12.38 C
2614 02-07-2016 09:00:00 14.31667 C 89.4167 % 12.6 C
2615 02-07-2016 10:00:00 14.65 C 87.9167 % 12.67 C
2616 02-07-2016 11:00:00 15.60833 C 83.5833 % 12.84 C
2617 02-07-2016 12:00:00 16.5 C 79.1667 % 12.88 C
2618 02-07-2016 13:00:00 17.86667 C 71.8333 % 12.72 C
2619 02-07-2016 14:00:00 18.65833 C 70.1667 % 13.12 C
2620 02-07-2016 15:00:00 20.15833 C 61.2500 % 12.47 C
2621 02-07-2016 16:00:00 21.08333 C 46.4167 % 9.16 C
2622 02-07-2016 17:00:00 19.30833 C 57.0833 % 10.61 C
2623 02-07-2016 18:00:00 18.925 C 56.8333 % 10.18 C
2624 02-07-2016 19:00:00 17.83333 C 63.5833 % 10.84 C
2625 02-07-2016 20:00:00 16.63333 C 70.5833 % 11.27 C
Sensor: Nr:Datum:Temp:Feuchte:Taupunkt:
Aussen-T/F 2626 02-07-2016 21:00:00 15.125 C 79.4167 % 11.59 C
2627 02-07-2016 22:00:00 13.21667 C 84.8333 % 10.72 C
2628 02-07-2016 23:00:00 12.90833 C 87.0000 % 10.8 C
2629 03-07-2016 00:00:00 12.46667 C 88.7500 % 10.66 C
2630 03-07-2016 01:00:00 11.76667 C 91.0833 % 10.36 C
2631 03-07-2016 02:00:00 12.24167 C 88.3333 % 10.37 C
2632 03-07-2016 03:00:00 11.91111 C 89.1111 % 10.18 C
2633 03-07-2016 04:00:00 11.9 C 89.8571 % 10.29 C
2634 03-07-2016 05:00:00 11.71667 C 90.8333 % 10.27 C
2635 03-07-2016 06:00:00 11.75833 C 92.0000 % 10.5 C
2636 03-07-2016 07:00:00 12.6 C 90.4167 % 11.07 C
2637 03-07-2016 08:00:00 13.71667 C 86.5000 % 11.51 C
2638 03-07-2016 09:00:00 16.33 C 78.0000 % 12.49 C
2639 03-07-2016 10:00:00 17.48 C 74.3000 % 12.86 C
2640 03-07-2016 12:00:00 15.80909 C 87.0909 % 13.67 C
2641 03-07-2016 13:00:00 16.66667 C 82.7500 % 13.72 C
2642 03-07-2016 14:00:00 15.34167 C 82.1667 % 12.32 C
2643 03-07-2016 15:00:00 16.225 C 89.3333 % 14.47 C
2644 03-07-2016 16:00:00 20.21667 C 73.2500 % 15.28 C
2645 03-07-2016 17:00:00 19.31667 C 69.0833 % 13.51 C
2646 03-07-2016 18:00:00 19.08333 C 72.1667 % 13.96 C
2647 03-07-2016 19:00:00 19.075 C 73.4167 % 14.21 C
2648 03-07-2016 20:00:00 17.35833 C 80.5000 % 13.97 C
2649 03-07-2016 21:00:00 15.75 C 82.0000 % 12.69 C
2650 03-07-2016 22:00:00 15.16667 C 84.9167 % 12.65 C
Sensor: Nr:Datum:Temp:Feuchte:Taupunkt:
Aussen-T/F 2651 03-07-2016 23:00:00 14.46667 C 87.5000 % 12.42 C
2652 04-07-2016 00:00:00 13.06667 C 89.1667 % 11.32 C
2653 04-07-2016 01:00:00 11.85 C 92.0833 % 10.61 C
2654 04-07-2016 02:00:00 11.70833 C 93.6667 % 10.72 C
2655 04-07-2016 03:00:00 12.19167 C 93.0833 % 11.11 C
2656 04-07-2016 04:00:00 12.06667 C 93.5000 % 11.05 C
2657 04-07-2016 05:00:00 12.21667 C 94.0000 % 11.28 C
2658 04-07-2016 06:00:00 12.5 C 94.0000 % 11.56 C
2659 04-07-2016 07:00:00 13.375 C 92.4167 % 12.17 C
2660 04-07-2016 08:00:00 14.74167 C 89.2500 % 12.99 C
2661 04-07-2016 09:00:00 16.49167 C 85.3333 % 14.02 C
2662 04-07-2016 10:00:00 18.34167 C 77.4167 % 14.32 C
2663 04-07-2016 11:00:00 19.1 C 77.4167 % 15.06 C
2664 04-07-2016 12:00:00 18.28333 C 83.7500 % 15.49 C
2665 04-07-2016 13:00:00 19.05 C 81.5833 % 15.83 C
2666 04-07-2016 14:00:00 20.05 C 77.1667 % 15.93 C
2667 04-07-2016 15:00:00 20.80833 C 74.9167 % 16.2 C
2668 04-07-2016 16:00:00 21.25 C 75.5000 % 16.75 C
2669 04-07-2016 17:00:00 23.25833 C 67.7500 % 16.96 C
2670 04-07-2016 18:00:00 24.73333 C 62.7500 % 17.15 C
2671 04-07-2016 19:00:00 23.875 C 66.3333 % 17.22 C
2672 04-07-2016 20:00:00 22.40833 C 74.0833 % 17.56 C
2673 04-07-2016 21:00:00 20.11667 C 80.4167 % 16.64 C
2674 04-07-2016 22:00:00 18.69167 C 86.1667 % 16.33 C
2675 04-07-2016 23:00:00 18.225 C 88.3333 % 16.26 C
Sensor: Nr:Datum:Temp:Feuchte:Taupunkt:
Aussen-T/F 2676 05-07-2016 00:00:00 17.85 C 89.9167 % 16.17 C
2677 05-07-2016 01:00:00 17.65 C 90.8333 % 16.13 C
2678 05-07-2016 02:00:00 17.58333 C 91.0000 % 16.1 C
2679 05-07-2016 03:00:00 17.33333 C 91.0000 % 15.85 C
2680 05-07-2016 04:00:00 17.28333 C 91.0000 % 15.8 C
2681 05-07-2016 05:00:00 16.91667 C 91.5833 % 15.54 C
2682 05-07-2016 06:00:00 16.90833 C 92.5833 % 15.7 C
2683 05-07-2016 07:00:00 17.56667 C 91.0833 % 16.09 C
2684 05-07-2016 08:00:00 18.5 C 86.6667 % 16.24 C
2685 05-07-2016 09:00:00 19.45 C 81.6667 % 16.23 C
2686 05-07-2016 10:00:00 20.48333 C 75.0000 % 15.9 C
2687 05-07-2016 11:00:00 20.70833 C 69.3333 % 14.89 C
2688 05-07-2016 12:00:00 20.88333 C 69.5000 % 15.1 C
2689 05-07-2016 13:00:00 21.15 C 71.5833 % 15.81 C
2690 05-07-2016 14:00:00 21.175 C 72.1667 % 15.96 C
2691 05-07-2016 15:00:00 22.44167 C 68.3333 % 16.32 C
2692 05-07-2016 16:00:00 21.8 C 73.7500 % 16.91 C
2693 05-07-2016 17:00:00 22.08333 C 66.5833 % 15.57 C
2694 05-07-2016 18:00:00 21.05833 C 67.7500 % 14.87 C
2695 05-07-2016 19:00:00 22.05 C 64.4167 % 15.03 C
2696 05-07-2016 20:00:00 21.3 C 60.1667 % 13.27 C
2697 05-07-2016 21:00:00 19.525 C 68.3333 % 13.54 C
2698 05-07-2016 22:00:00 17.625 C 74.7500 % 13.09 C
2699 05-07-2016 23:00:00 16.49167 C 77.7500 % 12.6 C
2700 06-07-2016 00:00:00 15.43333 C 78.7500 % 11.76 C
Sensor: Nr:Datum:Temp:Feuchte:Taupunkt:
Aussen-T/F 2701 06-07-2016 01:00:00 13.9 C 84.2500 % 11.29 C
2702 06-07-2016 02:00:00 12.85 C 87.0000 % 10.74 C
2703 06-07-2016 03:00:00 12.075 C 88.9167 % 10.31 C
2704 06-07-2016 04:00:00 11.06667 C 91.0833 % 9.67 C
2705 06-07-2016 05:00:00 10.675 C 92.0000 % 9.43 C
2706 06-07-2016 06:00:00 10.60833 C 92.1667 % 9.39 C
2707 06-07-2016 07:00:00 11.10833 C 92.7500 % 9.98 C
2708 06-07-2016 08:00:00 13.075 C 87.0000 % 10.96 C
2709 06-07-2016 09:00:00 15.1 C 78.8333 % 11.46 C
2710 06-07-2016 10:00:00 17.10833 C 73.3333 % 12.3 C
2711 06-07-2016 11:00:00 17.66667 C 73.0833 % 12.79 C
2712 06-07-2016 12:00:00 18.28333 C 71.1667 % 12.97 C
2713 06-07-2016 13:00:00 19.34167 C 67.6667 % 13.21 C
2714 06-07-2016 14:00:00 19.8 C 66.4167 % 13.36 C
2715 06-07-2016 15:00:00 20.81667 C 61.9167 % 13.25 C
2716 06-07-2016 16:00:00 22.2 C 52.1667 % 11.93 C
2717 06-07-2016 17:00:00 22.975 C 46.5000 % 10.9 C
2718 06-07-2016 18:00:00 23.03333 C 48.0833 % 11.46 C
2719 06-07-2016 19:00:00 22.23333 C 52.4167 % 12.03 C
2720 06-07-2016 20:00:00 20.69167 C 58.9167 % 12.38 C
2721 06-07-2016 21:00:00 18.05 C 70.9167 % 12.7 C
2722 06-07-2016 22:00:00 15.79167 C 78.6667 % 12.1 C
2723 06-07-2016 23:00:00 14.76667 C 82.2500 % 11.77 C
2724 07-07-2016 00:00:00 13.3 C 86.4167 % 11.08 C
2725 07-07-2016 01:00:00 12.56667 C 89.2500 % 10.85 C
Sensor: Nr:Datum:Temp:Feuchte:Taupunkt:
Aussen-T/F 2726 07-07-2016 02:00:00 12.06667 C 91.4167 % 10.71 C
2727 07-07-2016 03:00:00 11.425 C 92.5000 % 10.25 C
2728 07-07-2016 04:00:00 11.13333 C 93.3333 % 10.1 C
2729 07-07-2016 05:00:00 10.775 C 94.0000 % 9.85 C
2730 07-07-2016 06:00:00 10.75 C 94.5000 % 9.9 C
2731 07-07-2016 07:00:00 11.05833 C 94.7500 % 10.25 C
2732 07-07-2016 08:00:00 12.05833 C 95.0000 % 11.28 C
2733 07-07-2016 09:00:00 13.5 C 93.5833 % 12.49 C
2734 07-07-2016 10:00:00 16.19167 C 85.4167 % 13.74 C
2735 07-07-2016 11:00:00 18.5 C 74.2500 % 13.83 C
2736 07-07-2016 12:00:00 19.55 C 63.7500 % 12.5 C
2737 07-07-2016 13:00:00 20.69167 C 53.2500 % 10.85 C
2738 07-07-2016 14:00:00 22.60833 C 49.3333 % 11.46 C
2739 07-07-2016 15:00:00 23.85833 C 48.9167 % 12.48 C
2740 07-07-2016 16:00:00 24.9 C 53.1667 % 14.71 C
2741 07-07-2016 17:00:00 24.8 C 62.7500 % 17.21 C
2742 07-07-2016 18:00:00 23.64167 C 67.5833 % 17.29 C
2743 07-07-2016 19:00:00 23.55 C 66.8333 % 17.03 C
2744 07-07-2016 20:00:00 20.89167 C 74.0833 % 16.1 C
2745 07-07-2016 21:00:00 19.125 C 76.7500 % 14.95 C
2746 07-07-2016 22:00:00 17.28333 C 81.8333 % 14.15 C
2747 07-07-2016 23:00:00 15.83333 C 86.4167 % 13.57 C
2748 08-07-2016 00:00:00 14.74167 C 88.4167 % 12.85 C
2749 08-07-2016 01:00:00 13.96667 C 89.3333 % 12.24 C
2750 08-07-2016 02:00:00 13.84167 C 91.0833 % 12.41 C
Sensor: Nr:Datum:Temp:Feuchte:Taupunkt:
Aussen-T/F 2751 08-07-2016 03:00:00 13.06667 C 92.0000 % 11.8 C
2752 08-07-2016 04:00:00 12.825 C 93.1667 % 11.75 C
2753 08-07-2016 05:00:00 12.6 C 93.4167 % 11.57 C
2754 08-07-2016 06:00:00 12.80833 C 94.2500 % 11.91 C
2755 08-07-2016 07:00:00 13.125 C 94.0000 % 12.18 C
2756 08-07-2016 08:00:00 14.36667 C 93.5000 % 13.33 C
2757 08-07-2016 09:00:00 16.15 C 91.0000 % 14.68 C
2758 08-07-2016 10:00:00 19.03333 C 87.0833 % 16.83 C
2759 08-07-2016 11:00:00 22.44167 C 70.3333 % 16.77 C
2760 08-07-2016 12:00:00 24.03333 C 64.4167 % 16.9 C
2761 08-07-2016 13:00:00 25.25 C 63.4167 % 17.81 C
2762 08-07-2016 14:00:00 25.88333 C 58.8333 % 17.21 C
2763 08-07-2016 15:00:00 24.41667 C 65.0833 % 17.43 C
2764 08-07-2016 16:00:00 23.51667 C 67.3333 % 17.11 C
2765 08-07-2016 17:00:00 23.61667 C 70.7500 % 17.99 C
2766 08-07-2016 18:00:00 22.25833 C 76.3333 % 17.89 C
2767 08-07-2016 19:00:00 22.26667 C 77.7500 % 18.19 C
2768 08-07-2016 20:00:00 22.1 C 78.0000 % 18.08 C
2769 08-07-2016 21:00:00 21.35 C 76.9167 % 17.14 C
2770 08-07-2016 22:00:00 20.05 C 79.1667 % 16.33 C
2771 08-07-2016 23:00:00 19.225 C 81.9167 % 16.06 C
2772 09-07-2016 00:00:00 18.475 C 84.0000 % 15.72 C
2773 09-07-2016 01:00:00 17.85833 C 85.4167 % 15.38 C
2774 09-07-2016 02:00:00 17.425 C 86.5833 % 15.16 C
2775 09-07-2016 03:00:00 17.325 C 86.0833 % 14.98 C
Sensor: Nr:Datum:Temp:Feuchte:Taupunkt:
Aussen-T/F 2776 09-07-2016 04:00:00 17.275 C 85.8333 % 14.88 C
2777 09-07-2016 05:00:00 17.2 C 86.5833 % 14.94 C
2778 09-07-2016 06:00:00 17.39167 C 87.2500 % 15.25 C
2779 09-07-2016 07:00:00 18.09167 C 84.7500 % 15.48 C
2780 09-07-2016 08:00:00 18.775 C 84.2500 % 16.06 C
2781 09-07-2016 09:00:00 19.98333 C 78.8333 % 16.2 C
2782 09-07-2016 10:00:00 21.1 C 74.1667 % 16.32 C
2783 09-07-2016 11:00:00 21.81667 C 71.5000 % 16.43 C
2784 09-07-2016 12:00:00 22.55 C 68.5833 % 16.48 C
2785 09-07-2016 13:00:00 23.41667 C 66.2500 % 16.76 C
2786 09-07-2016 14:00:00 24.11667 C 64.5000 % 17 C
2787 09-07-2016 15:00:00 25.825 C 59.0000 % 17.2 C
2788 09-07-2016 16:00:00 25.59167 C 64.5833 % 18.42 C
2789 09-07-2016 17:00:00 26.31667 C 62.0833 % 18.47 C
2790 09-07-2016 18:00:00 26.23333 C 66.7500 % 19.56 C
2791 09-07-2016 19:00:00 24.73333 C 71.0833 % 19.14 C
2792 09-07-2016 20:00:00 24.31667 C 71.5000 % 18.83 C
2793 09-07-2016 21:00:00 21.74167 C 76.0833 % 17.34 C
2794 09-07-2016 22:00:00 19.875 C 80.7500 % 16.47 C
2795 09-07-2016 23:00:00 18.7 C 84.2500 % 15.99 C
2796 10-07-2016 00:00:00 17.94167 C 87.0000 % 15.75 C
2797 10-07-2016 01:00:00 17.125 C 88.8333 % 15.27 C
2798 10-07-2016 02:00:00 16.48333 C 90.3333 % 14.9 C
2799 10-07-2016 03:00:00 15.51667 C 92.0000 % 14.22 C
2800 10-07-2016 04:00:00 14.88333 C 93.3333 % 13.82 C
Sensor: Nr:Datum:Temp:Feuchte:Taupunkt:
Aussen-T/F 2801 10-07-2016 05:00:00 14.55833 C 94.0000 % 13.6 C
2802 10-07-2016 06:00:00 14.74167 C 94.9167 % 13.94 C
2803 10-07-2016 07:00:00 15.34167 C 95.0000 % 14.55 C
2804 10-07-2016 08:00:00 16.44167 C 94.5833 % 15.57 C
2805 10-07-2016 09:00:00 17.66667 C 92.6667 % 16.46 C
2806 10-07-2016 10:00:00 20.08333 C 89.0833 % 18.23 C
2807 10-07-2016 11:00:00 22.58333 C 83.2500 % 19.6 C
2808 10-07-2016 12:00:00 24.8 C 71.8333 % 19.37 C
2809 10-07-2016 13:00:00 26.39167 C 68.4167 % 20.11 C
2810 10-07-2016 14:00:00 27.70833 C 62.2500 % 19.83 C
2811 10-07-2016 15:00:00 30.03333 C 56.0833 % 20.31 C
2812 10-07-2016 16:00:00 32.38333 C 49.4167 % 20.43 C
2813 10-07-2016 17:00:00 32.39167 C 51.6667 % 21.16 C
2814 10-07-2016 18:00:00 30.08333 C 59.2500 % 21.25 C
2815 10-07-2016 19:00:00 26.98333 C 69.9167 % 21.02 C
2816 10-07-2016 20:00:00 24.94167 C 76.8333 % 20.59 C
2817 10-07-2016 21:00:00 23.425 C 77.4167 % 19.25 C
2818 10-07-2016 22:00:00 22.29167 C 80.6667 % 18.81 C
2819 10-07-2016 23:00:00 21.40833 C 83.0833 % 18.42 C
2820 11-07-2016 00:00:00 20.74167 C 85.0000 % 18.13 C
2821 11-07-2016 01:00:00 20.225 C 86.5833 % 17.91 C
2822 11-07-2016 02:00:00 19.425 C 87.6667 % 17.33 C
2823 11-07-2016 03:00:00 19.18333 C 89.6667 % 17.44 C
2824 11-07-2016 04:00:00 18.675 C 89.6667 % 16.94 C
2825 11-07-2016 05:00:00 18.70833 C 91.0000 % 17.21 C
Sensor: Nr:Datum:Temp:Feuchte:Taupunkt:
Aussen-T/F 2826 11-07-2016 06:00:00 18.94167 C 90.5833 % 17.37 C
2827 11-07-2016 07:00:00 19.275 C 91.1667 % 17.8 C
2828 11-07-2016 08:00:00 20.20833 C 89.5000 % 18.43 C
2829 11-07-2016 09:00:00 22.18333 C 78.5000 % 18.27 C
2830 11-07-2016 10:00:00 23.76667 C 68.8333 % 17.7 C
2831 11-07-2016 11:00:00 23.5 C 67.5833 % 17.16 C
2832 11-07-2016 12:00:00 23.85 C 67.6667 % 17.51 C
2833 11-07-2016 13:00:00 24.40833 C 62.8333 % 16.87 C
2834 11-07-2016 14:00:00 24.44167 C 56.1667 % 15.14 C
2835 11-07-2016 15:00:00 24.29167 C 57.0000 % 15.23 C
2836 11-07-2016 16:00:00 24.375 C 59.3333 % 15.93 C
2837 11-07-2016 17:00:00 24.20833 C 63.1667 % 16.76 C
2838 11-07-2016 18:00:00 24.19167 C 57.9167 % 15.39 C
2839 11-07-2016 19:00:00 23.6 C 56.3333 % 14.4 C
2840 11-07-2016 20:00:00 21.75833 C 62.0833 % 14.18 C
2841 11-07-2016 21:00:00 20.35 C 66.1667 % 13.83 C
2842 11-07-2016 22:00:00 19.61667 C 70.3333 % 14.07 C
2843 11-07-2016 23:00:00 18.88333 C 74.8333 % 14.32 C
2844 12-07-2016 00:00:00 18.275 C 78.2500 % 14.42 C
2845 12-07-2016 01:00:00 17.66667 C 78.3333 % 13.85 C
2846 12-07-2016 02:00:00 16.36667 C 82.1667 % 13.32 C
2847 12-07-2016 03:00:00 15.00833 C 86.8333 % 12.83 C
2848 12-07-2016 04:00:00 14.475 C 89.5833 % 12.78 C
2849 12-07-2016 05:00:00 14.29167 C 91.3333 % 12.9 C
2850 12-07-2016 06:00:00 14.65833 C 91.4167 % 13.28 C
Sensor: Nr:Datum:Temp:Feuchte:Taupunkt:
Aussen-T/F 2851 12-07-2016 07:00:00 15.29167 C 90.0833 % 13.68 C
2852 12-07-2016 08:00:00 16.80833 C 86.0000 % 14.45 C
2853 12-07-2016 09:00:00 18.39167 C 81.0000 % 15.07 C
2854 12-07-2016 10:00:00 19.91667 C 72.5000 % 14.83 C
2855 12-07-2016 11:00:00 20.975 C 67.5000 % 14.73 C
2856 12-07-2016 12:00:00 21.88333 C 65.5000 % 15.13 C
2857 12-07-2016 13:00:00 22.18333 C 63.5833 % 14.95 C
2858 12-07-2016 14:00:00 23.125 C 55.8333 % 13.82 C
2859 12-07-2016 15:00:00 24.875 C 49.2500 % 13.51 C
2860 12-07-2016 16:00:00 24.65833 C 51.1667 % 13.9 C
2861 12-07-2016 17:00:00 24.2 C 54.1667 % 14.35 C
2862 12-07-2016 18:00:00 23.51667 C 58.0000 % 14.78 C
2863 12-07-2016 19:00:00 22.08333 C 60.5833 % 14.11 C
2864 12-07-2016 20:00:00 19.275 C 75.2500 % 14.79 C
2865 12-07-2016 21:00:00 17.53333 C 81.9167 % 14.41 C
2866 12-07-2016 22:00:00 16.5 C 90.0833 % 14.87 C
2867 12-07-2016 23:00:00 15.56667 C 92.5833 % 14.37 C
2868 13-07-2016 00:00:00 14.94167 C 93.5833 % 13.92 C
2869 13-07-2016 01:00:00 14.05 C 93.7500 % 13.06 C
2870 13-07-2016 02:00:00 13.59167 C 94.2500 % 12.69 C
2871 13-07-2016 03:00:00 13.18333 C 94.9167 % 12.39 C
2872 13-07-2016 04:00:00 12.58333 C 95.0000 % 11.8 C
2873 13-07-2016 05:00:00 12.33333 C 95.3333 % 11.61 C
2874 13-07-2016 06:00:00 12.85 C 96.0000 % 12.23 C
2875 13-07-2016 07:00:00 13.10833 C 96.0000 % 12.49 C
Sensor: Nr:Datum:Temp:Feuchte:Taupunkt:
Aussen-T/F 2876 13-07-2016 08:00:00 13.73333 C 96.0000 % 13.11 C
2877 13-07-2016 09:00:00 15.20833 C 93.7500 % 14.21 C
2878 13-07-2016 10:00:00 14.95833 C 88.3333 % 13.05 C
2879 13-07-2016 11:00:00 13.15833 C 94.3333 % 12.27 C
2880 13-07-2016 12:00:00 14.80833 C 94.5833 % 13.95 C
2881 13-07-2016 13:00:00 15.8 C 91.5833 % 14.43 C
2882 13-07-2016 14:00:00 16.99167 C 84.6667 % 14.39 C
2883 13-07-2016 15:00:00 18.525 C 75.6667 % 14.15 C
2884 13-07-2016 16:00:00 19.78333 C 72.7500 % 14.75 C
2885 13-07-2016 17:00:00 15.29167 C 87.5000 % 13.23 C
2886 13-07-2016 18:00:00 15.88333 C 90.0000 % 14.25 C
2887 13-07-2016 19:00:00 16.38333 C 89.5833 % 14.67 C
2888 13-07-2016 20:00:00 15.225 C 91.9167 % 13.92 C
2889 13-07-2016 21:00:00 14.025 C 93.5833 % 13.01 C
2890 13-07-2016 22:00:00 13.38333 C 94.5833 % 12.53 C
2891 13-07-2016 23:00:00 13.31667 C 95.3333 % 12.59 C
2892 14-07-2016 00:00:00 13.35833 C 96.0000 % 12.73 C
2893 14-07-2016 01:00:00 12.83333 C 95.0833 % 12.07 C
2894 14-07-2016 02:00:00 12.14167 C 95.0000 % 11.37 C
2895 14-07-2016 03:00:00 11.525 C 95.0000 % 10.75 C
2896 14-07-2016 04:00:00 11.33333 C 95.9167 % 10.71 C
2897 14-07-2016 05:00:00 11.05833 C 96.0000 % 10.45 C
2898 14-07-2016 06:00:00 11.025 C 96.0000 % 10.41 C
2899 14-07-2016 07:00:00 11.425 C 96.0000 % 10.81 C
2900 14-07-2016 08:00:00 12.55 C 95.0000 % 11.77 C
Sensor: Nr:Datum:Temp:Feuchte:Taupunkt:
Aussen-T/F 2901 14-07-2016 09:00:00 14.05 C 86.5000 % 11.83 C
2902 14-07-2016 10:00:00 15.18333 C 80.1667 % 11.79 C
2903 14-07-2016 11:00:00 15.95833 C 72.6667 % 11.06 C
2904 14-07-2016 12:00:00 16.54167 C 67.9167 % 10.6 C
2905 14-07-2016 13:00:00 17.5 C 62.3333 % 10.23 C
2906 14-07-2016 14:00:00 18.06667 C 60.3333 % 10.27 C
2907 14-07-2016 15:00:00 18.225 C 59.1667 % 10.13 C
2908 14-07-2016 16:00:00 17.88333 C 65.2500 % 11.27 C
2909 14-07-2016 17:00:00 17.95 C 62.1667 % 10.61 C
2910 14-07-2016 18:00:00 18.525 C 62.3333 % 11.19 C
2911 14-07-2016 19:00:00 19.48333 C 59.0000 % 11.27 C
2912 14-07-2016 20:00:00 17.45 C 69.8333 % 11.89 C
2913 14-07-2016 21:00:00 15.43333 C 78.3333 % 11.68 C
2914 14-07-2016 22:00:00 14.8 C 82.3333 % 11.82 C
2915 14-07-2016 23:00:00 14.4 C 77.4167 % 10.5 C
2916 15-07-2016 00:00:00 13.4 C 80.8333 % 10.18 C
2917 15-07-2016 01:00:00 12.95 C 84.3333 % 10.37 C
2918 15-07-2016 02:00:00 12.90833 C 86.4167 % 10.7 C
2919 15-07-2016 03:00:00 12.15 C 87.8333 % 10.2 C
2920 15-07-2016 04:00:00 11.79167 C 88.6667 % 9.98 C
2921 15-07-2016 05:00:00 11.99167 C 87.8333 % 10.04 C
2922 15-07-2016 06:00:00 12.275 C 87.5000 % 10.26 C
2923 15-07-2016 07:00:00 12.50833 C 85.9167 % 10.22 C
2924 15-07-2016 08:00:00 13.04167 C 85.7500 % 10.71 C
2925 15-07-2016 09:00:00 14.39167 C 81.4167 % 11.25 C
Sensor: Nr:Datum:Temp:Feuchte:Taupunkt:
Aussen-T/F 2926 15-07-2016 10:00:00 15.15 C 77.0000 % 11.15 C
2927 15-07-2016 11:00:00 16.45 C 69.1667 % 10.79 C
2928 15-07-2016 12:00:00 17.74167 C 62.7500 % 10.55 C
2929 15-07-2016 13:00:00 18.48333 C 60.9167 % 10.81 C
2930 15-07-2016 14:00:00 19.26667 C 59.2500 % 11.13 C
2931 15-07-2016 15:00:00 19.95833 C 60.5000 % 12.09 C
2932 15-07-2016 16:00:00 20.59167 C 58.9167 % 12.28 C
2933 15-07-2016 17:00:00 21.11667 C 61.7500 % 13.49 C
2934 15-07-2016 18:00:00 22.125 C 49.6667 % 11.12 C
2935 15-07-2016 19:00:00 22.375 C 49.6667 % 11.35 C
2936 15-07-2016 20:00:00 19.70833 C 66.3333 % 13.26 C
2937 15-07-2016 21:00:00 16.86667 C 76.1667 % 12.65 C
2938 15-07-2016 22:00:00 15.15 C 81.6667 % 12.04 C
2939 15-07-2016 23:00:00 13.58333 C 86.7500 % 11.42 C
2940 16-07-2016 00:00:00 12.66667 C 88.9167 % 10.89 C
2941 16-07-2016 01:00:00 12.125 C 90.9167 % 10.69 C
2942 16-07-2016 02:00:00 11.6 C 92.0000 % 10.35 C
2943 16-07-2016 03:00:00 11.23333 C 93.2500 % 10.18 C
2944 16-07-2016 04:00:00 11.6 C 94.0000 % 10.67 C
2945 16-07-2016 05:00:00 11.88333 C 93.5000 % 10.87 C
2946 16-07-2016 06:00:00 12.15 C 93.2500 % 11.09 C
2947 16-07-2016 07:00:00 13.125 C 90.9167 % 11.68 C
2948 16-07-2016 08:00:00 14.325 C 87.9167 % 12.35 C
2949 16-07-2016 09:00:00 15.81667 C 83.4167 % 13.01 C
2950 16-07-2016 10:00:00 17.38333 C 78.0833 % 13.53 C
Sensor: Nr:Datum:Temp:Feuchte:Taupunkt:
Aussen-T/F 2951 16-07-2016 11:00:00 18.73333 C 75.5000 % 14.32 C
2952 16-07-2016 12:00:00 20.075 C 67.0000 % 13.76 C
2953 16-07-2016 13:00:00 21.23333 C 66.5000 % 14.75 C
2954 16-07-2016 14:00:00 21.25 C 69.5000 % 15.45 C
2955 16-07-2016 15:00:00 21.65833 C 69.2500 % 15.78 C
2956 16-07-2016 16:00:00 22.225 C 73.5833 % 17.28 C
2957 16-07-2016 17:00:00 21.55 C 78.9167 % 17.74 C
2958 16-07-2016 18:00:00 21.15 C 80.5000 % 17.66 C
2959 16-07-2016 19:00:00 20.525 C 82.8333 % 17.51 C
2960 16-07-2016 20:00:00 20.30833 C 82.3333 % 17.2 C
2961 16-07-2016 21:00:00 19.1 C 84.1667 % 16.36 C
2962 16-07-2016 22:00:00 18.35833 C 86.8333 % 16.13 C
2963 16-07-2016 23:00:00 17.575 C 90.0000 % 15.92 C
2964 17-07-2016 00:00:00 16.48333 C 92.1667 % 15.21 C
2965 17-07-2016 01:00:00 16.56667 C 94.0000 % 15.6 C
2966 17-07-2016 02:00:00 17.04167 C 93.8333 % 16.04 C
2967 17-07-2016 03:00:00 17.21667 C 93.0000 % 16.07 C
2968 17-07-2016 04:00:00 17.075 C 93.6667 % 16.05 C
2969 17-07-2016 05:00:00 16.48333 C 93.8333 % 15.49 C
2970 17-07-2016 06:00:00 16.83333 C 95.0000 % 16.03 C
2971 17-07-2016 07:00:00 17.56667 C 94.5833 % 16.69 C
2972 17-07-2016 08:00:00 18.78333 C 91.2500 % 17.33 C
2973 17-07-2016 09:00:00 20.25 C 86.6667 % 17.95 C
2974 17-07-2016 10:00:00 22.40833 C 78.1667 % 18.42 C
2975 17-07-2016 11:00:00 23.7 C 71.9167 % 18.33 C
Sensor: Nr:Datum:Temp:Feuchte:Taupunkt:
Aussen-T/F 2976 17-07-2016 12:00:00 24.35 C 74.3333 % 19.49 C
2977 17-07-2016 13:00:00 24.38333 C 73.5833 % 19.36 C
2978 17-07-2016 14:00:00 25.38333 C 74.6667 % 20.55 C
2979 17-07-2016 15:00:00 25.53333 C 70.4167 % 19.75 C
2980 17-07-2016 16:00:00 26.575 C 61.0833 % 18.46 C
2981 17-07-2016 17:00:00 26.34167 C 59.4167 % 17.8 C
2982 17-07-2016 18:00:00 25.89167 C 59.1667 % 17.31 C
2983 17-07-2016 19:00:00 25.15 C 63.3333 % 17.69 C
2984 17-07-2016 20:00:00 24.8 C 66.0833 % 18.03 C
2985 17-07-2016 21:00:00 22.475 C 77.7500 % 18.4 C
2986 17-07-2016 22:00:00 20.85833 C 84.7500 % 18.2 C
2987 17-07-2016 23:00:00 20.19167 C 87.2500 % 18 C
2988 18-07-2016 00:00:00 19.43333 C 89.0833 % 17.59 C
2989 18-07-2016 01:00:00 18.75833 C 91.3333 % 17.32 C
2990 18-07-2016 02:00:00 18.11667 C 92.4167 % 16.87 C
2991 18-07-2016 03:00:00 17.63333 C 93.3333 % 16.54 C
2992 18-07-2016 04:00:00 17.34167 C 93.9167 % 16.35 C
2993 18-07-2016 05:00:00 16.58333 C 93.8333 % 15.59 C
2994 18-07-2016 06:00:00 16.26667 C 94.7500 % 15.42 C
2995 18-07-2016 07:00:00 16.35 C 95.0000 % 15.55 C
2996 18-07-2016 08:00:00 16.95833 C 95.4167 % 16.22 C
2997 18-07-2016 09:00:00 18.11667 C 95.4167 % 17.37 C
2998 18-07-2016 10:00:00 20.675 C 87.4167 % 18.51 C
2999 18-07-2016 11:00:00 23.03333 C 73.8333 % 18.11 C
3000 18-07-2016 12:00:00 23.84167 C 66.7500 % 17.28 C
Sensor: Nr:Datum:Temp:Feuchte:Taupunkt:
Aussen-T/F 3001 18-07-2016 13:00:00 24.39167 C 63.7500 % 17.08 C
3002 18-07-2016 14:00:00 25.325 C 53.5000 % 15.2 C
3003 18-07-2016 15:00:00 27.06667 C 50.5000 % 15.91 C
3004 18-07-2016 16:00:00 29 C 44.7500 % 15.78 C
3005 18-07-2016 17:00:00 29.81667 C 44.7500 % 16.51 C
3006 18-07-2016 18:00:00 30.10833 C 43.3333 % 16.27 C
3007 18-07-2016 19:00:00 29.23333 C 51.1667 % 18.1 C
3008 18-07-2016 20:00:00 25.39167 C 64.0833 % 18.11 C
3009 18-07-2016 21:00:00 22.30833 C 71.0000 % 16.8 C
3010 18-07-2016 22:00:00 20.10833 C 77.8333 % 16.12 C
3011 18-07-2016 23:00:00 18.55833 C 82.2500 % 15.47 C
3012 19-07-2016 00:00:00 17.49167 C 85.7500 % 15.08 C
3013 19-07-2016 01:00:00 16.675 C 88.4167 % 14.75 C
3014 19-07-2016 02:00:00 16.1 C 90.3333 % 14.52 C
3015 19-07-2016 03:00:00 15.475 C 92.4167 % 14.25 C
3016 19-07-2016 04:00:00 15.04167 C 93.2500 % 13.96 C
3017 19-07-2016 05:00:00 14.61667 C 94.0000 % 13.66 C
3018 19-07-2016 06:00:00 14.61667 C 94.8333 % 13.8 C
3019 19-07-2016 07:00:00 14.98333 C 95.0000 % 14.19 C
3020 19-07-2016 08:00:00 15.89167 C 95.0000 % 15.09 C
3021 19-07-2016 09:00:00 17.25833 C 94.7500 % 16.41 C
3022 19-07-2016 10:00:00 19.65 C 91.5833 % 18.24 C
3023 19-07-2016 11:00:00 22.2 C 85.0833 % 19.57 C
3024 19-07-2016 12:00:00 24.98333 C 68.4167 % 18.76 C
3025 19-07-2016 13:00:00 26.69167 C 57.9167 % 17.72 C
Sensor: Nr:Datum:Temp:Feuchte:Taupunkt:
Aussen-T/F 3026 19-07-2016 14:00:00 26.29167 C 67.6667 % 19.83 C
3027 19-07-2016 15:00:00 26.46667 C 69.2500 % 20.37 C
3028 19-07-2016 16:00:00 29.76667 C 62.8333 % 21.92 C
3029 19-07-2016 17:00:00 31.61667 C 56.0000 % 21.76 C
3030 19-07-2016 18:00:00 32.075 C 53.1667 % 21.33 C
3031 19-07-2016 19:00:00 29.95 C 58.2500 % 20.85 C
3032 19-07-2016 20:00:00 26.71667 C 62.3333 % 18.91 C
3033 19-07-2016 21:00:00 23.65 C 67.6667 % 17.32 C
3034 19-07-2016 22:00:00 21.04167 C 73.5000 % 16.12 C
3035 19-07-2016 23:00:00 19.55 C 78.4167 % 15.69 C
3036 20-07-2016 00:00:00 18.25 C 83.7500 % 15.45 C
3037 20-07-2016 01:00:00 17.325 C 87.4167 % 15.21 C
3038 20-07-2016 02:00:00 16.71667 C 89.3333 % 14.95 C
3039 20-07-2016 03:00:00 16.075 C 91.1667 % 14.63 C
3040 20-07-2016 04:00:00 15.50833 C 92.5000 % 14.3 C
3041 20-07-2016 05:00:00 15.01667 C 93.4167 % 13.96 C
3042 20-07-2016 06:00:00 14.775 C 94.0833 % 13.83 C
3043 20-07-2016 07:00:00 15.2 C 95.0000 % 14.4 C
3044 20-07-2016 08:00:00 16.14167 C 95.3333 % 15.39 C
3045 20-07-2016 09:00:00 17.85833 C 95.0000 % 17.05 C
3046 20-07-2016 10:00:00 20.58333 C 90.0000 % 18.88 C
3047 20-07-2016 11:00:00 23.99167 C 78.5000 % 20.02 C
3048 20-07-2016 12:00:00 27.03333 C 65.8333 % 20.09 C
3049 20-07-2016 13:00:00 29.05 C 58.2500 % 20.01 C
3050 20-07-2016 14:00:00 30.20833 C 55.5000 % 20.31 C
Sensor: Nr:Datum:Temp:Feuchte:Taupunkt:
Aussen-T/F 3051 20-07-2016 15:00:00 32.19167 C 50.1667 % 20.5 C
3052 20-07-2016 16:00:00 34.70833 C 45.3333 % 21.14 C
3053 20-07-2016 17:00:00 34.75 C 51.2500 % 23.19 C
3054 20-07-2016 18:00:00 32.93333 C 54.2500 % 22.46 C
3055 20-07-2016 19:00:00 30.2 C 56.7500 % 20.66 C
3056 20-07-2016 20:00:00 26.63333 C 63.8333 % 19.22 C
3057 20-07-2016 21:00:00 25.88333 C 67.0833 % 19.3 C
3058 20-07-2016 22:00:00 25.25 C 70.0833 % 19.4 C
3059 20-07-2016 23:00:00 23.9 C 73.2500 % 18.82 C
3060 21-07-2016 00:00:00 23.5 C 74.0000 % 18.6 C
3061 21-07-2016 01:00:00 22.8 C 77.2500 % 18.61 C
3062 21-07-2016 02:00:00 22.39167 C 77.8333 % 18.33 C
3063 21-07-2016 03:00:00 22.5 C 77.0833 % 18.28 C
3064 21-07-2016 04:00:00 22.64167 C 76.9167 % 18.39 C
3065 21-07-2016 05:00:00 21.76667 C 79.8333 % 18.13 C
3066 21-07-2016 06:00:00 20.55833 C 84.5833 % 17.87 C
3067 21-07-2016 07:00:00 20.075 C 86.2500 % 17.71 C
3068 21-07-2016 08:00:00 19.28333 C 91.5833 % 17.88 C
3069 21-07-2016 09:00:00 19.21667 C 94.4167 % 18.3 C
3070 21-07-2016 10:00:00 19.85 C 95.0000 % 19.02 C
3071 21-07-2016 11:00:00 20.69167 C 94.6667 % 19.8 C
3072 21-07-2016 12:00:00 22.24167 C 90.8333 % 20.67 C
3073 21-07-2016 13:00:00 23.34167 C 83.3333 % 20.35 C
3074 21-07-2016 14:00:00 24.89167 C 75.2500 % 20.21 C
3075 21-07-2016 15:00:00 25.84167 C 77.0833 % 21.52 C
Sensor: Nr:Datum:Temp:Feuchte:Taupunkt:
Aussen-T/F 3076 21-07-2016 16:00:00 23.1 C 83.3333 % 20.12 C
3077 21-07-2016 17:00:00 20.71667 C 90.5833 % 19.12 C
3078 21-07-2016 18:00:00 19.76667 C 93.5833 % 18.7 C
3079 21-07-2016 19:00:00 19.6 C 94.5833 % 18.71 C
3080 21-07-2016 20:00:00 19.00833 C 94.8333 % 18.16 C
3081 21-07-2016 21:00:00 18.91667 C 95.2500 % 18.14 C
3082 21-07-2016 22:00:00 18.64167 C 95.8333 % 17.96 C
3083 21-07-2016 23:00:00 18.4 C 96.0000 % 17.75 C
3084 22-07-2016 00:00:00 18.24167 C 96.0000 % 17.59 C
3085 22-07-2016 01:00:00 18.05 C 96.0000 % 17.4 C
3086 22-07-2016 02:00:00 17.95 C 96.1667 % 17.33 C
3087 22-07-2016 03:00:00 17.35 C 96.0000 % 16.71 C
3088 22-07-2016 04:00:00 17.00833 C 96.3333 % 16.42 C
3089 22-07-2016 05:00:00 16.71667 C 96.5000 % 16.16 C
3090 22-07-2016 06:00:00 16.675 C 96.9167 % 16.18 C
3091 22-07-2016 07:00:00 17.34167 C 97.0000 % 16.86 C
3092 22-07-2016 08:00:00 17.58333 C 97.0000 % 17.1 C
3093 22-07-2016 09:00:00 18.20833 C 97.0000 % 17.72 C
3094 22-07-2016 10:00:00 19.36667 C 97.0000 % 18.88 C
3095 22-07-2016 11:00:00 21.03333 C 96.5833 % 20.47 C
3096 22-07-2016 12:00:00 23.06667 C 92.4167 % 21.77 C
3097 22-07-2016 13:00:00 24.75833 C 85.3333 % 22.13 C
3098 22-07-2016 14:00:00 26.55 C 73.3333 % 21.38 C
3099 22-07-2016 15:00:00 27.55 C 73.6667 % 22.42 C
3100 22-07-2016 16:00:00 28.64167 C 66.0000 % 21.66 C
Sensor: Nr:Datum:Temp:Feuchte:Taupunkt:
Aussen-T/F 3101 22-07-2016 17:00:00 27.01667 C 66.5000 % 20.24 C
3102 22-07-2016 18:00:00 25.2 C 77.1667 % 20.91 C
3103 22-07-2016 19:00:00 22.74167 C 84.0000 % 19.9 C
3104 22-07-2016 20:00:00 21.64167 C 87.5000 % 19.48 C
3105 22-07-2016 21:00:00 20.71667 C 88.0000 % 18.66 C
3106 22-07-2016 22:00:00 19.98333 C 88.6667 % 18.05 C
3107 22-07-2016 23:00:00 19.84167 C 89.3333 % 18.03 C
3108 23-07-2016 00:00:00 19.475 C 90.8333 % 17.94 C
3109 23-07-2016 01:00:00 19.16667 C 92.4167 % 17.91 C
3110 23-07-2016 02:00:00 18.90833 C 93.0000 % 17.75 C
3111 23-07-2016 03:00:00 18.60833 C 93.0000 % 17.45 C
3112 23-07-2016 04:00:00 18.375 C 93.2500 % 17.27 C
3113 23-07-2016 05:00:00 18.33333 C 94.1667 % 17.38 C
3114 23-07-2016 06:00:00 18.35833 C 95.0000 % 17.54 C
3115 23-07-2016 07:00:00 18.69167 C 95.4167 % 17.94 C
3116 23-07-2016 08:00:00 19.15833 C 95.4167 % 18.41 C
3117 23-07-2016 09:00:00 19.925 C 94.7500 % 19.06 C
3118 23-07-2016 10:00:00 20.625 C 92.5833 % 19.38 C
3119 23-07-2016 11:00:00 21.11667 C 91.3333 % 19.65 C
3120 23-07-2016 12:00:00 22 C 86.5833 % 19.66 C
3121 23-07-2016 13:00:00 22.98333 C 81.7500 % 19.69 C
3122 23-07-2016 14:00:00 24.1 C 77.0000 % 19.81 C
3123 23-07-2016 15:00:00 23.44167 C 79.6667 % 19.72 C
3124 23-07-2016 16:00:00 22.61667 C 85.0833 % 19.98 C
3125 23-07-2016 17:00:00 20.60833 C 92.6667 % 19.38 C
Sensor: Nr:Datum:Temp:Feuchte:Taupunkt:
Aussen-T/F 3126 23-07-2016 18:00:00 20.78333 C 94.7500 % 19.91 C
3127 23-07-2016 19:00:00 21.075 C 95.0000 % 20.24 C
3128 23-07-2016 20:00:00 20.64167 C 95.0833 % 19.83 C
3129 23-07-2016 21:00:00 20.25833 C 95.5833 % 19.53 C
3130 23-07-2016 22:00:00 19.625 C 95.9167 % 18.96 C
3131 23-07-2016 23:00:00 19.36667 C 96.0000 % 18.71 C
3132 24-07-2016 00:00:00 19.2 C 96.0000 % 18.55 C
3133 24-07-2016 01:00:00 19.13333 C 96.4167 % 18.55 C
3134 24-07-2016 02:00:00 19.1 C 96.6667 % 18.56 C
3135 24-07-2016 03:00:00 19.10833 C 97.0000 % 18.62 C
3136 24-07-2016 04:00:00 19.03333 C 97.0000 % 18.55 C
3137 24-07-2016 05:00:00 18.60833 C 96.8333 % 18.1 C
3138 24-07-2016 06:00:00 18.66667 C 97.0000 % 18.18 C
3139 24-07-2016 07:00:00 19.01667 C 97.0000 % 18.53 C
3140 24-07-2016 08:00:00 19.41667 C 97.0000 % 18.93 C
3141 24-07-2016 09:00:00 19.70833 C 96.8333 % 19.19 C
3142 24-07-2016 10:00:00 20.34167 C 93.8333 % 19.31 C
3143 24-07-2016 11:00:00 21.51667 C 89.6667 % 19.75 C
3144 24-07-2016 12:00:00 23.06667 C 81.5833 % 19.74 C
3145 24-07-2016 13:00:00 23.76667 C 80.0833 % 20.12 C
3146 24-07-2016 14:00:00 24.55833 C 75.4167 % 19.92 C
3147 24-07-2016 15:00:00 26.15833 C 67.6667 % 19.7 C
3148 24-07-2016 16:00:00 27.88333 C 63.5000 % 20.31 C
3149 24-07-2016 17:00:00 28.375 C 60.8333 % 20.08 C
3150 24-07-2016 18:00:00 28.35 C 61.5000 % 20.23 C
Sensor: Nr:Datum:Temp:Feuchte:Taupunkt:
Aussen-T/F 3151 24-07-2016 19:00:00 27.69167 C 67.5833 % 21.14 C
3152 24-07-2016 20:00:00 24.725 C 78.3333 % 20.7 C
3153 24-07-2016 21:00:00 21.95 C 84.2500 % 19.17 C
3154 24-07-2016 22:00:00 20.7 C 88.0833 % 18.66 C
3155 24-07-2016 23:00:00 20.18333 C 90.9167 % 18.65 C
3156 25-07-2016 00:00:00 19.78333 C 91.8333 % 18.42 C
3157 25-07-2016 01:00:00 19.65833 C 91.9167 % 18.31 C
3158 25-07-2016 02:00:00 18.81667 C 92.4167 % 17.56 C
3159 25-07-2016 03:00:00 18.33333 C 93.9167 % 17.34 C
3160 25-07-2016 04:00:00 17.88333 C 94.4167 % 16.97 C
3161 25-07-2016 05:00:00 17.575 C 95.0000 % 16.76 C
3162 25-07-2016 06:00:00 17.39167 C 95.2500 % 16.62 C
3163 25-07-2016 07:00:00 18.18333 C 95.7500 % 17.49 C
3164 25-07-2016 08:00:00 19.15833 C 94.4167 % 18.24 C
3165 25-07-2016 09:00:00 20.20833 C 90.5833 % 18.62 C
3166 25-07-2016 10:00:00 21.71667 C 81.4167 % 18.39 C
3167 25-07-2016 11:00:00 23.11667 C 72.7500 % 17.96 C
3168 25-07-2016 12:00:00 24.08333 C 70.1667 % 18.31 C
3169 25-07-2016 13:00:00 24.41667 C 73.1667 % 19.3 C
3170 25-07-2016 14:00:00 25.15 C 69.3333 % 19.14 C
3171 25-07-2016 15:00:00 26.025 C 66.0833 % 19.2 C
3172 25-07-2016 16:00:00 26.40833 C 61.5833 % 18.43 C
3173 25-07-2016 17:00:00 25.93333 C 66.1667 % 19.13 C
3174 25-07-2016 18:00:00 24.93333 C 74.3333 % 20.05 C
3175 25-07-2016 19:00:00 25.05833 C 73.8333 % 20.06 C
Sensor: Nr:Datum:Temp:Feuchte:Taupunkt:
Aussen-T/F 3176 25-07-2016 20:00:00 25.28333 C 66.8333 % 18.67 C
3177 25-07-2016 21:00:00 22.55833 C 80.3333 % 19 C
3178 25-07-2016 22:00:00 21.55833 C 83.7500 % 18.69 C
3179 25-07-2016 23:00:00 20.425 C 85.3333 % 17.88 C
3180 26-07-2016 00:00:00 19.525 C 88.4167 % 17.56 C
3181 26-07-2016 01:00:00 18.71667 C 91.3333 % 17.27 C
3182 26-07-2016 02:00:00 18.15833 C 93.0000 % 17.01 C
3183 26-07-2016 03:00:00 18.025 C 93.4167 % 16.95 C
3184 26-07-2016 04:00:00 17.89167 C 94.0000 % 16.91 C
3185 26-07-2016 05:00:00 17.55 C 94.0833 % 16.59 C
3186 26-07-2016 06:00:00 17.59167 C 95.0000 % 16.78 C
3187 26-07-2016 07:00:00 18.49167 C 94.9167 % 17.66 C
3188 26-07-2016 08:00:00 19.54167 C 91.5000 % 18.12 C
3189 26-07-2016 09:00:00 20.63333 C 88.0833 % 18.59 C
3190 26-07-2016 10:00:00 20.7 C 87.4167 % 18.53 C
3191 26-07-2016 11:00:00 20.85833 C 86.6667 % 18.55 C
3192 26-07-2016 12:00:00 22.19167 C 82.0000 % 18.97 C
3193 26-07-2016 13:00:00 23.28333 C 78.5000 % 19.33 C
3194 26-07-2016 14:00:00 24.18333 C 75.0000 % 19.47 C
3195 26-07-2016 15:00:00 24.15833 C 73.2500 % 19.07 C
3196 26-07-2016 16:00:00 23.04167 C 77.0000 % 18.79 C
3197 26-07-2016 17:00:00 21.73333 C 80.0833 % 18.15 C
3198 26-07-2016 18:00:00 22.625 C 76.5000 % 18.28 C
3199 26-07-2016 19:00:00 21.65833 C 79.6667 % 17.99 C
3200 26-07-2016 20:00:00 20.825 C 81.2500 % 17.49 C
Sensor: Nr:Datum:Temp:Feuchte:Taupunkt:
Aussen-T/F 3201 26-07-2016 21:00:00 18.875 C 87.1667 % 16.69 C
3202 26-07-2016 22:00:00 17.44167 C 91.1667 % 15.99 C
3203 26-07-2016 23:00:00 17.15 C 92.5833 % 15.94 C
3204 27-07-2016 00:00:00 16.63333 C 93.0000 % 15.5 C
3205 27-07-2016 01:00:00 16.03333 C 93.6667 % 15.01 C
3206 27-07-2016 02:00:00 16.08333 C 94.8333 % 15.25 C
3207 27-07-2016 03:00:00 15.98333 C 95.0000 % 15.18 C
3208 27-07-2016 04:00:00 15.775 C 95.2500 % 15.02 C
3209 27-07-2016 05:00:00 15.76667 C 95.4167 % 15.04 C
3210 27-07-2016 06:00:00 15.51667 C 95.6667 % 14.83 C
3211 27-07-2016 07:00:00 15.94167 C 96.0000 % 15.3 C
3212 27-07-2016 08:00:00 16.5 C 95.0000 % 15.7 C
3213 27-07-2016 09:00:00 17.60833 C 91.7500 % 16.25 C
3214 27-07-2016 10:00:00 18.90833 C 86.5833 % 16.62 C
3215 27-07-2016 11:00:00 20.625 C 78.8333 % 16.82 C
3216 27-07-2016 12:00:00 22.1 C 73.2500 % 17.09 C
3217 27-07-2016 13:00:00 23.10833 C 67.7500 % 16.82 C
3218 27-07-2016 14:00:00 23.83333 C 59.5000 % 15.47 C
3219 27-07-2016 15:00:00 23.85 C 63.4167 % 16.48 C
3220 27-07-2016 16:00:00 23.875 C 62.4167 % 16.26 C
3221 27-07-2016 17:00:00 25.75833 C 57.2500 % 16.67 C
3222 27-07-2016 18:00:00 25.1 C 59.4167 % 16.64 C
3223 27-07-2016 19:00:00 22.81667 C 70.0833 % 17.08 C
3224 27-07-2016 20:00:00 20.59167 C 77.0000 % 16.42 C
3225 27-07-2016 21:00:00 20.00833 C 77.8333 % 16.02 C
Sensor: Nr:Datum:Temp:Feuchte:Taupunkt:
Aussen-T/F 3226 27-07-2016 22:00:00 19.50833 C 82.2500 % 16.4 C
3227 27-07-2016 23:00:00 19.19167 C 83.5833 % 16.34 C
3228 28-07-2016 00:00:00 18.575 C 84.4167 % 15.9 C
3229 28-07-2016 01:00:00 18.05 C 86.2500 % 15.72 C
3230 28-07-2016 02:00:00 17.65833 C 87.8333 % 15.62 C
3231 28-07-2016 03:00:00 17.55833 C 88.6667 % 15.67 C
3232 28-07-2016 04:00:00 17.15 C 89.0000 % 15.32 C
3233 28-07-2016 05:00:00 16.60833 C 90.0000 % 14.96 C
3234 28-07-2016 06:00:00 16.43333 C 91.9167 % 15.12 C
3235 28-07-2016 07:00:00 17.09167 C 92.7500 % 15.91 C
3236 28-07-2016 08:00:00 18.45 C 88.8333 % 16.57 C
3237 28-07-2016 09:00:00 20.05833 C 84.0833 % 17.29 C
3238 28-07-2016 10:00:00 21.16667 C 80.0000 % 17.58 C
3239 28-07-2016 11:00:00 21.85833 C 75.5833 % 17.35 C
3240 28-07-2016 12:00:00 22.91667 C 71.4167 % 17.47 C
3241 28-07-2016 13:00:00 23.475 C 68.4167 % 17.33 C
3242 28-07-2016 14:00:00 24.30833 C 65.5000 % 17.43 C
3243 28-07-2016 15:00:00 23.9 C 68.5000 % 17.75 C
3244 28-07-2016 16:00:00 22.64167 C 78.5833 % 18.73 C
3245 28-07-2016 17:00:00 23.05 C 81.4167 % 19.69 C
3246 28-07-2016 18:00:00 23.14167 C 77.5000 % 18.99 C
3247 28-07-2016 19:00:00 22.49167 C 80.0833 % 18.88 C
3248 28-07-2016 20:00:00 21.24167 C 84.5000 % 18.52 C
3249 28-07-2016 21:00:00 19.71667 C 88.2500 % 17.72 C
3250 28-07-2016 22:00:00 18.825 C 91.0000 % 17.32 C
Sensor: Nr:Datum:Temp:Feuchte:Taupunkt:
Aussen-T/F 3251 28-07-2016 23:00:00 18.475 C 92.6667 % 17.26 C
3252 29-07-2016 00:00:00 18.26667 C 92.7500 % 17.07 C
3253 29-07-2016 01:00:00 17.50833 C 92.0000 % 16.19 C
3254 29-07-2016 02:00:00 16.39167 C 92.4167 % 15.16 C
3255 29-07-2016 03:00:00 15.64167 C 93.5000 % 14.6 C
3256 29-07-2016 04:00:00 16.23333 C 94.4167 % 15.34 C
3257 29-07-2016 05:00:00 16.675 C 94.0000 % 15.7 C
3258 29-07-2016 06:00:00 16.68333 C 94.1667 % 15.74 C
3259 29-07-2016 07:00:00 17.03333 C 95.0000 % 16.23 C
3260 29-07-2016 08:00:00 17.475 C 94.1667 % 16.53 C
3261 29-07-2016 09:00:00 18.55 C 89.1667 % 16.73 C
3262 29-07-2016 10:00:00 19.29167 C 87.8333 % 17.22 C
3263 29-07-2016 11:00:00 19.58333 C 90.9167 % 18.06 C
3264 29-07-2016 12:00:00 21.025 C 87.7500 % 18.91 C
3265 29-07-2016 13:00:00 22.725 C 78.9167 % 18.88 C
3266 29-07-2016 14:00:00 24.29167 C 70.8333 % 18.66 C
3267 29-07-2016 15:00:00 23.725 C 72.2500 % 18.43 C
3268 29-07-2016 16:00:00 24.16667 C 69.8333 % 18.31 C
3269 29-07-2016 17:00:00 23.99167 C 71.1667 % 18.45 C
3270 29-07-2016 18:00:00 23.95833 C 71.1667 % 18.41 C
3271 29-07-2016 19:00:00 22.68333 C 75.3333 % 18.09 C
3272 29-07-2016 20:00:00 22.08333 C 75.9167 % 17.64 C
3273 29-07-2016 21:00:00 19.88333 C 83.4167 % 16.99 C
3274 29-07-2016 22:00:00 18.85833 C 87.8333 % 16.8 C
3275 29-07-2016 23:00:00 18.725 C 88.4167 % 16.77 C
Sensor: Nr:Datum:Temp:Feuchte:Taupunkt:
Aussen-T/F 3276 30-07-2016 00:00:00 18.8 C 88.9167 % 16.93 C
3277 30-07-2016 01:00:00 18.8 C 89.1667 % 16.98 C
3278 30-07-2016 02:00:00 18.63333 C 90.4167 % 17.03 C
3279 30-07-2016 03:00:00 18.14167 C 92.5833 % 16.92 C
3280 30-07-2016 04:00:00 18.1 C 93.1667 % 16.98 C
3281 30-07-2016 05:00:00 17.60833 C 93.0000 % 16.46 C
3282 30-07-2016 06:00:00 17.23333 C 93.8333 % 16.23 C
3283 30-07-2016 07:00:00 17.875 C 94.5000 % 16.98 C
3284 30-07-2016 08:00:00 18.79167 C 90.9167 % 17.28 C
3285 30-07-2016 09:00:00 19.875 C 84.8333 % 17.25 C
3286 30-07-2016 10:00:00 20.99167 C 79.2500 % 17.26 C
3287 30-07-2016 11:00:00 21.55 C 69.8333 % 15.81 C
3288 30-07-2016 12:00:00 22.31667 C 64.2500 % 15.24 C
3289 30-07-2016 13:00:00 22.925 C 62.7500 % 15.45 C
3290 30-07-2016 14:00:00 23.55 C 62.5833 % 15.99 C
3291 30-07-2016 15:00:00 23.8 C 65.3333 % 16.91 C
3292 30-07-2016 16:00:00 24.73333 C 62.1667 % 17 C
3293 30-07-2016 17:00:00 25.06667 C 57.5000 % 16.09 C
3294 30-07-2016 18:00:00 24.025 C 63.2500 % 16.61 C
3295 30-07-2016 19:00:00 23.34167 C 65.7500 % 16.57 C
3296 30-07-2016 20:00:00 21.1 C 76.3333 % 16.77 C
3297 30-07-2016 21:00:00 19.28333 C 80.9167 % 15.93 C
3298 30-07-2016 22:00:00 18.63333 C 83.7500 % 15.83 C
3299 30-07-2016 23:00:00 18.09167 C 84.5833 % 15.45 C
3300 31-07-2016 00:00:00 17.425 C 88.2500 % 15.46 C
Sensor: Nr:Datum:Temp:Feuchte:Taupunkt:
Aussen-T/F 3301 31-07-2016 01:00:00 16.6 C 89.9167 % 14.94 C
3302 31-07-2016 02:00:00 16.375 C 91.9167 % 15.06 C
3303 31-07-2016 03:00:00 16.08333 C 92.0833 % 14.8 C
3304 31-07-2016 04:00:00 15.9 C 92.7500 % 14.73 C
3305 31-07-2016 05:00:00 15.775 C 93.0000 % 14.65 C
3306 31-07-2016 06:00:00 15.68333 C 93.8333 % 14.69 C
3307 31-07-2016 07:00:00 16.3 C 93.6667 % 15.28 C
3308 31-07-2016 08:00:00 17.375 C 90.2500 % 15.76 C
3309 31-07-2016 09:00:00 19.04167 C 81.9167 % 15.88 C
3310 31-07-2016 10:00:00 19.5 C 79.5833 % 15.88 C
3311 31-07-2016 11:00:00 19.88333 C 76.4167 % 15.61 C
3312 31-07-2016 12:00:00 20.68333 C 73.0000 % 15.67 C
3313 31-07-2016 13:00:00 21.2 C 70.2500 % 15.57 C
3314 31-07-2016 14:00:00 21.19167 C 68.1667 % 15.09 C
3315 31-07-2016 15:00:00 18.43333 C 80.8333 % 15.08 C
3316 31-07-2016 16:00:00 19.60833 C 70.0000 % 13.99 C
3317 31-07-2016 17:00:00 19.81667 C 67.3333 % 13.59 C
3318 31-07-2016 18:00:00 21.8 C 61.7500 % 14.14 C
3319 31-07-2016 19:00:00 20.525 C 62.3333 % 13.08 C
3320 31-07-2016 20:00:00 19.25833 C 68.0000 % 13.21 C
3321 31-07-2016 21:00:00 16.79167 C 79.5833 % 13.24 C
3322 31-07-2016 22:00:00 15.64167 C 85.0833 % 13.14 C
3323 31-07-2016 23:00:00 14.575 C 88.1667 % 12.64 C
3324 01-08-2016 00:00:00 13.81667 C 89.2500 % 12.08 C
3325 01-08-2016 01:00:00 12.84167 C 90.7500 % 11.37 C
Sensor: Nr:Datum:Temp:Feuchte:Taupunkt:
Aussen-T/F 3326 01-08-2016 02:00:00 12.34167 C 91.7500 % 11.04 C
3327 01-08-2016 03:00:00 11.75833 C 92.5000 % 10.58 C
3328 01-08-2016 04:00:00 11.10833 C 93.0833 % 10.03 C
3329 01-08-2016 05:00:00 10.63333 C 94.0000 % 9.71 C
3330 01-08-2016 06:00:00 10.45 C 94.5833 % 9.62 C
3331 01-08-2016 07:00:00 10.55 C 95.0000 % 9.78 C
3332 01-08-2016 08:00:00 11.125 C 95.3333 % 10.41 C
3333 01-08-2016 09:00:00 12.59167 C 96.0000 % 11.97 C
3334 01-08-2016 10:00:00 14.94167 C 92.1667 % 13.68 C
3335 01-08-2016 11:00:00 18.64167 C 73.2500 % 13.76 C
3336 01-08-2016 12:00:00 21.05 C 64.4167 % 14.08 C
3337 01-08-2016 13:00:00 21 C 67.5833 % 14.77 C
3338 01-08-2016 14:00:00 21.58333 C 62.6667 % 14.16 C
3339 01-08-2016 15:00:00 20.76667 C 73.5833 % 15.88 C
3340 01-08-2016 16:00:00 20.64167 C 76.4167 % 16.35 C
3341 01-08-2016 17:00:00 24.10833 C 49.6667 % 12.94 C
3342 01-08-2016 18:00:00 25.26667 C 47.7500 % 13.39 C
3343 01-08-2016 19:00:00 23.88333 C 49.9167 % 12.81 C
3344 01-08-2016 20:00:00 19.75 C 68.7500 % 13.85 C
3345 01-08-2016 21:00:00 17.65 C 69.1667 % 11.93 C
3346 01-08-2016 22:00:00 16.86667 C 75.7500 % 12.56 C
3347 01-08-2016 23:00:00 15.98333 C 80.0833 % 12.55 C
3348 02-08-2016 00:00:00 15.88333 C 81.0000 % 12.63 C
3349 02-08-2016 01:00:00 15.85833 C 81.5000 % 12.7 C
3350 02-08-2016 02:00:00 15.31667 C 83.4167 % 12.52 C
Sensor: Nr:Datum:Temp:Feuchte:Taupunkt:
Aussen-T/F 3351 02-08-2016 03:00:00 15.24167 C 85.4167 % 12.81 C
3352 02-08-2016 04:00:00 15.125 C 89.2500 % 13.37 C
3353 02-08-2016 05:00:00 14.79167 C 92.7500 % 13.63 C
3354 02-08-2016 06:00:00 14.6 C 93.5833 % 13.58 C
3355 02-08-2016 07:00:00 14.81667 C 94.5000 % 13.94 C
3356 02-08-2016 08:00:00 15.225 C 95.0000 % 14.43 C
3357 02-08-2016 09:00:00 15.725 C 95.0000 % 14.93 C
3358 02-08-2016 10:00:00 15.85 C 94.8333 % 15.02 C
3359 02-08-2016 11:00:00 15.775 C 94.8333 % 14.95 C
3360 02-08-2016 12:00:00 16.10833 C 94.9167 % 15.29 C
3361 02-08-2016 13:00:00 16.46667 C 94.5833 % 15.59 C
3362 02-08-2016 14:00:00 17.03333 C 94.5000 % 16.14 C
3363 02-08-2016 15:00:00 17.33333 C 94.4167 % 16.43 C
3364 02-08-2016 16:00:00 17.49167 C 94.0833 % 16.53 C
3365 02-08-2016 17:00:00 17.49167 C 94.0833 % 16.53 C
3366 02-08-2016 18:00:00 17.4 C 94.0833 % 16.44 C
3367 02-08-2016 19:00:00 17.20833 C 93.8333 % 16.21 C
3368 02-08-2016 20:00:00 17.1 C 93.6667 % 16.07 C
3369 02-08-2016 21:00:00 16.84167 C 94.6667 % 15.98 C
3370 02-08-2016 22:00:00 16.7 C 95.2500 % 15.94 C
3371 02-08-2016 23:00:00 16.66667 C 96.0000 % 16.03 C
3372 03-08-2016 00:00:00 16.63333 C 96.0000 % 15.99 C
3373 03-08-2016 01:00:00 16.75833 C 95.5833 % 16.05 C
3374 03-08-2016 02:00:00 17 C 95.3333 % 16.25 C
3375 03-08-2016 03:00:00 17.21667 C 95.1667 % 16.44 C
Sensor: Nr:Datum:Temp:Feuchte:Taupunkt:
Aussen-T/F 3376 03-08-2016 04:00:00 17.35833 C 95.5833 % 16.65 C
3377 03-08-2016 05:00:00 17.64167 C 94.9167 % 16.82 C
3378 03-08-2016 06:00:00 17.85 C 93.5000 % 16.79 C
3379 03-08-2016 07:00:00 17.79167 C 94.5833 % 16.91 C
3380 03-08-2016 08:00:00 17.875 C 94.9167 % 17.05 C
3381 03-08-2016 09:00:00 18.61667 C 93.3333 % 17.52 C
3382 03-08-2016 10:00:00 19.3 C 91.2500 % 17.84 C
3383 03-08-2016 11:00:00 19.90833 C 90.9167 % 18.38 C
3384 03-08-2016 12:00:00 19.875 C 91.8333 % 18.51 C
3385 03-08-2016 13:00:00 19.475 C 91.5833 % 18.07 C
3386 03-08-2016 14:00:00 19 C 93.7500 % 17.97 C
3387 03-08-2016 15:00:00 19 C 94.8333 % 18.15 C
3388 03-08-2016 16:00:00 19.70833 C 93.6667 % 18.66 C
3389 03-08-2016 17:00:00 20.25 C 92.6667 % 19.02 C
3390 03-08-2016 18:00:00 19.875 C 93.2500 % 18.75 C
3391 03-08-2016 19:00:00 19.63333 C 94.0000 % 18.64 C
3392 03-08-2016 20:00:00 19.14167 C 94.7500 % 18.28 C
3393 03-08-2016 21:00:00 18.675 C 95.0000 % 17.86 C
3394 03-08-2016 22:00:00 18.4 C 95.8333 % 17.72 C
3395 03-08-2016 23:00:00 18.25833 C 96.0000 % 17.61 C
3396 04-08-2016 00:00:00 18.1 C 96.0000 % 17.45 C
3397 04-08-2016 01:00:00 17.94167 C 96.0000 % 17.29 C
3398 04-08-2016 02:00:00 17.59167 C 96.1667 % 16.97 C
3399 04-08-2016 03:00:00 17.03333 C 96.1667 % 16.42 C
3400 04-08-2016 04:00:00 17.00833 C 97.0000 % 16.53 C
Sensor: Nr:Datum:Temp:Feuchte:Taupunkt:
Aussen-T/F 3401 04-08-2016 05:00:00 17.11667 C 97.0000 % 16.64 C
3402 04-08-2016 06:00:00 17.25 C 97.0000 % 16.77 C
3403 04-08-2016 07:00:00 17.13333 C 97.0000 % 16.65 C
3404 04-08-2016 08:00:00 17.10833 C 97.0000 % 16.63 C
3405 04-08-2016 09:00:00 17.65833 C 97.0000 % 17.18 C
3406 04-08-2016 10:00:00 18.475 C 97.0000 % 17.99 C
3407 04-08-2016 11:00:00 19.15833 C 96.9167 % 18.66 C
3408 04-08-2016 12:00:00 19.94167 C 93.8333 % 18.92 C
3409 04-08-2016 13:00:00 20.6 C 90.8333 % 19.05 C
3410 04-08-2016 14:00:00 20.44167 C 90.1667 % 18.77 C
3411 04-08-2016 15:00:00 19.81667 C 91.6667 % 18.42 C
3412 04-08-2016 16:00:00 19.81667 C 90.1667 % 18.16 C
3413 04-08-2016 17:00:00 18.75833 C 92.1667 % 17.46 C
3414 04-08-2016 18:00:00 18.41667 C 93.8333 % 17.41 C
3415 04-08-2016 19:00:00 18.05833 C 93.3333 % 16.97 C
3416 04-08-2016 20:00:00 17.39167 C 93.6667 % 16.36 C
3417 04-08-2016 21:00:00 16.45833 C 93.8333 % 15.46 C
3418 04-08-2016 22:00:00 15.79167 C 94.5000 % 14.91 C
3419 04-08-2016 23:00:00 15.33333 C 95.0000 % 14.54 C
3420 05-08-2016 00:00:00 14.93333 C 95.0000 % 14.14 C
3421 05-08-2016 01:00:00 14.43333 C 95.5833 % 13.74 C
3422 05-08-2016 02:00:00 14.15 C 95.8333 % 13.5 C
3423 05-08-2016 03:00:00 13.79167 C 96.0000 % 13.17 C
3424 05-08-2016 04:00:00 13.625 C 96.0000 % 13 C
3425 05-08-2016 05:00:00 13.5 C 96.2500 % 12.91 C
Sensor: Nr:Datum:Temp:Feuchte:Taupunkt:
Aussen-T/F 3426 05-08-2016 06:00:00 13.375 C 96.3333 % 12.8 C
3427 05-08-2016 07:00:00 13.29167 C 96.8333 % 12.8 C
3428 05-08-2016 08:00:00 13.74167 C 97.0000 % 13.27 C
3429 05-08-2016 09:00:00 14.65833 C 95.5833 % 13.96 C
3430 05-08-2016 10:00:00 16.71667 C 88.1667 % 14.75 C
3431 05-08-2016 11:00:00 17.6 C 82.3333 % 14.55 C
3432 05-08-2016 12:00:00 18.44167 C 80.4167 % 15.01 C
3433 05-08-2016 13:00:00 19.68333 C 79.3333 % 16.01 C
3434 05-08-2016 14:00:00 19.25 C 86.3333 % 16.91 C
3435 05-08-2016 15:00:00 19.35 C 85.4167 % 16.84 C
3436 05-08-2016 16:00:00 21.79167 C 76.7500 % 17.53 C
3437 05-08-2016 17:00:00 21.1 C 78.0833 % 17.13 C
3438 05-08-2016 18:00:00 19.79167 C 71.0000 % 14.38 C
3439 05-08-2016 19:00:00 19.16667 C 78.1667 % 15.27 C
3440 05-08-2016 20:00:00 17.90833 C 86.5833 % 15.64 C
3441 05-08-2016 21:00:00 16.84167 C 88.2500 % 14.89 C
3442 05-08-2016 22:00:00 15.85833 C 90.8333 % 14.36 C
3443 05-08-2016 23:00:00 15.01667 C 93.0833 % 13.91 C
3444 06-08-2016 00:00:00 14.525 C 94.2500 % 13.61 C
3445 06-08-2016 01:00:00 14.34167 C 95.0833 % 13.57 C
3446 06-08-2016 02:00:00 14.63333 C 95.9167 % 13.99 C
3447 06-08-2016 03:00:00 14.79167 C 96.0000 % 14.16 C
3448 06-08-2016 04:00:00 14.35 C 95.0000 % 13.56 C
3449 06-08-2016 05:00:00 13.55833 C 95.1667 % 12.8 C
3450 06-08-2016 06:00:00 13.24167 C 96.0000 % 12.62 C
Sensor: Nr:Datum:Temp:Feuchte:Taupunkt:
Aussen-T/F 3451 06-08-2016 07:00:00 13.65833 C 96.3333 % 13.09 C
3452 06-08-2016 08:00:00 14.54167 C 96.5833 % 14 C
3453 06-08-2016 09:00:00 16 C 92.3333 % 14.76 C
3454 06-08-2016 10:00:00 17.75833 C 83.2500 % 14.88 C
3455 06-08-2016 11:00:00 19.06667 C 77.5000 % 15.04 C
3456 06-08-2016 12:00:00 19.975 C 79.3333 % 16.29 C
3457 06-08-2016 13:00:00 19.95833 C 81.3333 % 16.66 C
3458 06-08-2016 14:00:00 20.8 C 81.5833 % 17.53 C
3459 06-08-2016 15:00:00 20.89167 C 83.1667 % 17.93 C
3460 06-08-2016 16:00:00 21.35 C 80.0833 % 17.77 C
3461 06-08-2016 17:00:00 21.14167 C 81.0000 % 17.75 C
3462 06-08-2016 18:00:00 23.025 C 69.9167 % 17.24 C
3463 06-08-2016 19:00:00 22.59167 C 68.7500 % 16.56 C
3464 06-08-2016 20:00:00 20.15833 C 76.5833 % 15.91 C
3465 06-08-2016 21:00:00 18.275 C 83.7500 % 15.48 C
3466 06-08-2016 22:00:00 17.1 C 86.6667 % 14.86 C
3467 06-08-2016 23:00:00 16.45 C 87.8333 % 14.43 C
3468 07-08-2016 00:00:00 15.35833 C 90.5000 % 13.81 C
3469 07-08-2016 01:00:00 14.4 C 93.0833 % 13.3 C
3470 07-08-2016 02:00:00 13.84167 C 94.0000 % 12.89 C
3471 07-08-2016 03:00:00 13.41667 C 94.9167 % 12.62 C
3472 07-08-2016 04:00:00 12.84167 C 95.0000 % 12.06 C
3473 07-08-2016 05:00:00 12.35833 C 95.0000 % 11.58 C
3474 07-08-2016 06:00:00 12.05833 C 95.5833 % 11.37 C
3475 07-08-2016 07:00:00 12.775 C 96.0000 % 12.15 C
Sensor: Nr:Datum:Temp:Feuchte:Taupunkt:
Aussen-T/F 3476 07-08-2016 08:00:00 13.3 C 96.0000 % 12.68 C
3477 07-08-2016 09:00:00 13.96667 C 96.1667 % 13.37 C
3478 07-08-2016 10:00:00 15.79167 C 96.0000 % 15.16 C
3479 07-08-2016 11:00:00 19.18333 C 81.3333 % 15.91 C
3480 07-08-2016 12:00:00 20.74167 C 75.0833 % 16.17 C
3481 07-08-2016 13:00:00 22.08333 C 69.1667 % 16.17 C
3482 07-08-2016 14:00:00 23.31667 C 65.3333 % 16.45 C
3483 07-08-2016 15:00:00 24.86667 C 61.9167 % 17.07 C
3484 07-08-2016 16:00:00 27.71667 C 56.5000 % 18.28 C
3485 07-08-2016 17:00:00 28.71667 C 56.3333 % 19.16 C
3486 07-08-2016 18:00:00 28.69167 C 58.9167 % 19.86 C
3487 07-08-2016 19:00:00 26.925 C 65.4167 % 19.89 C
3488 07-08-2016 20:00:00 23.24167 C 73.7500 % 18.29 C
3489 07-08-2016 21:00:00 20.73333 C 79.1667 % 16.99 C
3490 07-08-2016 22:00:00 19.33333 C 82.9167 % 16.36 C
3491 07-08-2016 23:00:00 18.45833 C 86.2500 % 16.12 C
3492 08-08-2016 00:00:00 17.64167 C 89.1667 % 15.84 C
3493 08-08-2016 01:00:00 17.48333 C 90.1667 % 15.85 C
3494 08-08-2016 02:00:00 17.85833 C 89.0000 % 16.02 C
3495 08-08-2016 03:00:00 17.98333 C 88.0000 % 15.97 C
3496 08-08-2016 04:00:00 17.13333 C 89.1667 % 15.33 C
3497 08-08-2016 05:00:00 16.35833 C 91.1667 % 14.91 C
3498 08-08-2016 06:00:00 16.35 C 92.8333 % 15.19 C
3499 08-08-2016 07:00:00 17.14167 C 90.9167 % 15.65 C
3500 08-08-2016 08:00:00 17.9 C 90.2500 % 16.28 C
Sensor: Nr:Datum:Temp:Feuchte:Taupunkt:
Aussen-T/F 3501 08-08-2016 09:00:00 19.18333 C 84.8333 % 16.57 C
3502 08-08-2016 10:00:00 20.24167 C 79.0833 % 16.5 C
3503 08-08-2016 11:00:00 21.55 C 59.1667 % 13.24 C
3504 08-08-2016 12:00:00 22.025 C 55.6667 % 12.76 C
3505 08-08-2016 13:00:00 22.625 C 58.2500 % 14.01 C
3506 08-08-2016 14:00:00 22.64167 C 63.8333 % 15.45 C
3507 08-08-2016 15:00:00 22.8 C 62.5833 % 15.29 C
3508 08-08-2016 16:00:00 24.60833 C 54.4167 % 14.8 C
3509 08-08-2016 17:00:00 21.15 C 66.5000 % 14.67 C
3510 08-08-2016 18:00:00 20.24167 C 69.4167 % 14.47 C
3511 08-08-2016 19:00:00 19.75833 C 72.4167 % 14.66 C
3512 08-08-2016 20:00:00 19.55833 C 72.7500 % 14.54 C
3513 08-08-2016 21:00:00 17.09167 C 82.6667 % 14.12 C
3514 08-08-2016 22:00:00 16.49167 C 86.0000 % 14.14 C
3515 08-08-2016 23:00:00 16.30833 C 85.8333 % 13.93 C
3516 09-08-2016 00:00:00 16.725 C 78.5833 % 12.99 C
3517 09-08-2016 01:00:00 16.00833 C 80.3333 % 12.63 C
3518 09-08-2016 02:00:00 14.95 C 82.6667 % 12.03 C
3519 09-08-2016 03:00:00 14.55 C 84.7500 % 12.01 C
3520 09-08-2016 04:00:00 14.4 C 85.2500 % 11.96 C
3521 09-08-2016 05:00:00 14.25833 C 85.2500 % 11.82 C
3522 09-08-2016 06:00:00 13.8 C 86.6667 % 11.62 C
3523 09-08-2016 07:00:00 13.39167 C 88.2500 % 11.49 C
3524 09-08-2016 08:00:00 14.13333 C 89.2500 % 12.39 C
3525 09-08-2016 09:00:00 15.325 C 83.2500 % 12.5 C
Sensor: Nr:Datum:Temp:Feuchte:Taupunkt:
Aussen-T/F 3526 09-08-2016 10:00:00 16.475 C 75.7500 % 12.18 C
3527 09-08-2016 11:00:00 17.83333 C 66.3333 % 11.48 C
3528 09-08-2016 12:00:00 18.575 C 60.9167 % 10.89 C
3529 09-08-2016 13:00:00 19.25833 C 53.8333 % 9.68 C
3530 09-08-2016 14:00:00 19.1 C 54.7500 % 9.79 C
3531 09-08-2016 15:00:00 19.99167 C 53.0000 % 10.13 C
3532 09-08-2016 16:00:00 21.55833 C 44.7500 % 9.05 C
3533 09-08-2016 17:00:00 20.45833 C 53.3333 % 10.65 C
3534 09-08-2016 18:00:00 17.75 C 63.1667 % 10.66 C
3535 09-08-2016 19:00:00 17.15 C 61.8333 % 9.78 C
3536 09-08-2016 20:00:00 16.525 C 65.0000 % 9.93 C
3537 09-08-2016 21:00:00 14.60833 C 76.9167 % 10.61 C
3538 09-08-2016 22:00:00 14.26667 C 77.7500 % 10.44 C
3539 09-08-2016 23:00:00 13.225 C 82.0833 % 10.24 C
3540 10-08-2016 00:00:00 12.16667 C 85.5000 % 9.81 C
3541 10-08-2016 01:00:00 11.4 C 86.5000 % 9.23 C
3542 10-08-2016 02:00:00 10.36667 C 89.1667 % 8.66 C
3543 10-08-2016 03:00:00 9.88333 C 91.1667 % 8.51 C
3544 10-08-2016 04:00:00 10.15833 C 92.8333 % 9.05 C
3545 10-08-2016 05:00:00 10.39167 C 92.1667 % 9.18 C
3546 10-08-2016 06:00:00 10.31667 C 92.4167 % 9.14 C
3547 10-08-2016 07:00:00 10.58333 C 93.0000 % 9.5 C
3548 10-08-2016 08:00:00 11.46667 C 91.0000 % 10.05 C
3549 10-08-2016 09:00:00 13.05 C 85.8333 % 10.74 C
3550 10-08-2016 10:00:00 12.63333 C 84.6667 % 10.12 C
Sensor: Nr:Datum:Temp:Feuchte:Taupunkt:
Aussen-T/F 3551 10-08-2016 11:00:00 11.64167 C 90.9167 % 10.21 C
3552 10-08-2016 12:00:00 12.90833 C 87.6667 % 10.91 C
3553 10-08-2016 13:00:00 14.325 C 78.2500 % 10.59 C
3554 10-08-2016 14:00:00 15.45 C 71.0000 % 10.22 C
3555 10-08-2016 15:00:00 16.58333 C 65.0000 % 9.98 C
3556 10-08-2016 16:00:00 17.99167 C 58.4167 % 9.72 C
3557 10-08-2016 17:00:00 18.80833 C 49.4167 % 8 C
3558 10-08-2016 18:00:00 17.6 C 56.0000 % 8.73 C
3559 10-08-2016 19:00:00 15.95 C 64.0833 % 9.17 C
3560 10-08-2016 20:00:00 14.6 C 70.5833 % 9.32 C
3561 10-08-2016 21:00:00 12.91667 C 76.3333 % 8.86 C
3562 10-08-2016 22:00:00 11.23333 C 82.3333 % 8.34 C
3563 10-08-2016 23:00:00 10.16667 C 86.3333 % 7.99 C
3564 11-08-2016 00:00:00 9.15833 C 89.4167 % 7.51 C
3565 11-08-2016 01:00:00 8.475 C 91.5000 % 7.17 C
3566 11-08-2016 02:00:00 8.175 C 92.9167 % 7.1 C
3567 11-08-2016 03:00:00 7.86667 C 93.4167 % 6.87 C
3568 11-08-2016 04:00:00 7.41667 C 94.0000 % 6.52 C
3569 11-08-2016 05:00:00 7.075 C 94.1667 % 6.2 C
3570 11-08-2016 06:00:00 6.9 C 95.0000 % 6.16 C
3571 11-08-2016 07:00:00 7.16667 C 95.2500 % 6.46 C
3572 11-08-2016 08:00:00 8.725 C 95.7500 % 8.09 C
3573 11-08-2016 09:00:00 10.54167 C 91.8333 % 9.27 C
3574 11-08-2016 10:00:00 12.49167 C 85.5000 % 10.13 C
3575 11-08-2016 11:00:00 14.58333 C 72.2500 % 9.65 C
Sensor: Nr:Datum:Temp:Feuchte:Taupunkt:
Aussen-T/F 3576 11-08-2016 12:00:00 16.14167 C 61.7500 % 8.8 C
3577 11-08-2016 13:00:00 17.40833 C 62.0833 % 10.08 C
3578 11-08-2016 14:00:00 17.95833 C 60.5833 % 10.23 C
3579 11-08-2016 15:00:00 18.3 C 58.7500 % 10.09 C
3580 11-08-2016 16:00:00 18.34167 C 60.0000 % 10.45 C
3581 11-08-2016 17:00:00 17.36667 C 65.0000 % 10.73 C
3582 11-08-2016 18:00:00 15.50833 C 82.4167 % 12.53 C
3583 11-08-2016 19:00:00 13.76667 C 90.0000 % 12.16 C
3584 11-08-2016 20:00:00 13.08333 C 92.3333 % 11.87 C
3585 11-08-2016 21:00:00 12.8 C 93.0833 % 11.71 C
3586 11-08-2016 22:00:00 12.89167 C 93.9167 % 11.94 C
3587 11-08-2016 23:00:00 13.05833 C 94.0833 % 12.13 C
3588 12-08-2016 00:00:00 13.25833 C 94.8333 % 12.45 C
3589 12-08-2016 01:00:00 13.39167 C 94.8333 % 12.58 C
3590 12-08-2016 02:00:00 13.51667 C 95.0000 % 12.73 C
3591 12-08-2016 03:00:00 13.63333 C 95.0000 % 12.85 C
3592 12-08-2016 04:00:00 13.775 C 95.0000 % 12.99 C
3593 12-08-2016 05:00:00 14.06667 C 94.6667 % 13.22 C
3594 12-08-2016 06:00:00 14.25833 C 94.0833 % 13.32 C
3595 12-08-2016 07:00:00 14.575 C 94.0000 % 13.62 C
3596 12-08-2016 08:00:00 15.01667 C 94.0000 % 14.06 C
3597 12-08-2016 09:00:00 15.60833 C 93.6667 % 14.59 C
3598 12-08-2016 10:00:00 16.325 C 92.8333 % 15.16 C
3599 12-08-2016 11:00:00 17.60833 C 91.0000 % 16.12 C
3600 12-08-2016 12:00:00 19.40833 C 86.7500 % 17.14 C
Sensor: Nr:Datum:Temp:Feuchte:Taupunkt:
Aussen-T/F 3601 12-08-2016 13:00:00 20.3 C 84.7500 % 17.65 C
3602 12-08-2016 14:00:00 21.20833 C 83.0833 % 18.22 C
3603 12-08-2016 15:00:00 20.54167 C 87.9167 % 18.47 C
3604 12-08-2016 16:00:00 22.025 C 82.8333 % 18.97 C
3605 12-08-2016 17:00:00 21.98333 C 83.7500 % 19.11 C
3606 12-08-2016 18:00:00 20.28333 C 88.4167 % 18.31 C
3607 12-08-2016 19:00:00 19.85833 C 90.0000 % 18.17 C
3608 12-08-2016 20:00:00 19.325 C 90.3333 % 17.7 C
3609 12-08-2016 21:00:00 18.6 C 91.5000 % 17.19 C
3610 12-08-2016 22:00:00 18.5 C 91.4167 % 17.08 C
3611 12-08-2016 23:00:00 18.54167 C 90.1667 % 16.9 C
3612 13-08-2016 00:00:00 18.31667 C 90.0833 % 16.66 C
3613 13-08-2016 01:00:00 17.74167 C 91.4167 % 16.33 C
3614 13-08-2016 02:00:00 17.20833 C 92.3333 % 15.95 C
3615 13-08-2016 03:00:00 16.49167 C 92.9167 % 15.34 C
3616 13-08-2016 04:00:00 15.66667 C 93.9167 % 14.69 C
3617 13-08-2016 05:00:00 14.98333 C 94.5833 % 14.12 C
3618 13-08-2016 06:00:00 14.66667 C 95.0000 % 13.87 C
3619 13-08-2016 07:00:00 14.58333 C 95.5833 % 13.89 C
3620 13-08-2016 08:00:00 15.38333 C 96.0000 % 14.75 C
3621 13-08-2016 09:00:00 16.69167 C 95.0000 % 15.89 C
3622 13-08-2016 10:00:00 19.175 C 87.6667 % 17.08 C
3623 13-08-2016 11:00:00 21.71667 C 79.6667 % 18.05 C
3624 13-08-2016 12:00:00 22.69167 C 75.8333 % 18.21 C
3625 13-08-2016 13:00:00 23.55833 C 72.1667 % 18.25 C
Sensor: Nr:Datum:Temp:Feuchte:Taupunkt:
Aussen-T/F 3626 13-08-2016 14:00:00 24.80833 C 67.2500 % 18.32 C
3627 13-08-2016 15:00:00 26.13333 C 59.0000 % 17.49 C
3628 13-08-2016 16:00:00 28.63333 C 46.1667 % 15.93 C
3629 13-08-2016 17:00:00 29.83333 C 43.9167 % 16.23 C
3630 13-08-2016 18:00:00 29.64167 C 40.5833 % 14.83 C
3631 13-08-2016 19:00:00 26.73333 C 51.0000 % 15.75 C
3632 13-08-2016 20:00:00 23.41667 C 68.0833 % 17.19 C
3633 13-08-2016 21:00:00 20.30833 C 80.0833 % 16.76 C
3634 13-08-2016 22:00:00 18.825 C 85.0833 % 16.26 C
3635 13-08-2016 23:00:00 17.81667 C 87.5833 % 15.73 C
3636 14-08-2016 00:00:00 16.54167 C 90.5833 % 15 C
3637 14-08-2016 01:00:00 15.65 C 92.1667 % 14.38 C
3638 14-08-2016 02:00:00 15.08333 C 93.1667 % 13.99 C
3639 14-08-2016 03:00:00 14.58333 C 94.0000 % 13.63 C
3640 14-08-2016 04:00:00 14.08333 C 94.6667 % 13.24 C
3641 14-08-2016 05:00:00 13.9 C 95.0833 % 13.13 C
3642 14-08-2016 06:00:00 13.575 C 95.2500 % 12.83 C
3643 14-08-2016 07:00:00 14.03333 C 96.0000 % 13.41 C
3644 14-08-2016 08:00:00 14.48333 C 96.0000 % 13.85 C
3645 14-08-2016 09:00:00 15.3 C 96.0000 % 14.67 C
3646 14-08-2016 10:00:00 16.95833 C 94.3333 % 16.04 C
3647 14-08-2016 11:00:00 18.85833 C 90.4167 % 17.26 C
3648 14-08-2016 12:00:00 21.15 C 79.0000 % 17.36 C
3649 14-08-2016 13:00:00 22.61667 C 73.2500 % 17.58 C
3650 14-08-2016 14:00:00 23.79167 C 66.4167 % 17.16 C
Sensor: Nr:Datum:Temp:Feuchte:Taupunkt:
Aussen-T/F 3651 14-08-2016 15:00:00 24.63333 C 62.8333 % 17.08 C
3652 14-08-2016 16:00:00 26.125 C 56.2500 % 16.73 C
3653 14-08-2016 17:00:00 26.24167 C 53.1667 % 15.95 C
3654 14-08-2016 18:00:00 25.775 C 52.1667 % 15.23 C
3655 14-08-2016 19:00:00 24.31667 C 57.4167 % 15.37 C
3656 14-08-2016 20:00:00 23.31667 C 62.0833 % 15.65 C
3657 14-08-2016 21:00:00 20.94167 C 73.2500 % 15.97 C
3658 14-08-2016 22:00:00 18.55833 C 82.5833 % 15.54 C
3659 14-08-2016 23:00:00 17.625 C 86.2500 % 15.3 C
3660 15-08-2016 00:00:00 17.49167 C 87.1667 % 15.33 C
3661 15-08-2016 01:00:00 16.64167 C 87.1667 % 14.5 C
3662 15-08-2016 02:00:00 15.73333 C 89.0000 % 13.93 C
3663 15-08-2016 03:00:00 15.15833 C 90.7500 % 13.66 C
3664 15-08-2016 04:00:00 14.73333 C 92.0000 % 13.45 C
3665 15-08-2016 05:00:00 14.275 C 92.9167 % 13.15 C
3666 15-08-2016 06:00:00 14.15833 C 93.6667 % 13.15 C
3667 15-08-2016 07:00:00 14.69167 C 93.4167 % 13.64 C
3668 15-08-2016 08:00:00 14.73333 C 92.7500 % 13.57 C
3669 15-08-2016 09:00:00 15.11667 C 93.0000 % 13.99 C
3670 15-08-2016 10:00:00 16.19167 C 91.8333 % 14.86 C
3671 15-08-2016 11:00:00 18.34167 C 82.5833 % 15.33 C
3672 15-08-2016 12:00:00 20.65 C 71.7500 % 15.37 C
3673 15-08-2016 13:00:00 22.075 C 65.4167 % 15.29 C
3674 15-08-2016 14:00:00 23.13333 C 61.4167 % 15.31 C
3675 15-08-2016 15:00:00 24.54167 C 57.1667 % 15.51 C
Sensor: Nr:Datum:Temp:Feuchte:Taupunkt:
Aussen-T/F 3676 15-08-2016 16:00:00 25.625 C 54.7500 % 15.84 C
3677 15-08-2016 17:00:00 26.375 C 51.7500 % 15.65 C
3678 15-08-2016 18:00:00 25.35 C 53.7500 % 15.3 C
3679 15-08-2016 19:00:00 24.9 C 55.0833 % 15.26 C
3680 15-08-2016 20:00:00 21.88333 C 69.0833 % 15.96 C
3681 15-08-2016 21:00:00 18.65 C 79.5000 % 15.03 C
3682 15-08-2016 22:00:00 17.79167 C 81.8333 % 14.65 C
3683 15-08-2016 23:00:00 16.66667 C 84.8333 % 14.1 C
3684 16-08-2016 00:00:00 15.29167 C 86.0833 % 12.98 C
3685 16-08-2016 01:00:00 14.44167 C 87.4167 % 12.38 C
3686 16-08-2016 02:00:00 13.84167 C 88.4167 % 11.96 C
3687 16-08-2016 03:00:00 13.4 C 89.0000 % 11.63 C
3688 16-08-2016 04:00:00 12.74167 C 90.0000 % 11.14 C
3689 16-08-2016 05:00:00 11.975 C 91.5000 % 10.64 C
3690 16-08-2016 06:00:00 11.475 C 92.5833 % 10.32 C
3691 16-08-2016 07:00:00 11.625 C 93.6667 % 10.64 C
3692 16-08-2016 08:00:00 12.45 C 94.2500 % 11.55 C
3693 16-08-2016 09:00:00 14.00833 C 94.3333 % 13.11 C
3694 16-08-2016 10:00:00 16.325 C 86.2500 % 14.02 C
3695 16-08-2016 11:00:00 17.91667 C 79.7500 % 14.37 C
3696 16-08-2016 12:00:00 19.825 C 72.3333 % 14.7 C
3697 16-08-2016 13:00:00 21.425 C 66.0833 % 14.83 C
3698 16-08-2016 14:00:00 22.89167 C 59.0833 % 14.48 C
3699 16-08-2016 15:00:00 24.21667 C 54.7500 % 14.54 C
3700 16-08-2016 16:00:00 26.4 C 47.0833 % 14.21 C
Sensor: Nr:Datum:Temp:Feuchte:Taupunkt:
Aussen-T/F 3701 16-08-2016 17:00:00 27.59167 C 36.5833 % 11.42 C
3702 16-08-2016 18:00:00 27.275 C 40.5833 % 12.72 C
3703 16-08-2016 19:00:00 26 C 45.6667 % 13.38 C
3704 16-08-2016 20:00:00 21.36667 C 67.5000 % 15.1 C
3705 16-08-2016 21:00:00 18.55 C 74.2500 % 13.88 C
3706 16-08-2016 22:00:00 16.94167 C 81.5000 % 13.76 C
3707 16-08-2016 23:00:00 15.89167 C 85.2500 % 13.42 C
3708 17-08-2016 00:00:00 14.825 C 87.8333 % 12.83 C
3709 17-08-2016 01:00:00 14.20833 C 89.0000 % 12.42 C
3710 17-08-2016 02:00:00 13.85 C 88.0000 % 11.9 C
3711 17-08-2016 03:00:00 13.675 C 87.6667 % 11.67 C
3712 17-08-2016 04:00:00 13.35 C 87.0000 % 11.23 C
3713 17-08-2016 05:00:00 12.89167 C 87.7500 % 10.91 C
3714 17-08-2016 06:00:00 12.11667 C 90.4167 % 10.6 C
3715 17-08-2016 07:00:00 12.04167 C 92.4167 % 10.85 C
3716 17-08-2016 08:00:00 12.675 C 92.7500 % 11.53 C
3717 17-08-2016 09:00:00 13.775 C 91.3333 % 12.39 C
3718 17-08-2016 10:00:00 15.84167 C 86.4167 % 13.58 C
3719 17-08-2016 11:00:00 18.75 C 74.0000 % 14.02 C
3720 17-08-2016 12:00:00 20.98333 C 65.2500 % 14.22 C
3721 17-08-2016 13:00:00 22.25 C 59.5000 % 13.99 C
3722 17-08-2016 14:00:00 23.3 C 53.5833 % 13.35 C
3723 17-08-2016 15:00:00 24.66667 C 47.6667 % 12.82 C
3724 17-08-2016 16:00:00 26.18333 C 43.9167 % 12.94 C
3725 17-08-2016 17:00:00 27.33333 C 41.0833 % 12.96 C
Sensor: Nr:Datum:Temp:Feuchte:Taupunkt:
Aussen-T/F 3726 17-08-2016 18:00:00 27.275 C 46.5833 % 14.84 C
3727 17-08-2016 19:00:00 24.63333 C 59.0000 % 16.09 C
3728 17-08-2016 20:00:00 20.76667 C 66.8333 % 14.38 C
3729 17-08-2016 21:00:00 18.225 C 68.5833 % 12.35 C
3730 17-08-2016 22:00:00 16.80833 C 74.0833 % 12.17 C
3731 17-08-2016 23:00:00 15.09167 C 80.4167 % 11.75 C
3732 18-08-2016 00:00:00 14.03333 C 83.1667 % 11.22 C
3733 18-08-2016 01:00:00 13.35833 C 86.0833 % 11.08 C
3734 18-08-2016 02:00:00 12.65833 C 88.7500 % 10.85 C
3735 18-08-2016 03:00:00 12.00833 C 90.0833 % 10.43 C
3736 18-08-2016 04:00:00 11.50833 C 90.0000 % 9.93 C
3737 18-08-2016 05:00:00 11.01667 C 90.5000 % 9.52 C
3738 18-08-2016 06:00:00 10.81667 C 92.1667 % 9.6 C
3739 18-08-2016 07:00:00 10.93333 C 93.0000 % 9.85 C
3740 18-08-2016 08:00:00 11.95833 C 93.6667 % 10.97 C
3741 18-08-2016 09:00:00 13.45 C 92.0833 % 12.19 C
3742 18-08-2016 10:00:00 15.225 C 90.0833 % 13.61 C
3743 18-08-2016 11:00:00 17.875 C 83.0000 % 14.95 C
3744 18-08-2016 12:00:00 20.38333 C 77.1667 % 16.25 C
3745 18-08-2016 13:00:00 22.7 C 72.6667 % 17.54 C
3746 18-08-2016 14:00:00 24.69167 C 59.9167 % 16.38 C
3747 18-08-2016 15:00:00 24.64167 C 69.0833 % 18.59 C
3748 18-08-2016 16:00:00 25 C 61.5833 % 17.11 C
3749 18-08-2016 17:00:00 23.73333 C 70.6667 % 18.09 C
3750 18-08-2016 18:00:00 21.51667 C 76.7500 % 17.26 C
Sensor: Nr:Datum:Temp:Feuchte:Taupunkt:
Aussen-T/F 3751 18-08-2016 19:00:00 20.16667 C 78.4167 % 16.29 C
3752 18-08-2016 20:00:00 19.61667 C 79.6667 % 16.01 C
3753 18-08-2016 21:00:00 19.08333 C 81.2500 % 15.8 C
3754 18-08-2016 22:00:00 18.63333 C 85.5000 % 16.15 C
3755 18-08-2016 23:00:00 18.45 C 86.5833 % 16.17 C
3756 19-08-2016 00:00:00 17.9 C 85.9167 % 15.51 C
3757 19-08-2016 01:00:00 16.3 C 90.0833 % 14.67 C
3758 19-08-2016 02:00:00 15.45833 C 92.6667 % 14.28 C
3759 19-08-2016 03:00:00 15.20833 C 93.4167 % 14.15 C
3760 19-08-2016 04:00:00 14.78333 C 94.1667 % 13.85 C
3761 19-08-2016 05:00:00 14.84167 C 95.0000 % 14.05 C
3762 19-08-2016 06:00:00 14.7 C 95.0000 % 13.91 C
3763 19-08-2016 07:00:00 15.34167 C